<?xml version='1.0' encoding='UTF-8'?><gpx version="1.1" creator="JPX - https://github.com/jenetics/jpx" xmlns="http://www.topografix.com/GPX/1/1"><trk><trkseg><trkpt lat="40.7205802" lon="15.0599137"><ele>751.25</ele><time>2026-04-12T13:17:55.701Z</time></trkpt><trkpt lat="40.7205802" lon="15.0601096"><ele>751.5</ele><time>2026-04-12T13:19:36.721Z</time></trkpt><trkpt lat="40.7205658" lon="15.0602415"><ele>751.75</ele><time>2026-04-12T13:19:37.727Z</time></trkpt><trkpt lat="40.7205315" lon="15.0603876"><ele>752.0</ele><time>2026-04-12T13:19:38.719Z</time></trkpt><trkpt lat="40.7204935" lon="15.0605318"><ele>752.0</ele><time>2026-04-12T13:19:39.716Z</time></trkpt><trkpt lat="40.7204594" lon="15.0606792"><ele>752.0</ele><time>2026-04-12T13:19:40.712Z</time></trkpt><trkpt lat="40.7204265" lon="15.0608262"><ele>752.0</ele><time>2026-04-12T13:19:41.719Z</time></trkpt><trkpt lat="40.7203847" lon="15.0609633"><ele>752.0</ele><time>2026-04-12T13:19:42.725Z</time></trkpt><trkpt lat="40.7203609" lon="15.0610932"><ele>752.0</ele><time>2026-04-12T13:19:43.711Z</time></trkpt><trkpt lat="40.7203579" lon="15.0612248"><ele>752.5</ele><time>2026-04-12T13:19:44.713Z</time></trkpt><trkpt lat="40.720376" lon="15.061377"><ele>753.0</ele><time>2026-04-12T13:19:45.712Z</time></trkpt><trkpt lat="40.7204139" lon="15.0615381"><ele>753.5</ele><time>2026-04-12T13:19:46.712Z</time></trkpt><trkpt lat="40.7204461" lon="15.0616906"><ele>754.0</ele><time>2026-04-12T13:19:47.714Z</time></trkpt><trkpt lat="40.7204658" lon="15.06184"><ele>754.0</ele><time>2026-04-12T13:19:48.714Z</time></trkpt><trkpt lat="40.7204766" lon="15.0619821"><ele>754.0</ele><time>2026-04-12T13:19:49.711Z</time></trkpt><trkpt lat="40.7204746" lon="15.06212"><ele>754.0</ele><time>2026-04-12T13:19:50.715Z</time></trkpt><trkpt lat="40.7204702" lon="15.0622758"><ele>754.0</ele><time>2026-04-12T13:19:51.709Z</time></trkpt><trkpt lat="40.7204687" lon="15.0624283"><ele>754.0</ele><time>2026-04-12T13:19:52.716Z</time></trkpt><trkpt lat="40.7204685" lon="15.0625753"><ele>755.3333333333334</ele><time>2026-04-12T13:19:53.717Z</time></trkpt><trkpt lat="40.7204736" lon="15.0626942"><ele>756.6666666666667</ele><time>2026-04-12T13:19:54.711Z</time></trkpt><trkpt lat="40.7204639" lon="15.062795"><ele>758.0</ele><time>2026-04-12T13:19:55.712Z</time></trkpt><trkpt lat="40.7204342" lon="15.0628839"><ele>759.3333333333334</ele><time>2026-04-12T13:19:56.73Z</time></trkpt><trkpt lat="40.7203938" lon="15.0629692"><ele>760.6666666666666</ele><time>2026-04-12T13:19:57.729Z</time></trkpt><trkpt lat="40.7203364" lon="15.0630464"><ele>762.0</ele><time>2026-04-12T13:19:58.732Z</time></trkpt><trkpt lat="40.7202768" lon="15.0631256"><ele>762.0</ele><time>2026-04-12T13:19:59.725Z</time></trkpt><trkpt lat="40.7202355" lon="15.0632088"><ele>762.0</ele><time>2026-04-12T13:20:00.723Z</time></trkpt><trkpt lat="40.7202205" lon="15.0633103"><ele>762.0</ele><time>2026-04-12T13:20:01.717Z</time></trkpt><trkpt lat="40.7202294" lon="15.0634244"><ele>762.0</ele><time>2026-04-12T13:20:02.72Z</time></trkpt><trkpt lat="40.7202472" lon="15.0635394"><ele>762.0</ele><time>2026-04-12T13:20:03.713Z</time></trkpt><trkpt lat="40.72027" lon="15.0636587"><ele>762.0</ele><time>2026-04-12T13:20:04.717Z</time></trkpt><trkpt lat="40.7202983" lon="15.06376"><ele>764.1666666666666</ele><time>2026-04-12T13:20:05.716Z</time></trkpt><trkpt lat="40.720342" lon="15.0638337"><ele>766.3333333333333</ele><time>2026-04-12T13:20:06.709Z</time></trkpt><trkpt lat="40.7204055" lon="15.0638989"><ele>768.5</ele><time>2026-04-12T13:20:07.731Z</time></trkpt><trkpt lat="40.7204807" lon="15.0639586"><ele>770.6666666666666</ele><time>2026-04-12T13:20:08.72Z</time></trkpt><trkpt lat="40.7205559" lon="15.0640313"><ele>772.8333333333333</ele><time>2026-04-12T13:20:09.719Z</time></trkpt><trkpt lat="40.7206151" lon="15.064106"><ele>775.0</ele><time>2026-04-12T13:20:10.722Z</time></trkpt><trkpt lat="40.7206642" lon="15.0642071"><ele>779.0</ele><time>2026-04-12T13:20:11.735Z</time></trkpt><trkpt lat="40.7207149" lon="15.0643208"><ele>783.0</ele><time>2026-04-12T13:20:12.737Z</time></trkpt><trkpt lat="40.7207844" lon="15.0644414"><ele>787.0</ele><time>2026-04-12T13:20:13.721Z</time></trkpt><trkpt lat="40.7209264" lon="15.0646721"><ele>791.0</ele><time>2026-04-12T13:20:15.714Z</time></trkpt><trkpt lat="40.7209895" lon="15.0648117"><ele>791.0000000000001</ele><time>2026-04-12T13:20:16.714Z</time></trkpt><trkpt lat="40.7210503" lon="15.0649177"><ele>791.0</ele><time>2026-04-12T13:20:17.723Z</time></trkpt><trkpt lat="40.7210906" lon="15.0650133"><ele>791.0</ele><time>2026-04-12T13:20:18.723Z</time></trkpt><trkpt lat="40.72113" lon="15.0651071"><ele>791.0</ele><time>2026-04-12T13:20:19.713Z</time></trkpt><trkpt lat="40.7211447" lon="15.0652134"><ele>791.0000000000001</ele><time>2026-04-12T13:20:20.713Z</time></trkpt><trkpt lat="40.7211361" lon="15.0653452"><ele>791.0</ele><time>2026-04-12T13:20:21.713Z</time></trkpt><trkpt lat="40.7211279" lon="15.0654762"><ele>790.5000000000001</ele><time>2026-04-12T13:20:22.718Z</time></trkpt><trkpt lat="40.7211194" lon="15.0655901"><ele>790.0</ele><time>2026-04-12T13:20:23.711Z</time></trkpt><trkpt lat="40.7211" lon="15.0656965"><ele>789.5</ele><time>2026-04-12T13:20:24.713Z</time></trkpt><trkpt lat="40.7210703" lon="15.0657973"><ele>789.0</ele><time>2026-04-12T13:20:25.723Z</time></trkpt><trkpt lat="40.7210278" lon="15.0659026"><ele>788.5000000000001</ele><time>2026-04-12T13:20:26.714Z</time></trkpt><trkpt lat="40.720971" lon="15.066"><ele>788.0</ele><time>2026-04-12T13:20:27.715Z</time></trkpt><trkpt lat="40.7209154" lon="15.0660983"><ele>793.1666666666667</ele><time>2026-04-12T13:20:28.71Z</time></trkpt><trkpt lat="40.7208663" lon="15.0661929"><ele>798.3333333333334</ele><time>2026-04-12T13:20:29.713Z</time></trkpt><trkpt lat="40.7208287" lon="15.06627"><ele>803.5</ele><time>2026-04-12T13:20:30.719Z</time></trkpt><trkpt lat="40.7207676" lon="15.0664158"><ele>808.6666666666667</ele><time>2026-04-12T13:20:32.715Z</time></trkpt><trkpt lat="40.7207474" lon="15.0665083"><ele>813.8333333333334</ele><time>2026-04-12T13:20:33.712Z</time></trkpt><trkpt lat="40.720732" lon="15.0666064"><ele>819.0</ele><time>2026-04-12T13:20:34.715Z</time></trkpt><trkpt lat="40.7207252" lon="15.0667065"><ele>819.8333333333334</ele><time>2026-04-12T13:20:35.712Z</time></trkpt><trkpt lat="40.7207288" lon="15.0668127"><ele>820.6666666666667</ele><time>2026-04-12T13:20:36.722Z</time></trkpt><trkpt lat="40.7207387" lon="15.0669205"><ele>821.5</ele><time>2026-04-12T13:20:37.72Z</time></trkpt><trkpt lat="40.7207456" lon="15.0670872"><ele>822.3333333333334</ele><time>2026-04-12T13:20:39.72Z</time></trkpt><trkpt lat="40.7207538" lon="15.0671782"><ele>823.1666666666667</ele><time>2026-04-12T13:20:40.72Z</time></trkpt><trkpt lat="40.7207543" lon="15.0672766"><ele>824.0</ele><time>2026-04-12T13:20:41.724Z</time></trkpt><trkpt lat="40.7207546" lon="15.0673762"><ele>824.8333333333334</ele><time>2026-04-12T13:20:42.733Z</time></trkpt><trkpt lat="40.7207524" lon="15.0674707"><ele>825.6666666666667</ele><time>2026-04-12T13:20:43.725Z</time></trkpt><trkpt lat="40.7207469" lon="15.0675657"><ele>826.5</ele><time>2026-04-12T13:20:44.723Z</time></trkpt><trkpt lat="40.7207423" lon="15.0676562"><ele>827.3333333333333</ele><time>2026-04-12T13:20:45.72Z</time></trkpt><trkpt lat="40.7207383" lon="15.0677397"><ele>828.1666666666666</ele><time>2026-04-12T13:20:46.719Z</time></trkpt><trkpt lat="40.720746" lon="15.0678912"><ele>829.0</ele><time>2026-04-12T13:20:48.725Z</time></trkpt><trkpt lat="40.7207769" lon="15.0680434"><ele>828.9999999999999</ele><time>2026-04-12T13:20:50.711Z</time></trkpt><trkpt lat="40.7207782" lon="15.0681433"><ele>829.0</ele><time>2026-04-12T13:20:51.714Z</time></trkpt><trkpt lat="40.7207705" lon="15.068255"><ele>829.0</ele><time>2026-04-12T13:20:52.718Z</time></trkpt><trkpt lat="40.7207714" lon="15.06837"><ele>829.0</ele><time>2026-04-12T13:20:53.71Z</time></trkpt><trkpt lat="40.7207753" lon="15.0684668"><ele>828.9999999999999</ele><time>2026-04-12T13:20:54.716Z</time></trkpt><trkpt lat="40.7207684" lon="15.0685642"><ele>829.0</ele><time>2026-04-12T13:20:55.716Z</time></trkpt><trkpt lat="40.7207637" lon="15.0686641"><ele>830.4999999999999</ele><time>2026-04-12T13:20:56.716Z</time></trkpt><trkpt lat="40.7207513" lon="15.06877"><ele>832.0</ele><time>2026-04-12T13:20:57.715Z</time></trkpt><trkpt lat="40.7207444" lon="15.0688817"><ele>833.5</ele><time>2026-04-12T13:20:58.712Z</time></trkpt><trkpt lat="40.7207319" lon="15.0689931"><ele>835.0</ele><time>2026-04-12T13:20:59.717Z</time></trkpt><trkpt lat="40.7207138" lon="15.069103"><ele>836.4999999999999</ele><time>2026-04-12T13:21:00.718Z</time></trkpt><trkpt lat="40.7206984" lon="15.0692203"><ele>838.0</ele><time>2026-04-12T13:21:01.715Z</time></trkpt><trkpt lat="40.7206877" lon="15.0693474"><ele>840.0</ele><time>2026-04-12T13:21:02.719Z</time></trkpt><trkpt lat="40.7206785" lon="15.0694737"><ele>842.0</ele><time>2026-04-12T13:21:03.716Z</time></trkpt><trkpt lat="40.7206776" lon="15.0695875"><ele>844.0</ele><time>2026-04-12T13:21:04.711Z</time></trkpt><trkpt lat="40.7206777" lon="15.0696765"><ele>846.0</ele><time>2026-04-12T13:21:05.72Z</time></trkpt><trkpt lat="40.720682" lon="15.069839"><ele>848.0</ele><time>2026-04-12T13:21:07.722Z</time></trkpt><trkpt lat="40.7206699" lon="15.0699951"><ele>849.5000000000001</ele><time>2026-04-12T13:21:09.716Z</time></trkpt><trkpt lat="40.7206591" lon="15.0700874"><ele>851.0</ele><time>2026-04-12T13:21:10.71Z</time></trkpt><trkpt lat="40.7206478" lon="15.0702"><ele>852.5</ele><time>2026-04-12T13:21:11.722Z</time></trkpt><trkpt lat="40.7206351" lon="15.0703091"><ele>854.0</ele><time>2026-04-12T13:21:12.717Z</time></trkpt><trkpt lat="40.7206329" lon="15.0704254"><ele>855.5000000000001</ele><time>2026-04-12T13:21:13.72Z</time></trkpt><trkpt lat="40.7206336" lon="15.0705419"><ele>857.0</ele><time>2026-04-12T13:21:14.722Z</time></trkpt><trkpt lat="40.7206385" lon="15.0706504"><ele>857.0</ele><time>2026-04-12T13:21:15.713Z</time></trkpt><trkpt lat="40.7206454" lon="15.0707494"><ele>857.0</ele><time>2026-04-12T13:21:16.714Z</time></trkpt><trkpt lat="40.7206429" lon="15.0708596"><ele>857.0</ele><time>2026-04-12T13:21:17.717Z</time></trkpt><trkpt lat="40.7206301" lon="15.070979"><ele>857.0</ele><time>2026-04-12T13:21:18.712Z</time></trkpt><trkpt lat="40.7206047" lon="15.0711154"><ele>857.0</ele><time>2026-04-12T13:21:19.711Z</time></trkpt><trkpt lat="40.7205759" lon="15.0712419"><ele>858.0000000000001</ele><time>2026-04-12T13:21:20.714Z</time></trkpt><trkpt lat="40.7205435" lon="15.0713587"><ele>859.0</ele><time>2026-04-12T13:21:21.715Z</time></trkpt><trkpt lat="40.7205085" lon="15.071466"><ele>860.0</ele><time>2026-04-12T13:21:22.711Z</time></trkpt><trkpt lat="40.7204856" lon="15.0715547"><ele>861.0</ele><time>2026-04-12T13:21:23.709Z</time></trkpt><trkpt lat="40.7205067" lon="15.0716965"><ele>862.0000000000001</ele><time>2026-04-12T13:21:25.71Z</time></trkpt><trkpt lat="40.7205473" lon="15.071762"><ele>863.0</ele><time>2026-04-12T13:21:26.713Z</time></trkpt><trkpt lat="40.720602" lon="15.0718051"><ele>865.3333333333334</ele><time>2026-04-12T13:21:27.709Z</time></trkpt><trkpt lat="40.7206647" lon="15.0718281"><ele>867.6666666666667</ele><time>2026-04-12T13:21:28.712Z</time></trkpt><trkpt lat="40.7207598" lon="15.0718419"><ele>870.0</ele><time>2026-04-12T13:21:30.715Z</time></trkpt><trkpt lat="40.7208365" lon="15.0718643"><ele>872.3333333333333</ele><time>2026-04-12T13:21:32.717Z</time></trkpt><trkpt lat="40.7209112" lon="15.0719213"><ele>874.6666666666666</ele><time>2026-04-12T13:21:34.719Z</time></trkpt><trkpt lat="40.7209869" lon="15.0720124"><ele>877.0</ele><time>2026-04-12T13:21:36.719Z</time></trkpt><trkpt lat="40.7209992" lon="15.0720955"><ele>877.0</ele><time>2026-04-12T13:21:38.727Z</time></trkpt><trkpt lat="40.7209295" lon="15.0721624"><ele>877.0</ele><time>2026-04-12T13:21:40.723Z</time></trkpt><trkpt lat="40.7208115" lon="15.0722019"><ele>877.0</ele><time>2026-04-12T13:21:42.726Z</time></trkpt><trkpt lat="40.7207248" lon="15.0722365"><ele>877.0</ele><time>2026-04-12T13:21:43.715Z</time></trkpt><trkpt lat="40.7206262" lon="15.0722853"><ele>877.0</ele><time>2026-04-12T13:21:44.72Z</time></trkpt><trkpt lat="40.7205229" lon="15.0723425"><ele>877.0</ele><time>2026-04-12T13:21:45.72Z</time></trkpt><trkpt lat="40.7204151" lon="15.0724001"><ele>877.0</ele><time>2026-04-12T13:21:46.711Z</time></trkpt><trkpt lat="40.7203046" lon="15.0724442"><ele>877.0</ele><time>2026-04-12T13:21:47.714Z</time></trkpt><trkpt lat="40.7201801" lon="15.0724634"><ele>877.0</ele><time>2026-04-12T13:21:48.711Z</time></trkpt><trkpt lat="40.7200539" lon="15.0724894"><ele>882.8</ele><time>2026-04-12T13:21:49.714Z</time></trkpt><trkpt lat="40.7199335" lon="15.0725158"><ele>888.6</ele><time>2026-04-12T13:21:50.71Z</time></trkpt><trkpt lat="40.7198297" lon="15.0725257"><ele>894.3999999999999</ele><time>2026-04-12T13:21:51.711Z</time></trkpt><trkpt lat="40.7197565" lon="15.072532"><ele>900.1999999999999</ele><time>2026-04-12T13:21:52.712Z</time></trkpt><trkpt lat="40.719659" lon="15.0725754"><ele>906.0</ele><time>2026-04-12T13:21:54.706Z</time></trkpt><trkpt lat="40.7196629" lon="15.0727112"><ele>906.0</ele><time>2026-04-12T13:21:56.708Z</time></trkpt><trkpt lat="40.7196914" lon="15.0727881"><ele>906.0</ele><time>2026-04-12T13:21:57.712Z</time></trkpt><trkpt lat="40.7197526" lon="15.0728406"><ele>906.0</ele><time>2026-04-12T13:21:58.711Z</time></trkpt><trkpt lat="40.7198403" lon="15.0728543"><ele>906.0</ele><time>2026-04-12T13:21:59.709Z</time></trkpt><trkpt lat="40.7199367" lon="15.07283"><ele>906.0</ele><time>2026-04-12T13:22:00.71Z</time></trkpt><trkpt lat="40.7200536" lon="15.072794"><ele>906.0</ele><time>2026-04-12T13:22:01.706Z</time></trkpt><trkpt lat="40.7201995" lon="15.0727677"><ele>904.5</ele><time>2026-04-12T13:22:02.708Z</time></trkpt><trkpt lat="40.7203359" lon="15.072743"><ele>903.0</ele><time>2026-04-12T13:22:03.71Z</time></trkpt><trkpt lat="40.7204674" lon="15.0727236"><ele>901.5</ele><time>2026-04-12T13:22:04.707Z</time></trkpt><trkpt lat="40.7206078" lon="15.0726996"><ele>900.0</ele><time>2026-04-12T13:22:05.713Z</time></trkpt><trkpt lat="40.7207651" lon="15.072671"><ele>900.0</ele><time>2026-04-12T13:22:06.702Z</time></trkpt><trkpt lat="40.7208769" lon="15.0726572"><ele>900.0</ele><time>2026-04-12T13:22:07.709Z</time></trkpt><trkpt lat="40.7209406" lon="15.0726435"><ele>900.0</ele><time>2026-04-12T13:22:08.708Z</time></trkpt><trkpt lat="40.7210093" lon="15.0726474"><ele>900.0</ele><time>2026-04-12T13:22:09.712Z</time></trkpt><trkpt lat="40.7210686" lon="15.072683"><ele>900.0</ele><time>2026-04-12T13:22:10.712Z</time></trkpt><trkpt lat="40.7211436" lon="15.0727237"><ele>900.0</ele><time>2026-04-12T13:22:11.711Z</time></trkpt><trkpt lat="40.7212103" lon="15.0728037"><ele>898.8333333333334</ele><time>2026-04-12T13:22:12.711Z</time></trkpt><trkpt lat="40.7212505" lon="15.0729085"><ele>897.6666666666667</ele><time>2026-04-12T13:22:13.706Z</time></trkpt><trkpt lat="40.7212764" lon="15.073022"><ele>896.5</ele><time>2026-04-12T13:22:14.713Z</time></trkpt><trkpt lat="40.7212952" lon="15.0731364"><ele>895.3333333333334</ele><time>2026-04-12T13:22:15.713Z</time></trkpt><trkpt lat="40.7213081" lon="15.0732345"><ele>894.1666666666667</ele><time>2026-04-12T13:22:16.719Z</time></trkpt><trkpt lat="40.7213231" lon="15.0733214"><ele>893.0</ele><time>2026-04-12T13:22:17.709Z</time></trkpt><trkpt lat="40.7213399" lon="15.0734046"><ele>893.0</ele><time>2026-04-12T13:22:18.71Z</time></trkpt><trkpt lat="40.721354" lon="15.073491"><ele>893.0</ele><time>2026-04-12T13:22:19.711Z</time></trkpt><trkpt lat="40.7213732" lon="15.073583"><ele>893.0</ele><time>2026-04-12T13:22:20.711Z</time></trkpt><trkpt lat="40.7214002" lon="15.0736718"><ele>893.0</ele><time>2026-04-12T13:22:21.709Z</time></trkpt><trkpt lat="40.721441" lon="15.0737506"><ele>893.0</ele><time>2026-04-12T13:22:22.712Z</time></trkpt><trkpt lat="40.7214999" lon="15.0738247"><ele>893.0</ele><time>2026-04-12T13:22:23.707Z</time></trkpt><trkpt lat="40.7215634" lon="15.073886"><ele>893.0</ele><time>2026-04-12T13:22:24.71Z</time></trkpt><trkpt lat="40.7216252" lon="15.0739137"><ele>893.0000000000001</ele><time>2026-04-12T13:22:25.709Z</time></trkpt><trkpt lat="40.7216919" lon="15.0739242"><ele>893.0</ele><time>2026-04-12T13:22:26.712Z</time></trkpt><trkpt lat="40.7217555" lon="15.0739394"><ele>893.0</ele><time>2026-04-12T13:22:27.712Z</time></trkpt><trkpt lat="40.7218261" lon="15.0740364"><ele>893.0</ele><time>2026-04-12T13:22:29.716Z</time></trkpt><trkpt lat="40.7218454" lon="15.0741213"><ele>893.0000000000001</ele><time>2026-04-12T13:22:30.712Z</time></trkpt><trkpt lat="40.7218465" lon="15.0742221"><ele>893.0</ele><time>2026-04-12T13:22:31.712Z</time></trkpt><trkpt lat="40.7218428" lon="15.0743302"><ele>890.3333333333334</ele><time>2026-04-12T13:22:32.708Z</time></trkpt><trkpt lat="40.7218492" lon="15.0744283"><ele>887.6666666666667</ele><time>2026-04-12T13:22:33.711Z</time></trkpt><trkpt lat="40.7218717" lon="15.0745084"><ele>885.0</ele><time>2026-04-12T13:22:34.713Z</time></trkpt><trkpt lat="40.7219024" lon="15.0745825"><ele>882.3333333333333</ele><time>2026-04-12T13:22:35.713Z</time></trkpt><trkpt lat="40.7219839" lon="15.0747007"><ele>879.6666666666666</ele><time>2026-04-12T13:22:37.719Z</time></trkpt><trkpt lat="40.7220524" lon="15.0747663"><ele>877.0</ele><time>2026-04-12T13:22:38.713Z</time></trkpt><trkpt lat="40.72213" lon="15.0748213"><ele>876.9999999999999</ele><time>2026-04-12T13:22:39.712Z</time></trkpt><trkpt lat="40.7222034" lon="15.074855"><ele>877.0</ele><time>2026-04-12T13:22:40.707Z</time></trkpt><trkpt lat="40.7222788" lon="15.0748672"><ele>877.0</ele><time>2026-04-12T13:22:41.717Z</time></trkpt><trkpt lat="40.7223499" lon="15.0748815"><ele>877.0</ele><time>2026-04-12T13:22:42.715Z</time></trkpt><trkpt lat="40.7224137" lon="15.0749046"><ele>876.9999999999999</ele><time>2026-04-12T13:22:43.703Z</time></trkpt><trkpt lat="40.7225012" lon="15.0749989"><ele>877.0</ele><time>2026-04-12T13:22:45.715Z</time></trkpt><trkpt lat="40.7225202" lon="15.0751684"><ele>881.3333333333333</ele><time>2026-04-12T13:22:47.728Z</time></trkpt><trkpt lat="40.722511" lon="15.0752813"><ele>885.6666666666666</ele><time>2026-04-12T13:22:48.722Z</time></trkpt><trkpt lat="40.7225062" lon="15.0753868"><ele>890.0</ele><time>2026-04-12T13:22:49.732Z</time></trkpt><trkpt lat="40.7225117" lon="15.0754815"><ele>894.3333333333333</ele><time>2026-04-12T13:22:50.735Z</time></trkpt><trkpt lat="40.7225297" lon="15.0755816"><ele>898.6666666666666</ele><time>2026-04-12T13:22:51.736Z</time></trkpt><trkpt lat="40.7225629" lon="15.0756707"><ele>903.0</ele><time>2026-04-12T13:22:52.734Z</time></trkpt><trkpt lat="40.722597" lon="15.075762"><ele>901.1666666666666</ele><time>2026-04-12T13:22:53.736Z</time></trkpt><trkpt lat="40.7226284" lon="15.0758487"><ele>899.3333333333333</ele><time>2026-04-12T13:22:54.733Z</time></trkpt><trkpt lat="40.7226681" lon="15.0759158"><ele>897.5</ele><time>2026-04-12T13:22:55.727Z</time></trkpt><trkpt lat="40.7227786" lon="15.0759903"><ele>895.6666666666666</ele><time>2026-04-12T13:22:57.723Z</time></trkpt><trkpt lat="40.7228414" lon="15.0760253"><ele>893.8333333333333</ele><time>2026-04-12T13:22:58.718Z</time></trkpt><trkpt lat="40.7229099" lon="15.0760432"><ele>892.0</ele><time>2026-04-12T13:22:59.718Z</time></trkpt><trkpt lat="40.7229746" lon="15.0760772"><ele>891.9999999999999</ele><time>2026-04-12T13:23:00.718Z</time></trkpt><trkpt lat="40.7230332" lon="15.0761381"><ele>892.0</ele><time>2026-04-12T13:23:01.722Z</time></trkpt><trkpt lat="40.7230775" lon="15.0762225"><ele>892.0</ele><time>2026-04-12T13:23:02.725Z</time></trkpt><trkpt lat="40.7230975" lon="15.0763218"><ele>892.0</ele><time>2026-04-12T13:23:03.729Z</time></trkpt><trkpt lat="40.7230986" lon="15.0764153"><ele>891.9999999999999</ele><time>2026-04-12T13:23:04.717Z</time></trkpt><trkpt lat="40.7230798" lon="15.0765158"><ele>892.0</ele><time>2026-04-12T13:23:05.716Z</time></trkpt><trkpt lat="40.7230604" lon="15.0766243"><ele>893.8333333333333</ele><time>2026-04-12T13:23:06.717Z</time></trkpt><trkpt lat="40.7230368" lon="15.0767388"><ele>895.6666666666666</ele><time>2026-04-12T13:23:07.726Z</time></trkpt><trkpt lat="40.7230187" lon="15.0768576"><ele>897.5</ele><time>2026-04-12T13:23:08.715Z</time></trkpt><trkpt lat="40.7230041" lon="15.0769629"><ele>899.3333333333333</ele><time>2026-04-12T13:23:09.721Z</time></trkpt><trkpt lat="40.7229871" lon="15.0770508"><ele>901.1666666666666</ele><time>2026-04-12T13:23:10.723Z</time></trkpt><trkpt lat="40.7230023" lon="15.077196"><ele>903.0</ele><time>2026-04-12T13:23:12.728Z</time></trkpt><trkpt lat="40.7230567" lon="15.0773058"><ele>903.0</ele><time>2026-04-12T13:23:14.732Z</time></trkpt><trkpt lat="40.7231334" lon="15.077383"><ele>903.0</ele><time>2026-04-12T13:23:16.729Z</time></trkpt><trkpt lat="40.7232073" lon="15.0774815"><ele>903.0</ele><time>2026-04-12T13:23:18.725Z</time></trkpt><trkpt lat="40.7232786" lon="15.07757"><ele>903.0</ele><time>2026-04-12T13:23:20.719Z</time></trkpt><trkpt lat="40.7233672" lon="15.0776695"><ele>903.0</ele><time>2026-04-12T13:23:22.721Z</time></trkpt><trkpt lat="40.7234369" lon="15.0778099"><ele>904.0</ele><time>2026-04-12T13:23:24.724Z</time></trkpt><trkpt lat="40.7234464" lon="15.0779558"><ele>905.0</ele><time>2026-04-12T13:23:26.73Z</time></trkpt><trkpt lat="40.723429" lon="15.0780433"><ele>906.0</ele><time>2026-04-12T13:23:27.72Z</time></trkpt><trkpt lat="40.7233797" lon="15.0781803"><ele>907.0</ele><time>2026-04-12T13:23:29.725Z</time></trkpt><trkpt lat="40.7233556" lon="15.0782684"><ele>908.0</ele><time>2026-04-12T13:23:31.725Z</time></trkpt><trkpt lat="40.7233282" lon="15.0783562"><ele>909.0</ele><time>2026-04-12T13:23:33.732Z</time></trkpt><trkpt lat="40.7233333" lon="15.0785041"><ele>909.4000000000001</ele><time>2026-04-12T13:23:35.733Z</time></trkpt><trkpt lat="40.7233769" lon="15.0786437"><ele>909.8000000000001</ele><time>2026-04-12T13:23:37.734Z</time></trkpt><trkpt lat="40.7234526" lon="15.078745"><ele>910.1999999999999</ele><time>2026-04-12T13:23:39.726Z</time></trkpt><trkpt lat="40.7235116" lon="15.0788666"><ele>910.5999999999999</ele><time>2026-04-12T13:23:41.725Z</time></trkpt><trkpt lat="40.7235199" lon="15.0789539"><ele>911.0</ele><time>2026-04-12T13:23:42.729Z</time></trkpt><trkpt lat="40.7235246" lon="15.0790442"><ele>910.5000000000001</ele><time>2026-04-12T13:23:43.723Z</time></trkpt><trkpt lat="40.7235212" lon="15.0791376"><ele>910.0</ele><time>2026-04-12T13:23:44.718Z</time></trkpt><trkpt lat="40.7235209" lon="15.0792234"><ele>909.5</ele><time>2026-04-12T13:23:45.715Z</time></trkpt><trkpt lat="40.7235312" lon="15.07937"><ele>909.0</ele><time>2026-04-12T13:23:47.722Z</time></trkpt><trkpt lat="40.7235094" lon="15.0795089"><ele>908.5000000000001</ele><time>2026-04-12T13:23:49.724Z</time></trkpt><trkpt lat="40.7234829" lon="15.0795925"><ele>908.0</ele><time>2026-04-12T13:23:50.722Z</time></trkpt><trkpt lat="40.7234553" lon="15.0796849"><ele>908.0000000000001</ele><time>2026-04-12T13:23:51.72Z</time></trkpt><trkpt lat="40.7234518" lon="15.0797817"><ele>908.0</ele><time>2026-04-12T13:23:52.727Z</time></trkpt><trkpt lat="40.7234516" lon="15.0798747"><ele>908.0</ele><time>2026-04-12T13:23:53.729Z</time></trkpt><trkpt lat="40.723454" lon="15.07997"><ele>908.0</ele><time>2026-04-12T13:23:54.724Z</time></trkpt><trkpt lat="40.7234314" lon="15.0800696"><ele>908.0000000000001</ele><time>2026-04-12T13:23:55.722Z</time></trkpt><trkpt lat="40.7234121" lon="15.0801756"><ele>908.0</ele><time>2026-04-12T13:23:56.729Z</time></trkpt><trkpt lat="40.7233853" lon="15.0802862"><ele>906.5000000000001</ele><time>2026-04-12T13:23:57.729Z</time></trkpt><trkpt lat="40.72337" lon="15.0804082"><ele>905.0</ele><time>2026-04-12T13:23:58.727Z</time></trkpt><trkpt lat="40.7233566" lon="15.0805302"><ele>903.5</ele><time>2026-04-12T13:23:59.731Z</time></trkpt><trkpt lat="40.7233494" lon="15.0806344"><ele>902.0</ele><time>2026-04-12T13:24:00.724Z</time></trkpt><trkpt lat="40.7233383" lon="15.080719"><ele>900.5000000000001</ele><time>2026-04-12T13:24:01.72Z</time></trkpt><trkpt lat="40.723302" lon="15.0808434"><ele>899.0</ele><time>2026-04-12T13:24:03.724Z</time></trkpt><trkpt lat="40.7232574" lon="15.0809809"><ele>896.6</ele><time>2026-04-12T13:24:05.729Z</time></trkpt><trkpt lat="40.7231772" lon="15.0810865"><ele>894.2</ele><time>2026-04-12T13:24:07.728Z</time></trkpt><trkpt lat="40.7231239" lon="15.0811363"><ele>891.8000000000001</ele><time>2026-04-12T13:24:08.725Z</time></trkpt><trkpt lat="40.7230535" lon="15.0812502"><ele>889.4000000000001</ele><time>2026-04-12T13:24:10.728Z</time></trkpt><trkpt lat="40.7230487" lon="15.0813813"><ele>887.0</ele><time>2026-04-12T13:24:12.727Z</time></trkpt><trkpt lat="40.723069" lon="15.0815171"><ele>886.4000000000001</ele><time>2026-04-12T13:24:14.728Z</time></trkpt><trkpt lat="40.7231146" lon="15.0816318"><ele>885.8000000000001</ele><time>2026-04-12T13:24:16.726Z</time></trkpt><trkpt lat="40.7231498" lon="15.081763"><ele>885.2</ele><time>2026-04-12T13:24:18.718Z</time></trkpt><trkpt lat="40.7231817" lon="15.0818984"><ele>884.6</ele><time>2026-04-12T13:24:20.733Z</time></trkpt><trkpt lat="40.7231869" lon="15.0820355"><ele>884.0</ele><time>2026-04-12T13:24:22.727Z</time></trkpt><trkpt lat="40.7232327" lon="15.0821323"><ele>884.0</ele><time>2026-04-12T13:24:25.729Z</time></trkpt><trkpt lat="40.7233058" lon="15.0821247"><ele>884.0000000000001</ele><time>2026-04-12T13:24:28.717Z</time></trkpt><trkpt lat="40.7233934" lon="15.0820354"><ele>884.0000000000001</ele><time>2026-04-12T13:24:30.727Z</time></trkpt><trkpt lat="40.7234871" lon="15.0819505"><ele>884.0</ele><time>2026-04-12T13:24:32.739Z</time></trkpt><trkpt lat="40.7235442" lon="15.0818492"><ele>884.0</ele><time>2026-04-12T13:24:34.732Z</time></trkpt><trkpt lat="40.7235972" lon="15.0817304"><ele>884.8333333333334</ele><time>2026-04-12T13:24:36.737Z</time></trkpt><trkpt lat="40.7236215" lon="15.0816457"><ele>885.6666666666667</ele><time>2026-04-12T13:24:37.735Z</time></trkpt><trkpt lat="40.7236791" lon="15.0815061"><ele>886.5</ele><time>2026-04-12T13:24:39.722Z</time></trkpt><trkpt lat="40.7237091" lon="15.0813917"><ele>887.3333333333333</ele><time>2026-04-12T13:24:41.715Z</time></trkpt><trkpt lat="40.7237344" lon="15.0813123"><ele>888.1666666666666</ele><time>2026-04-12T13:24:43.718Z</time></trkpt><trkpt lat="40.7238177" lon="15.0813646"><ele>889.0</ele><time>2026-04-12T13:24:46.72Z</time></trkpt><trkpt lat="40.723877" lon="15.0814016"><ele>886.3333333333333</ele><time>2026-04-12T13:24:48.721Z</time></trkpt><trkpt lat="40.7239731" lon="15.0813561"><ele>883.6666666666666</ele><time>2026-04-12T13:24:51.725Z</time></trkpt><trkpt lat="40.7240306" lon="15.0813214"><ele>881.0</ele><time>2026-04-12T13:24:52.715Z</time></trkpt><trkpt lat="40.7240901" lon="15.081261"><ele>878.3333333333333</ele><time>2026-04-12T13:24:53.717Z</time></trkpt><trkpt lat="40.7241618" lon="15.0811766"><ele>875.6666666666666</ele><time>2026-04-12T13:24:54.717Z</time></trkpt><trkpt lat="40.7242332" lon="15.0810919"><ele>873.0</ele><time>2026-04-12T13:24:55.722Z</time></trkpt><trkpt lat="40.7242974" lon="15.0810304"><ele>873.0</ele><time>2026-04-12T13:24:56.712Z</time></trkpt><trkpt lat="40.7243601" lon="15.0809844"><ele>873.0</ele><time>2026-04-12T13:24:57.722Z</time></trkpt><trkpt lat="40.724428" lon="15.0809293"><ele>873.0</ele><time>2026-04-12T13:24:58.717Z</time></trkpt><trkpt lat="40.7244904" lon="15.0808702"><ele>873.0</ele><time>2026-04-12T13:24:59.719Z</time></trkpt><trkpt lat="40.7245484" lon="15.0808196"><ele>873.0</ele><time>2026-04-12T13:25:00.717Z</time></trkpt><trkpt lat="40.7246085" lon="15.0807426"><ele>873.0</ele><time>2026-04-12T13:25:02.725Z</time></trkpt><trkpt lat="40.7246755" lon="15.0807798"><ele>876.6666666666666</ele><time>2026-04-12T13:25:05.728Z</time></trkpt><trkpt lat="40.7246944" lon="15.0808632"><ele>880.3333333333333</ele><time>2026-04-12T13:25:07.73Z</time></trkpt><trkpt lat="40.724661" lon="15.0809666"><ele>884.0</ele><time>2026-04-12T13:25:09.719Z</time></trkpt><trkpt lat="40.7246431" lon="15.0810473"><ele>887.6666666666666</ele><time>2026-04-12T13:25:10.737Z</time></trkpt><trkpt lat="40.7246141" lon="15.0811402"><ele>891.3333333333333</ele><time>2026-04-12T13:25:11.728Z</time></trkpt><trkpt lat="40.7245806" lon="15.081236"><ele>895.0</ele><time>2026-04-12T13:25:12.735Z</time></trkpt><trkpt lat="40.7245522" lon="15.0813375"><ele>895.0</ele><time>2026-04-12T13:25:13.726Z</time></trkpt><trkpt lat="40.7244944" lon="15.08148"><ele>895.0</ele><time>2026-04-12T13:25:15.727Z</time></trkpt><trkpt lat="40.7244531" lon="15.0815485"><ele>895.0</ele><time>2026-04-12T13:25:16.721Z</time></trkpt><trkpt lat="40.7244111" lon="15.0816437"><ele>895.0</ele><time>2026-04-12T13:25:17.723Z</time></trkpt><trkpt lat="40.7243559" lon="15.0817425"><ele>895.0</ele><time>2026-04-12T13:25:18.72Z</time></trkpt><trkpt lat="40.7242889" lon="15.0818538"><ele>893.8</ele><time>2026-04-12T13:25:19.715Z</time></trkpt><trkpt lat="40.7242219" lon="15.0819768"><ele>892.6</ele><time>2026-04-12T13:25:20.717Z</time></trkpt><trkpt lat="40.7241565" lon="15.0821047"><ele>891.4000000000001</ele><time>2026-04-12T13:25:21.71Z</time></trkpt><trkpt lat="40.7240811" lon="15.0822113"><ele>890.2</ele><time>2026-04-12T13:25:22.726Z</time></trkpt><trkpt lat="40.7240321" lon="15.082272"><ele>889.0</ele><time>2026-04-12T13:25:23.721Z</time></trkpt><trkpt lat="40.724118" lon="15.0823013"><ele>889.0</ele><time>2026-04-12T13:25:27.726Z</time></trkpt><trkpt lat="40.7242104" lon="15.0822154"><ele>889.0000000000001</ele><time>2026-04-12T13:25:29.719Z</time></trkpt><trkpt lat="40.7242585" lon="15.0821279"><ele>889.0000000000001</ele><time>2026-04-12T13:25:30.722Z</time></trkpt><trkpt lat="40.7243098" lon="15.0820453"><ele>889.0</ele><time>2026-04-12T13:25:31.718Z</time></trkpt><trkpt lat="40.7243735" lon="15.0819562"><ele>889.0</ele><time>2026-04-12T13:25:32.718Z</time></trkpt><trkpt lat="40.7244661" lon="15.0818786"><ele>890.2</ele><time>2026-04-12T13:25:33.718Z</time></trkpt><trkpt lat="40.7245553" lon="15.0818074"><ele>891.4000000000001</ele><time>2026-04-12T13:25:34.72Z</time></trkpt><trkpt lat="40.7246352" lon="15.0817496"><ele>892.6</ele><time>2026-04-12T13:25:35.722Z</time></trkpt><trkpt lat="40.7247034" lon="15.0817003"><ele>893.8</ele><time>2026-04-12T13:25:36.714Z</time></trkpt><trkpt lat="40.7247763" lon="15.0816725"><ele>895.0</ele><time>2026-04-12T13:25:37.732Z</time></trkpt><trkpt lat="40.7248622" lon="15.0815771"><ele>895.0</ele><time>2026-04-12T13:25:39.715Z</time></trkpt><trkpt lat="40.7249562" lon="15.0814917"><ele>895.0</ele><time>2026-04-12T13:25:41.727Z</time></trkpt><trkpt lat="40.7250291" lon="15.081432"><ele>895.0</ele><time>2026-04-12T13:25:43.724Z</time></trkpt><trkpt lat="40.7250816" lon="15.0813729"><ele>895.0</ele><time>2026-04-12T13:25:45.733Z</time></trkpt><trkpt lat="40.7251012" lon="15.0812413"><ele>895.0</ele><time>2026-04-12T13:25:47.723Z</time></trkpt><trkpt lat="40.7251844" lon="15.0811225"><ele>898.8333333333333</ele><time>2026-04-12T13:25:49.714Z</time></trkpt><trkpt lat="40.7252535" lon="15.0810531"><ele>902.6666666666666</ele><time>2026-04-12T13:25:50.723Z</time></trkpt><trkpt lat="40.7253104" lon="15.0809912"><ele>906.5</ele><time>2026-04-12T13:25:51.728Z</time></trkpt><trkpt lat="40.7253625" lon="15.0809349"><ele>910.3333333333333</ele><time>2026-04-12T13:25:52.72Z</time></trkpt><trkpt lat="40.7254211" lon="15.0808897"><ele>914.1666666666666</ele><time>2026-04-12T13:25:53.721Z</time></trkpt><trkpt lat="40.7254956" lon="15.0808632"><ele>918.0</ele><time>2026-04-12T13:25:54.72Z</time></trkpt><trkpt lat="40.7255758" lon="15.080849"><ele>918.0</ele><time>2026-04-12T13:25:55.715Z</time></trkpt><trkpt lat="40.7256492" lon="15.0808173"><ele>918.0</ele><time>2026-04-12T13:25:56.717Z</time></trkpt><trkpt lat="40.7257039" lon="15.0807727"><ele>918.0</ele><time>2026-04-12T13:25:57.72Z</time></trkpt><trkpt lat="40.7257904" lon="15.0806863"><ele>918.0</ele><time>2026-04-12T13:25:59.721Z</time></trkpt><trkpt lat="40.7259062" lon="15.0806979"><ele>918.0</ele><time>2026-04-12T13:26:01.721Z</time></trkpt><trkpt lat="40.7259705" lon="15.0807368"><ele>918.0</ele><time>2026-04-12T13:26:02.726Z</time></trkpt><trkpt lat="40.7260397" lon="15.0807849"><ele>919.8333333333334</ele><time>2026-04-12T13:26:03.722Z</time></trkpt><trkpt lat="40.7261101" lon="15.080826"><ele>921.6666666666667</ele><time>2026-04-12T13:26:04.73Z</time></trkpt><trkpt lat="40.7261791" lon="15.0808745"><ele>923.5</ele><time>2026-04-12T13:26:05.721Z</time></trkpt><trkpt lat="40.7262351" lon="15.0809325"><ele>925.3333333333334</ele><time>2026-04-12T13:26:06.723Z</time></trkpt><trkpt lat="40.7262974" lon="15.0810136"><ele>927.1666666666667</ele><time>2026-04-12T13:26:07.734Z</time></trkpt><trkpt lat="40.726367" lon="15.0811097"><ele>929.0</ele><time>2026-04-12T13:26:08.733Z</time></trkpt><trkpt lat="40.7264322" lon="15.0811957"><ele>929.0</ele><time>2026-04-12T13:26:09.723Z</time></trkpt><trkpt lat="40.7265008" lon="15.0812717"><ele>929.0000000000001</ele><time>2026-04-12T13:26:10.729Z</time></trkpt><trkpt lat="40.7265639" lon="15.0813393"><ele>929.0000000000001</ele><time>2026-04-12T13:26:11.733Z</time></trkpt><trkpt lat="40.7266172" lon="15.081448"><ele>929.0</ele><time>2026-04-12T13:26:13.725Z</time></trkpt><trkpt lat="40.7266923" lon="15.0813665"><ele>929.0</ele><time>2026-04-12T13:26:18.723Z</time></trkpt><trkpt lat="40.7267661" lon="15.0812253"><ele>929.0000000000001</ele><time>2026-04-12T13:26:20.726Z</time></trkpt><trkpt lat="40.7267873" lon="15.0811159"><ele>929.0</ele><time>2026-04-12T13:26:21.719Z</time></trkpt><trkpt lat="40.7268023" lon="15.0810163"><ele>929.0</ele><time>2026-04-12T13:26:22.732Z</time></trkpt><trkpt lat="40.7268233" lon="15.0809107"><ele>929.0</ele><time>2026-04-12T13:26:23.717Z</time></trkpt><trkpt lat="40.7268552" lon="15.0808339"><ele>929.0000000000001</ele><time>2026-04-12T13:26:24.743Z</time></trkpt><trkpt lat="40.7269048" lon="15.080775"><ele>929.0</ele><time>2026-04-12T13:26:25.734Z</time></trkpt><trkpt lat="40.72697" lon="15.0807349"><ele>929.4000000000001</ele><time>2026-04-12T13:26:26.717Z</time></trkpt><trkpt lat="40.7270531" lon="15.08071"><ele>929.8000000000001</ele><time>2026-04-12T13:26:27.721Z</time></trkpt><trkpt lat="40.727154" lon="15.0806764"><ele>930.1999999999999</ele><time>2026-04-12T13:26:28.73Z</time></trkpt><trkpt lat="40.72725" lon="15.0806422"><ele>930.5999999999999</ele><time>2026-04-12T13:26:29.729Z</time></trkpt><trkpt lat="40.7273381" lon="15.0805954"><ele>931.0</ele><time>2026-04-12T13:26:30.722Z</time></trkpt><trkpt lat="40.7274265" lon="15.0805386"><ele>931.0</ele><time>2026-04-12T13:26:31.72Z</time></trkpt><trkpt lat="40.7274971" lon="15.0804787"><ele>930.9999999999999</ele><time>2026-04-12T13:26:32.732Z</time></trkpt><trkpt lat="40.7275744" lon="15.0803847"><ele>930.9999999999999</ele><time>2026-04-12T13:26:34.728Z</time></trkpt><trkpt lat="40.7276689" lon="15.0802675"><ele>931.0</ele><time>2026-04-12T13:26:36.731Z</time></trkpt><trkpt lat="40.7277078" lon="15.0801988"><ele>931.0</ele><time>2026-04-12T13:26:37.739Z</time></trkpt><trkpt lat="40.7277967" lon="15.080096"><ele>931.5999999999999</ele><time>2026-04-12T13:26:39.72Z</time></trkpt><trkpt lat="40.7278987" lon="15.0800307"><ele>932.1999999999999</ele><time>2026-04-12T13:26:41.723Z</time></trkpt><trkpt lat="40.7279779" lon="15.0799355"><ele>932.8000000000001</ele><time>2026-04-12T13:26:43.719Z</time></trkpt><trkpt lat="40.7280339" lon="15.0798763"><ele>933.4000000000001</ele><time>2026-04-12T13:26:45.72Z</time></trkpt><trkpt lat="40.7281178" lon="15.0798882"><ele>934.0</ele><time>2026-04-12T13:26:48.728Z</time></trkpt><trkpt lat="40.7281674" lon="15.0799807"><ele>934.5714285714284</ele><time>2026-04-12T13:26:51.72Z</time></trkpt><trkpt lat="40.7282127" lon="15.0800912"><ele>935.1428571428571</ele><time>2026-04-12T13:26:54.715Z</time></trkpt><trkpt lat="40.7282865" lon="15.0801399"><ele>935.7142857142857</ele><time>2026-04-12T13:26:56.732Z</time></trkpt><trkpt lat="40.728355" lon="15.0801175"><ele>936.2857142857142</ele><time>2026-04-12T13:27:34.726Z</time></trkpt><trkpt lat="40.7284195" lon="15.080123"><ele>936.8571428571429</ele><time>2026-04-12T13:29:25.727Z</time></trkpt><trkpt lat="40.7284861" lon="15.0801193"><ele>937.4285714285714</ele><time>2026-04-12T13:30:16.728Z</time></trkpt><trkpt lat="40.7285554" lon="15.0801252"><ele>938.0</ele><time>2026-04-12T13:31:15.732Z</time></trkpt><trkpt lat="40.7286204" lon="15.0801307"><ele>938.0</ele><time>2026-04-12T13:33:02.719Z</time></trkpt><trkpt lat="40.7286944" lon="15.0801445"><ele>938.0</ele><time>2026-04-12T13:33:10.723Z</time></trkpt><trkpt lat="40.7287573" lon="15.0801566"><ele>938.0</ele><time>2026-04-12T13:33:13.741Z</time></trkpt><trkpt lat="40.7288223" lon="15.0801791"><ele>938.0</ele><time>2026-04-12T13:33:15.742Z</time></trkpt><trkpt lat="40.728887" lon="15.0802379"><ele>938.0</ele><time>2026-04-12T13:33:17.748Z</time></trkpt><trkpt lat="40.7289745" lon="15.0802739"><ele>938.0</ele><time>2026-04-12T13:33:19.729Z</time></trkpt><trkpt lat="40.7290436" lon="15.0802937"><ele>938.0</ele><time>2026-04-12T13:33:21.737Z</time></trkpt><trkpt lat="40.7291362" lon="15.0803102"><ele>938.0000000000001</ele><time>2026-04-12T13:33:23.741Z</time></trkpt><trkpt lat="40.7292015" lon="15.080345"><ele>938.0</ele><time>2026-04-12T13:33:25.726Z</time></trkpt><trkpt lat="40.7292645" lon="15.0803775"><ele>938.0</ele><time>2026-04-12T13:33:27.726Z</time></trkpt><trkpt lat="40.7293689" lon="15.0803912"><ele>938.0</ele><time>2026-04-12T13:33:29.732Z</time></trkpt><trkpt lat="40.7294406" lon="15.0803908"><ele>938.0000000000001</ele><time>2026-04-12T13:33:30.733Z</time></trkpt><trkpt lat="40.7295194" lon="15.0804054"><ele>938.0</ele><time>2026-04-12T13:33:31.72Z</time></trkpt><trkpt lat="40.7296378" lon="15.0804163"><ele>934.3333333333334</ele><time>2026-04-12T13:33:33.729Z</time></trkpt><trkpt lat="40.7297088" lon="15.0804312"><ele>930.6666666666667</ele><time>2026-04-12T13:33:34.724Z</time></trkpt><trkpt lat="40.7297871" lon="15.080454"><ele>927.0</ele><time>2026-04-12T13:33:35.724Z</time></trkpt><trkpt lat="40.7298507" lon="15.0804705"><ele>923.3333333333333</ele><time>2026-04-12T13:33:36.728Z</time></trkpt><trkpt lat="40.7299625" lon="15.0804998"><ele>919.6666666666666</ele><time>2026-04-12T13:33:38.73Z</time></trkpt><trkpt lat="40.7300372" lon="15.0805257"><ele>916.0</ele><time>2026-04-12T13:33:40.73Z</time></trkpt><trkpt lat="40.7301072" lon="15.0805801"><ele>915.9999999999999</ele><time>2026-04-12T13:33:43.727Z</time></trkpt><trkpt lat="40.7302148" lon="15.0805924"><ele>916.0</ele><time>2026-04-12T13:33:45.727Z</time></trkpt><trkpt lat="40.730281" lon="15.0805909"><ele>916.0</ele><time>2026-04-12T13:33:46.724Z</time></trkpt><trkpt lat="40.7303959" lon="15.080616"><ele>916.0</ele><time>2026-04-12T13:33:48.719Z</time></trkpt><trkpt lat="40.7304582" lon="15.0806311"><ele>915.9999999999999</ele><time>2026-04-12T13:33:49.728Z</time></trkpt><trkpt lat="40.7305476" lon="15.0806297"><ele>916.0</ele><time>2026-04-12T13:33:51.74Z</time></trkpt><trkpt lat="40.7306213" lon="15.0806745"><ele>914.4</ele><time>2026-04-12T13:33:53.742Z</time></trkpt><trkpt lat="40.7307318" lon="15.0807363"><ele>912.8</ele><time>2026-04-12T13:33:55.726Z</time></trkpt><trkpt lat="40.7308426" lon="15.0807664"><ele>911.1999999999999</ele><time>2026-04-12T13:33:57.735Z</time></trkpt><trkpt lat="40.7309249" lon="15.0808091"><ele>909.5999999999999</ele><time>2026-04-12T13:33:59.729Z</time></trkpt><trkpt lat="40.7310012" lon="15.0808977"><ele>908.0</ele><time>2026-04-12T13:34:01.73Z</time></trkpt><trkpt lat="40.7311052" lon="15.0808986"><ele>908.0000000000001</ele><time>2026-04-12T13:34:03.736Z</time></trkpt><trkpt lat="40.7312006" lon="15.0808898"><ele>908.0</ele><time>2026-04-12T13:34:05.731Z</time></trkpt><trkpt lat="40.7313012" lon="15.0809441"><ele>908.0</ele><time>2026-04-12T13:34:07.74Z</time></trkpt><trkpt lat="40.731356" lon="15.0810104"><ele>908.0</ele><time>2026-04-12T13:34:08.737Z</time></trkpt><trkpt lat="40.7313986" lon="15.0810809"><ele>908.0000000000001</ele><time>2026-04-12T13:34:09.735Z</time></trkpt><trkpt lat="40.7314399" lon="15.0811467"><ele>908.0</ele><time>2026-04-12T13:34:10.741Z</time></trkpt><trkpt lat="40.7315393" lon="15.0812357"><ele>908.0</ele><time>2026-04-12T13:34:12.745Z</time></trkpt><trkpt lat="40.7315968" lon="15.0813505"><ele>908.0</ele><time>2026-04-12T13:34:14.751Z</time></trkpt><trkpt lat="40.7315782" lon="15.0814668"><ele>908.0</ele><time>2026-04-12T13:34:17.743Z</time></trkpt><trkpt lat="40.7315136" lon="15.081541"><ele>908.0</ele><time>2026-04-12T13:34:19.732Z</time></trkpt><trkpt lat="40.7314817" lon="15.0816458"><ele>908.0</ele><time>2026-04-12T13:34:21.735Z</time></trkpt><trkpt lat="40.7314495" lon="15.0817706"><ele>909.8</ele><time>2026-04-12T13:34:23.738Z</time></trkpt><trkpt lat="40.7313903" lon="15.0818908"><ele>911.5999999999999</ele><time>2026-04-12T13:34:25.737Z</time></trkpt><trkpt lat="40.7313173" lon="15.0819778"><ele>913.4000000000001</ele><time>2026-04-12T13:34:27.73Z</time></trkpt><trkpt lat="40.7312466" lon="15.0820802"><ele>915.2</ele><time>2026-04-12T13:34:29.727Z</time></trkpt><trkpt lat="40.7312156" lon="15.0822346"><ele>917.0</ele><time>2026-04-12T13:34:31.738Z</time></trkpt><trkpt lat="40.7311951" lon="15.0823422"><ele>917.6</ele><time>2026-04-12T13:34:33.736Z</time></trkpt><trkpt lat="40.7312402" lon="15.0824396"><ele>918.2</ele><time>2026-04-12T13:34:36.733Z</time></trkpt><trkpt lat="40.73133" lon="15.0825145"><ele>918.8</ele><time>2026-04-12T13:34:38.742Z</time></trkpt><trkpt lat="40.7313919" lon="15.0825859"><ele>919.4</ele><time>2026-04-12T13:34:40.74Z</time></trkpt><trkpt lat="40.7313938" lon="15.0827031"><ele>920.0</ele><time>2026-04-12T13:34:42.731Z</time></trkpt><trkpt lat="40.7314168" lon="15.0828206"><ele>920.0</ele><time>2026-04-12T13:34:44.737Z</time></trkpt><trkpt lat="40.731428" lon="15.0829713"><ele>920.0</ele><time>2026-04-12T13:34:46.743Z</time></trkpt><trkpt lat="40.7314196" lon="15.0831068"><ele>920.0</ele><time>2026-04-12T13:34:48.727Z</time></trkpt><trkpt lat="40.7314361" lon="15.0832597"><ele>920.0</ele><time>2026-04-12T13:34:50.73Z</time></trkpt><trkpt lat="40.7314142" lon="15.0834227"><ele>922.0000000000001</ele><time>2026-04-12T13:34:52.727Z</time></trkpt><trkpt lat="40.7313947" lon="15.0835065"><ele>924.0</ele><time>2026-04-12T13:34:53.735Z</time></trkpt><trkpt lat="40.7313845" lon="15.0835898"><ele>926.0</ele><time>2026-04-12T13:34:54.724Z</time></trkpt><trkpt lat="40.7313726" lon="15.0837176"><ele>928.0</ele><time>2026-04-12T13:34:56.734Z</time></trkpt><trkpt lat="40.7314009" lon="15.0838328"><ele>930.0000000000001</ele><time>2026-04-12T13:34:58.736Z</time></trkpt><trkpt lat="40.7314363" lon="15.0839418"><ele>932.0</ele><time>2026-04-12T13:35:01.729Z</time></trkpt><trkpt lat="40.7314899" lon="15.0840132"><ele>937.2</ele><time>2026-04-12T13:35:03.731Z</time></trkpt><trkpt lat="40.7315442" lon="15.0840967"><ele>942.4000000000001</ele><time>2026-04-12T13:35:05.742Z</time></trkpt><trkpt lat="40.7315736" lon="15.0842091"><ele>947.5999999999999</ele><time>2026-04-12T13:35:07.729Z</time></trkpt><trkpt lat="40.7316212" lon="15.0843148"><ele>952.8</ele><time>2026-04-12T13:35:09.731Z</time></trkpt><trkpt lat="40.7317019" lon="15.0843997"><ele>958.0</ele><time>2026-04-12T13:35:11.731Z</time></trkpt><trkpt lat="40.7317765" lon="15.0845293"><ele>958.0</ele><time>2026-04-12T13:35:13.724Z</time></trkpt><trkpt lat="40.7318045" lon="15.084606"><ele>958.0</ele><time>2026-04-12T13:35:14.73Z</time></trkpt><trkpt lat="40.7318227" lon="15.0847034"><ele>958.0</ele><time>2026-04-12T13:35:15.733Z</time></trkpt><trkpt lat="40.7318419" lon="15.0847873"><ele>958.0</ele><time>2026-04-12T13:35:16.727Z</time></trkpt><trkpt lat="40.7318746" lon="15.0848637"><ele>958.0</ele><time>2026-04-12T13:35:17.742Z</time></trkpt><trkpt lat="40.7319083" lon="15.0849372"><ele>958.0</ele><time>2026-04-12T13:35:18.73Z</time></trkpt><trkpt lat="40.7319654" lon="15.0850287"><ele>958.0</ele><time>2026-04-12T13:35:19.724Z</time></trkpt><trkpt lat="40.7320029" lon="15.0851134"><ele>951.4</ele><time>2026-04-12T13:35:20.726Z</time></trkpt><trkpt lat="40.7320197" lon="15.0852169"><ele>944.8</ele><time>2026-04-12T13:35:21.72Z</time></trkpt><trkpt lat="40.732029" lon="15.0853231"><ele>938.2</ele><time>2026-04-12T13:35:22.722Z</time></trkpt><trkpt lat="40.7320309" lon="15.0854537"><ele>931.6</ele><time>2026-04-12T13:35:23.719Z</time></trkpt><trkpt lat="40.7320266" lon="15.0855909"><ele>925.0</ele><time>2026-04-12T13:35:24.726Z</time></trkpt><trkpt lat="40.7320209" lon="15.0857253"><ele>927.4999999999999</ele><time>2026-04-12T13:35:25.725Z</time></trkpt><trkpt lat="40.7320281" lon="15.0858461"><ele>930.0</ele><time>2026-04-12T13:35:26.721Z</time></trkpt><trkpt lat="40.7320373" lon="15.0859683"><ele>932.5</ele><time>2026-04-12T13:35:27.725Z</time></trkpt><trkpt lat="40.732026" lon="15.0861031"><ele>935.0</ele><time>2026-04-12T13:35:28.731Z</time></trkpt><trkpt lat="40.7320266" lon="15.0862186"><ele>937.4999999999999</ele><time>2026-04-12T13:35:29.736Z</time></trkpt><trkpt lat="40.7320302" lon="15.0863118"><ele>940.0</ele><time>2026-04-12T13:35:30.729Z</time></trkpt><trkpt lat="40.7320201" lon="15.086397"><ele>940.0</ele><time>2026-04-12T13:35:31.731Z</time></trkpt><trkpt lat="40.7319774" lon="15.0865177"><ele>940.0</ele><time>2026-04-12T13:35:33.721Z</time></trkpt><trkpt lat="40.7319187" lon="15.0866464"><ele>940.0</ele><time>2026-04-12T13:35:35.727Z</time></trkpt><trkpt lat="40.7318957" lon="15.0867596"><ele>940.0</ele><time>2026-04-12T13:35:37.721Z</time></trkpt><trkpt lat="40.7318769" lon="15.0868637"><ele>940.0</ele><time>2026-04-12T13:35:40.736Z</time></trkpt><trkpt lat="40.7319492" lon="15.0868842"><ele>944.2</ele><time>2026-04-12T13:35:43.72Z</time></trkpt><trkpt lat="40.7320853" lon="15.0868872"><ele>948.4</ele><time>2026-04-12T13:35:45.721Z</time></trkpt><trkpt lat="40.7321832" lon="15.0869029"><ele>952.5999999999999</ele><time>2026-04-12T13:35:46.717Z</time></trkpt><trkpt lat="40.73226" lon="15.0868796"><ele>956.8</ele><time>2026-04-12T13:35:47.728Z</time></trkpt><trkpt lat="40.7323169" lon="15.086842"><ele>961.0</ele><time>2026-04-12T13:35:48.721Z</time></trkpt><trkpt lat="40.7323875" lon="15.0868181"><ele>960.9999999999999</ele><time>2026-04-12T13:35:49.719Z</time></trkpt><trkpt lat="40.7324526" lon="15.0868006"><ele>961.0</ele><time>2026-04-12T13:35:50.725Z</time></trkpt><trkpt lat="40.7325196" lon="15.086823"><ele>961.0</ele><time>2026-04-12T13:35:51.731Z</time></trkpt><trkpt lat="40.732632" lon="15.0868441"><ele>961.0</ele><time>2026-04-12T13:35:53.723Z</time></trkpt><trkpt lat="40.7327009" lon="15.0868385"><ele>960.9999999999999</ele><time>2026-04-12T13:35:54.722Z</time></trkpt><trkpt lat="40.7327742" lon="15.0868136"><ele>961.0</ele><time>2026-04-12T13:35:55.727Z</time></trkpt><trkpt lat="40.7328454" lon="15.0867886"><ele>964.4999999999999</ele><time>2026-04-12T13:35:56.722Z</time></trkpt><trkpt lat="40.7329037" lon="15.0867557"><ele>968.0</ele><time>2026-04-12T13:35:57.72Z</time></trkpt><trkpt lat="40.732977" lon="15.0867032"><ele>971.5</ele><time>2026-04-12T13:35:59.719Z</time></trkpt><trkpt lat="40.7330381" lon="15.0866722"><ele>975.0</ele><time>2026-04-12T13:36:34.724Z</time></trkpt><trkpt lat="40.7331062" lon="15.0866286"><ele>978.4999999999999</ele><time>2026-04-12T13:36:37.729Z</time></trkpt><trkpt lat="40.7332197" lon="15.0864993"><ele>982.0</ele><time>2026-04-12T13:36:39.729Z</time></trkpt><trkpt lat="40.7332949" lon="15.0864344"><ele>981.8333333333333</ele><time>2026-04-12T13:36:40.724Z</time></trkpt><trkpt lat="40.7333612" lon="15.0863662"><ele>981.6666666666666</ele><time>2026-04-12T13:36:41.734Z</time></trkpt><trkpt lat="40.7334319" lon="15.0863151"><ele>981.5</ele><time>2026-04-12T13:36:42.736Z</time></trkpt><trkpt lat="40.7335083" lon="15.0862633"><ele>981.3333333333333</ele><time>2026-04-12T13:36:43.719Z</time></trkpt><trkpt lat="40.7335751" lon="15.0862074"><ele>981.1666666666666</ele><time>2026-04-12T13:36:44.737Z</time></trkpt><trkpt lat="40.7336529" lon="15.0861497"><ele>981.0</ele><time>2026-04-12T13:36:45.737Z</time></trkpt><trkpt lat="40.7337253" lon="15.0860876"><ele>981.0</ele><time>2026-04-12T13:36:46.731Z</time></trkpt><trkpt lat="40.7338032" lon="15.0860357"><ele>980.9999999999999</ele><time>2026-04-12T13:36:47.723Z</time></trkpt><trkpt lat="40.7338939" lon="15.0859899"><ele>980.9999999999999</ele><time>2026-04-12T13:36:48.725Z</time></trkpt><trkpt lat="40.7339726" lon="15.0859155"><ele>981.0</ele><time>2026-04-12T13:36:49.726Z</time></trkpt><trkpt lat="40.7340435" lon="15.0858375"><ele>981.0</ele><time>2026-04-12T13:36:50.723Z</time></trkpt><trkpt lat="40.7341113" lon="15.085763"><ele>982.3333333333334</ele><time>2026-04-12T13:36:51.726Z</time></trkpt><trkpt lat="40.7341762" lon="15.0856933"><ele>983.6666666666667</ele><time>2026-04-12T13:36:52.724Z</time></trkpt><trkpt lat="40.7342375" lon="15.0856176"><ele>985.0</ele><time>2026-04-12T13:36:53.718Z</time></trkpt><trkpt lat="40.73429" lon="15.08553"><ele>986.3333333333334</ele><time>2026-04-12T13:36:54.717Z</time></trkpt><trkpt lat="40.734346" lon="15.085437"><ele>987.6666666666667</ele><time>2026-04-12T13:36:55.723Z</time></trkpt><trkpt lat="40.7344033" lon="15.0853522"><ele>989.0</ele><time>2026-04-12T13:36:56.721Z</time></trkpt><trkpt lat="40.7344534" lon="15.0852781"><ele>989.0000000000001</ele><time>2026-04-12T13:36:57.723Z</time></trkpt><trkpt lat="40.7344846" lon="15.0852006"><ele>989.0</ele><time>2026-04-12T13:36:58.718Z</time></trkpt><trkpt lat="40.7344962" lon="15.0851114"><ele>989.0</ele><time>2026-04-12T13:36:59.727Z</time></trkpt><trkpt lat="40.7344897" lon="15.0850131"><ele>989.0</ele><time>2026-04-12T13:37:00.729Z</time></trkpt><trkpt lat="40.7344615" lon="15.0849163"><ele>989.0000000000001</ele><time>2026-04-12T13:37:01.731Z</time></trkpt><trkpt lat="40.7344152" lon="15.0848271"><ele>989.0</ele><time>2026-04-12T13:37:02.722Z</time></trkpt><trkpt lat="40.7343633" lon="15.0847473"><ele>986.0</ele><time>2026-04-12T13:37:03.729Z</time></trkpt><trkpt lat="40.7342929" lon="15.0846401"><ele>983.0000000000001</ele><time>2026-04-12T13:37:05.724Z</time></trkpt><trkpt lat="40.7343922" lon="15.0845809"><ele>980.0000000000001</ele><time>2026-04-12T13:37:08.733Z</time></trkpt><trkpt lat="40.7345096" lon="15.0845258"><ele>977.0</ele><time>2026-04-12T13:37:10.735Z</time></trkpt><trkpt lat="40.7345655" lon="15.0844732"><ele>974.0</ele><time>2026-04-12T13:37:11.741Z</time></trkpt><trkpt lat="40.7346112" lon="15.0844102"><ele>974.0000000000001</ele><time>2026-04-12T13:37:12.741Z</time></trkpt><trkpt lat="40.7346511" lon="15.0843412"><ele>974.0</ele><time>2026-04-12T13:37:13.738Z</time></trkpt><trkpt lat="40.7346956" lon="15.0842723"><ele>974.0</ele><time>2026-04-12T13:37:14.741Z</time></trkpt><trkpt lat="40.7347475" lon="15.0842124"><ele>974.0</ele><time>2026-04-12T13:37:15.739Z</time></trkpt><trkpt lat="40.7348035" lon="15.0841503"><ele>974.0000000000001</ele><time>2026-04-12T13:37:16.739Z</time></trkpt><trkpt lat="40.7348704" lon="15.0840901"><ele>974.0</ele><time>2026-04-12T13:37:17.74Z</time></trkpt><trkpt lat="40.7349523" lon="15.0840311"><ele>972.0000000000001</ele><time>2026-04-12T13:37:18.74Z</time></trkpt><trkpt lat="40.7350394" lon="15.0839684"><ele>970.0</ele><time>2026-04-12T13:37:19.742Z</time></trkpt><trkpt lat="40.73512" lon="15.0839041"><ele>968.0</ele><time>2026-04-12T13:37:20.75Z</time></trkpt><trkpt lat="40.7351926" lon="15.0838416"><ele>966.0</ele><time>2026-04-12T13:37:21.752Z</time></trkpt><trkpt lat="40.7352591" lon="15.083778"><ele>964.0000000000001</ele><time>2026-04-12T13:37:22.739Z</time></trkpt><trkpt lat="40.7353275" lon="15.0837329"><ele>962.0</ele><time>2026-04-12T13:37:23.738Z</time></trkpt><trkpt lat="40.7353977" lon="15.0837068"><ele>962.0</ele><time>2026-04-12T13:37:24.734Z</time></trkpt><trkpt lat="40.7354673" lon="15.0837003"><ele>962.0</ele><time>2026-04-12T13:37:25.727Z</time></trkpt><trkpt lat="40.7355897" lon="15.083636"><ele>962.0</ele><time>2026-04-12T13:37:27.74Z</time></trkpt><trkpt lat="40.7356396" lon="15.0835799"><ele>962.0</ele><time>2026-04-12T13:37:28.731Z</time></trkpt><trkpt lat="40.7357214" lon="15.0834828"><ele>962.0</ele><time>2026-04-12T13:37:30.729Z</time></trkpt><trkpt lat="40.7358403" lon="15.0834826"><ele>962.0000000000001</ele><time>2026-04-12T13:37:32.751Z</time></trkpt><trkpt lat="40.7359074" lon="15.0834995"><ele>962.0</ele><time>2026-04-12T13:37:33.754Z</time></trkpt><trkpt lat="40.736034" lon="15.0835083"><ele>962.0</ele><time>2026-04-12T13:37:35.743Z</time></trkpt><trkpt lat="40.7360895" lon="15.0834673"><ele>962.0</ele><time>2026-04-12T13:37:36.752Z</time></trkpt><trkpt lat="40.7361409" lon="15.0834075"><ele>962.0000000000001</ele><time>2026-04-12T13:37:37.759Z</time></trkpt><trkpt lat="40.7361906" lon="15.0833339"><ele>962.0</ele><time>2026-04-12T13:37:38.764Z</time></trkpt><trkpt lat="40.736244" lon="15.0832702"><ele>962.2</ele><time>2026-04-12T13:37:39.755Z</time></trkpt><trkpt lat="40.7363347" lon="15.0831851"><ele>962.4000000000001</ele><time>2026-04-12T13:37:41.746Z</time></trkpt><trkpt lat="40.7364007" lon="15.0831173"><ele>962.5999999999999</ele><time>2026-04-12T13:37:43.739Z</time></trkpt><trkpt lat="40.7364568" lon="15.0830492"><ele>962.8</ele><time>2026-04-12T13:37:45.747Z</time></trkpt><trkpt lat="40.73653" lon="15.0830901"><ele>963.0</ele><time>2026-04-12T13:37:48.737Z</time></trkpt><trkpt lat="40.736508" lon="15.0832222"><ele>962.6666666666666</ele><time>2026-04-12T13:37:51.736Z</time></trkpt><trkpt lat="40.7364471" lon="15.0833546"><ele>962.3333333333333</ele><time>2026-04-12T13:37:53.751Z</time></trkpt><trkpt lat="40.7364061" lon="15.083426"><ele>962.0</ele><time>2026-04-12T13:37:54.737Z</time></trkpt><trkpt lat="40.7363406" lon="15.0835429"><ele>961.6666666666666</ele><time>2026-04-12T13:37:56.749Z</time></trkpt><trkpt lat="40.7362983" lon="15.0836252"><ele>961.3333333333333</ele><time>2026-04-12T13:37:58.746Z</time></trkpt><trkpt lat="40.7362363" lon="15.0836779"><ele>961.0</ele><time>2026-04-12T13:38:00.74Z</time></trkpt><trkpt lat="40.7361364" lon="15.0837253"><ele>961.1999999999999</ele><time>2026-04-12T13:38:02.747Z</time></trkpt><trkpt lat="40.7360309" lon="15.0837987"><ele>961.3999999999999</ele><time>2026-04-12T13:38:04.741Z</time></trkpt><trkpt lat="40.735948" lon="15.0838839"><ele>961.6</ele><time>2026-04-12T13:38:06.737Z</time></trkpt><trkpt lat="40.7358718" lon="15.0839661"><ele>961.8</ele><time>2026-04-12T13:38:08.728Z</time></trkpt><trkpt lat="40.7358433" lon="15.0840842"><ele>962.0</ele><time>2026-04-12T13:38:10.727Z</time></trkpt><trkpt lat="40.7358073" lon="15.0841602"><ele>963.3333333333334</ele><time>2026-04-12T13:38:12.73Z</time></trkpt><trkpt lat="40.7357501" lon="15.0842279"><ele>964.6666666666667</ele><time>2026-04-12T13:38:14.735Z</time></trkpt><trkpt lat="40.7356922" lon="15.084315"><ele>966.0</ele><time>2026-04-12T13:38:16.743Z</time></trkpt><trkpt lat="40.7356588" lon="15.0844191"><ele>967.3333333333333</ele><time>2026-04-12T13:38:18.741Z</time></trkpt><trkpt lat="40.7356804" lon="15.0845695"><ele>968.6666666666666</ele><time>2026-04-12T13:38:20.746Z</time></trkpt><trkpt lat="40.7356868" lon="15.0846544"><ele>970.0</ele><time>2026-04-12T13:38:21.728Z</time></trkpt><trkpt lat="40.7356651" lon="15.0847812"><ele>970.0</ele><time>2026-04-12T13:38:23.735Z</time></trkpt><trkpt lat="40.7356343" lon="15.0849046"><ele>970.0</ele><time>2026-04-12T13:38:25.726Z</time></trkpt><trkpt lat="40.7355997" lon="15.0850284"><ele>970.0</ele><time>2026-04-12T13:38:27.738Z</time></trkpt><trkpt lat="40.7355744" lon="15.0851586"><ele>970.0</ele><time>2026-04-12T13:38:29.741Z</time></trkpt><trkpt lat="40.7356126" lon="15.0852883"><ele>970.0</ele><time>2026-04-12T13:38:31.725Z</time></trkpt><trkpt lat="40.7356502" lon="15.0853571"><ele>969.3333333333333</ele><time>2026-04-12T13:38:32.737Z</time></trkpt><trkpt lat="40.7357256" lon="15.0854529"><ele>968.6666666666666</ele><time>2026-04-12T13:38:34.729Z</time></trkpt><trkpt lat="40.7357852" lon="15.0855098"><ele>968.0</ele><time>2026-04-12T13:38:35.739Z</time></trkpt><trkpt lat="40.7358511" lon="15.0855465"><ele>967.3333333333333</ele><time>2026-04-12T13:38:36.732Z</time></trkpt><trkpt lat="40.7359226" lon="15.0856475"><ele>966.6666666666666</ele><time>2026-04-12T13:38:38.745Z</time></trkpt><trkpt lat="40.7359703" lon="15.0857065"><ele>966.0</ele><time>2026-04-12T13:38:39.743Z</time></trkpt><trkpt lat="40.7360274" lon="15.085756"><ele>963.5999999999999</ele><time>2026-04-12T13:38:40.744Z</time></trkpt><trkpt lat="40.7361444" lon="15.0858008"><ele>961.1999999999999</ele><time>2026-04-12T13:38:42.752Z</time></trkpt><trkpt lat="40.7362098" lon="15.0858051"><ele>958.8000000000001</ele><time>2026-04-12T13:38:43.743Z</time></trkpt><trkpt lat="40.73634" lon="15.0858095"><ele>956.4000000000001</ele><time>2026-04-12T13:38:45.745Z</time></trkpt><trkpt lat="40.7364102" lon="15.0858077"><ele>954.0</ele><time>2026-04-12T13:38:46.747Z</time></trkpt><trkpt lat="40.7364789" lon="15.0858024"><ele>954.0</ele><time>2026-04-12T13:38:47.745Z</time></trkpt><trkpt lat="40.7365939" lon="15.0857846"><ele>954.0000000000001</ele><time>2026-04-12T13:38:49.75Z</time></trkpt><trkpt lat="40.7366995" lon="15.0858312"><ele>954.0000000000001</ele><time>2026-04-12T13:38:51.751Z</time></trkpt><trkpt lat="40.7367629" lon="15.0859305"><ele>954.0</ele><time>2026-04-12T13:38:53.765Z</time></trkpt><trkpt lat="40.7367777" lon="15.0860517"><ele>954.0</ele><time>2026-04-12T13:38:55.742Z</time></trkpt><trkpt lat="40.7366761" lon="15.0861288"><ele>954.0</ele><time>2026-04-12T13:38:57.734Z</time></trkpt><trkpt lat="40.7365785" lon="15.0862065"><ele>954.0000000000001</ele><time>2026-04-12T13:38:59.737Z</time></trkpt><trkpt lat="40.7365461" lon="15.086331"><ele>954.0000000000001</ele><time>2026-04-12T13:39:01.721Z</time></trkpt><trkpt lat="40.7366325" lon="15.0864649"><ele>954.0</ele><time>2026-04-12T13:39:03.743Z</time></trkpt><trkpt lat="40.7366848" lon="15.0865202"><ele>954.0</ele><time>2026-04-12T13:39:04.737Z</time></trkpt><trkpt lat="40.7367416" lon="15.0865712"><ele>956.5</ele><time>2026-04-12T13:39:05.736Z</time></trkpt><trkpt lat="40.7368048" lon="15.0866316"><ele>959.0</ele><time>2026-04-12T13:39:06.729Z</time></trkpt><trkpt lat="40.7368651" lon="15.0866814"><ele>961.5</ele><time>2026-04-12T13:39:07.745Z</time></trkpt><trkpt lat="40.7369196" lon="15.0867305"><ele>964.0</ele><time>2026-04-12T13:39:08.735Z</time></trkpt><trkpt lat="40.7370123" lon="15.0868056"><ele>966.5</ele><time>2026-04-12T13:39:10.738Z</time></trkpt><trkpt lat="40.7371221" lon="15.0868375"><ele>969.0</ele><time>2026-04-12T13:39:12.743Z</time></trkpt><trkpt lat="40.737188" lon="15.0868488"><ele>961.2</ele><time>2026-04-12T13:39:13.729Z</time></trkpt><trkpt lat="40.7372986" lon="15.08682"><ele>953.4000000000001</ele><time>2026-04-12T13:39:15.742Z</time></trkpt><trkpt lat="40.7373841" lon="15.08681"><ele>945.6</ele><time>2026-04-12T13:39:17.741Z</time></trkpt><trkpt lat="40.737416" lon="15.0869009"><ele>937.8</ele><time>2026-04-12T13:39:20.735Z</time></trkpt><trkpt lat="40.7373598" lon="15.0869792"><ele>930.0</ele><time>2026-04-12T13:39:22.73Z</time></trkpt><trkpt lat="40.7372719" lon="15.0870538"><ele>930.0</ele><time>2026-04-12T13:39:24.73Z</time></trkpt><trkpt lat="40.7371992" lon="15.0871469"><ele>930.0</ele><time>2026-04-12T13:39:26.724Z</time></trkpt><trkpt lat="40.7371364" lon="15.0872314"><ele>930.0</ele><time>2026-04-12T13:39:28.727Z</time></trkpt><trkpt lat="40.737076" lon="15.087303"><ele>930.0</ele><time>2026-04-12T13:39:30.73Z</time></trkpt><trkpt lat="40.7370461" lon="15.0874261"><ele>930.0</ele><time>2026-04-12T13:39:32.731Z</time></trkpt><trkpt lat="40.7370656" lon="15.0875838"><ele>929.0</ele><time>2026-04-12T13:39:34.752Z</time></trkpt><trkpt lat="40.7370803" lon="15.0876771"><ele>928.0</ele><time>2026-04-12T13:39:35.728Z</time></trkpt><trkpt lat="40.7370929" lon="15.0877825"><ele>927.0</ele><time>2026-04-12T13:39:36.734Z</time></trkpt><trkpt lat="40.7371005" lon="15.0879357"><ele>926.0</ele><time>2026-04-12T13:39:38.741Z</time></trkpt><trkpt lat="40.7370881" lon="15.0880658"><ele>925.0</ele><time>2026-04-12T13:39:40.745Z</time></trkpt><trkpt lat="40.7370572" lon="15.0881467"><ele>924.0</ele><time>2026-04-12T13:39:42.731Z</time></trkpt><trkpt lat="40.7369926" lon="15.088201"><ele>923.2</ele><time>2026-04-12T13:39:45.738Z</time></trkpt><trkpt lat="40.7369386" lon="15.0882817"><ele>922.4000000000001</ele><time>2026-04-12T13:39:48.735Z</time></trkpt><trkpt lat="40.7369413" lon="15.088399"><ele>921.6</ele><time>2026-04-12T13:39:50.732Z</time></trkpt><trkpt lat="40.7369978" lon="15.0885205"><ele>920.8</ele><time>2026-04-12T13:39:52.739Z</time></trkpt><trkpt lat="40.7370584" lon="15.0886614"><ele>920.0</ele><time>2026-04-12T13:39:54.738Z</time></trkpt><trkpt lat="40.7370967" lon="15.0887311"><ele>920.0000000000001</ele><time>2026-04-12T13:39:55.738Z</time></trkpt><trkpt lat="40.7371414" lon="15.0888072"><ele>920.0</ele><time>2026-04-12T13:39:56.731Z</time></trkpt><trkpt lat="40.7371907" lon="15.0888709"><ele>920.0</ele><time>2026-04-12T13:39:57.739Z</time></trkpt><trkpt lat="40.737288" lon="15.0889507"><ele>920.0</ele><time>2026-04-12T13:39:59.744Z</time></trkpt><trkpt lat="40.7373433" lon="15.0890487"><ele>920.0000000000001</ele><time>2026-04-12T13:40:01.724Z</time></trkpt><trkpt lat="40.7373033" lon="15.0891593"><ele>920.0</ele><time>2026-04-12T13:40:03.735Z</time></trkpt><trkpt lat="40.7371951" lon="15.0892263"><ele>919.8</ele><time>2026-04-12T13:40:05.742Z</time></trkpt><trkpt lat="40.7370845" lon="15.0892553"><ele>919.6</ele><time>2026-04-12T13:40:07.748Z</time></trkpt><trkpt lat="40.7370054" lon="15.0893397"><ele>919.4000000000001</ele><time>2026-04-12T13:40:09.743Z</time></trkpt><trkpt lat="40.7369854" lon="15.089471"><ele>919.2</ele><time>2026-04-12T13:40:11.745Z</time></trkpt><trkpt lat="40.7370553" lon="15.0895882"><ele>919.0</ele><time>2026-04-12T13:40:13.723Z</time></trkpt><trkpt lat="40.7371063" lon="15.0896574"><ele>919.0</ele><time>2026-04-12T13:40:14.722Z</time></trkpt><trkpt lat="40.7371466" lon="15.0897249"><ele>919.0000000000001</ele><time>2026-04-12T13:40:15.727Z</time></trkpt><trkpt lat="40.7372162" lon="15.0898477"><ele>919.0000000000001</ele><time>2026-04-12T13:40:17.731Z</time></trkpt><trkpt lat="40.7372635" lon="15.0899706"><ele>919.0</ele><time>2026-04-12T13:40:19.736Z</time></trkpt><trkpt lat="40.7372524" lon="15.0900896"><ele>919.0</ele><time>2026-04-12T13:40:21.748Z</time></trkpt><trkpt lat="40.7372223" lon="15.0902367"><ele>918.1666666666666</ele><time>2026-04-12T13:40:23.733Z</time></trkpt><trkpt lat="40.7372089" lon="15.090323"><ele>917.3333333333333</ele><time>2026-04-12T13:40:24.736Z</time></trkpt><trkpt lat="40.7371936" lon="15.0904158"><ele>916.5</ele><time>2026-04-12T13:40:25.742Z</time></trkpt><trkpt lat="40.7371644" lon="15.0904983"><ele>915.6666666666667</ele><time>2026-04-12T13:40:26.737Z</time></trkpt><trkpt lat="40.7371331" lon="15.0905754"><ele>914.8333333333334</ele><time>2026-04-12T13:40:27.741Z</time></trkpt><trkpt lat="40.7370549" lon="15.0906871"><ele>914.0</ele><time>2026-04-12T13:40:29.747Z</time></trkpt><trkpt lat="40.7369637" lon="15.0907231"><ele>919.6</ele><time>2026-04-12T13:40:31.731Z</time></trkpt><trkpt lat="40.7368432" lon="15.0907129"><ele>925.2</ele><time>2026-04-12T13:40:33.73Z</time></trkpt><trkpt lat="40.7367732" lon="15.0906925"><ele>930.8000000000001</ele><time>2026-04-12T13:40:34.73Z</time></trkpt><trkpt lat="40.7367125" lon="15.0906604"><ele>936.4000000000001</ele><time>2026-04-12T13:40:35.732Z</time></trkpt><trkpt lat="40.7366237" lon="15.0905769"><ele>942.0</ele><time>2026-04-12T13:40:37.729Z</time></trkpt><trkpt lat="40.7365517" lon="15.090453"><ele>942.0</ele><time>2026-04-12T13:40:39.727Z</time></trkpt><trkpt lat="40.7364964" lon="15.0903165"><ele>942.0</ele><time>2026-04-12T13:40:41.732Z</time></trkpt><trkpt lat="40.7364339" lon="15.0902266"><ele>942.0</ele><time>2026-04-12T13:40:43.719Z</time></trkpt><trkpt lat="40.7363577" lon="15.0901967"><ele>942.0</ele><time>2026-04-12T13:40:46.716Z</time></trkpt><trkpt lat="40.736286" lon="15.0901919"><ele>942.0</ele><time>2026-04-12T13:41:18.722Z</time></trkpt><trkpt lat="40.736225" lon="15.0901508"><ele>942.0</ele><time>2026-04-12T13:41:29.718Z</time></trkpt><trkpt lat="40.7361048" lon="15.0902035"><ele>942.0</ele><time>2026-04-12T13:42:04.723Z</time></trkpt><trkpt lat="40.7361526" lon="15.0903388"><ele>942.0</ele><time>2026-04-12T13:42:06.726Z</time></trkpt><trkpt lat="40.7362194" lon="15.0904505"><ele>942.0</ele><time>2026-04-12T13:42:08.723Z</time></trkpt><trkpt lat="40.7362944" lon="15.0905754"><ele>942.0</ele><time>2026-04-12T13:42:10.727Z</time></trkpt><trkpt lat="40.7363376" lon="15.0906453"><ele>942.0</ele><time>2026-04-12T13:42:11.728Z</time></trkpt><trkpt lat="40.736386" lon="15.0907179"><ele>938.5</ele><time>2026-04-12T13:42:12.726Z</time></trkpt><trkpt lat="40.7364304" lon="15.0907982"><ele>935.0</ele><time>2026-04-12T13:42:13.735Z</time></trkpt><trkpt lat="40.7364898" lon="15.0908843"><ele>931.5</ele><time>2026-04-12T13:42:14.729Z</time></trkpt><trkpt lat="40.7365383" lon="15.0909728"><ele>928.0</ele><time>2026-04-12T13:42:15.729Z</time></trkpt><trkpt lat="40.7365789" lon="15.0910611"><ele>924.5</ele><time>2026-04-12T13:42:16.728Z</time></trkpt><trkpt lat="40.7366125" lon="15.0911496"><ele>921.0</ele><time>2026-04-12T13:42:17.735Z</time></trkpt><trkpt lat="40.7366567" lon="15.0912246"><ele>921.0</ele><time>2026-04-12T13:42:18.724Z</time></trkpt><trkpt lat="40.7367489" lon="15.091345"><ele>921.0</ele><time>2026-04-12T13:42:20.732Z</time></trkpt><trkpt lat="40.7368005" lon="15.091401"><ele>921.0</ele><time>2026-04-12T13:42:21.741Z</time></trkpt><trkpt lat="40.7368563" lon="15.091453"><ele>921.0</ele><time>2026-04-12T13:42:22.744Z</time></trkpt><trkpt lat="40.7369014" lon="15.0915151"><ele>921.0</ele><time>2026-04-12T13:42:23.734Z</time></trkpt><trkpt lat="40.7369694" lon="15.0916408"><ele>921.0</ele><time>2026-04-12T13:42:25.735Z</time></trkpt><trkpt lat="40.7370225" lon="15.0917668"><ele>917.0</ele><time>2026-04-12T13:42:27.734Z</time></trkpt><trkpt lat="40.7371373" lon="15.0918236"><ele>913.0</ele><time>2026-04-12T13:42:29.748Z</time></trkpt><trkpt lat="40.7372086" lon="15.0918397"><ele>909.0</ele><time>2026-04-12T13:42:30.734Z</time></trkpt><trkpt lat="40.7372816" lon="15.0918573"><ele>905.0</ele><time>2026-04-12T13:42:31.733Z</time></trkpt><trkpt lat="40.7373588" lon="15.0918812"><ele>901.0</ele><time>2026-04-12T13:42:32.733Z</time></trkpt><trkpt lat="40.7374258" lon="15.0918944"><ele>897.0</ele><time>2026-04-12T13:42:33.744Z</time></trkpt><trkpt lat="40.737524" lon="15.0919254"><ele>897.0</ele><time>2026-04-12T13:42:35.744Z</time></trkpt><trkpt lat="40.7376417" lon="15.0919574"><ele>897.0</ele><time>2026-04-12T13:42:37.745Z</time></trkpt><trkpt lat="40.7377142" lon="15.0919617"><ele>897.0</ele><time>2026-04-12T13:42:38.737Z</time></trkpt><trkpt lat="40.737785" lon="15.0919525"><ele>897.0</ele><time>2026-04-12T13:42:39.739Z</time></trkpt><trkpt lat="40.7378628" lon="15.0919411"><ele>897.0</ele><time>2026-04-12T13:42:40.737Z</time></trkpt><trkpt lat="40.7379393" lon="15.0919308"><ele>897.0</ele><time>2026-04-12T13:42:41.732Z</time></trkpt><trkpt lat="40.7380208" lon="15.0919035"><ele>894.5</ele><time>2026-04-12T13:42:42.734Z</time></trkpt><trkpt lat="40.7381008" lon="15.0918632"><ele>892.0</ele><time>2026-04-12T13:42:43.723Z</time></trkpt><trkpt lat="40.7381725" lon="15.0918173"><ele>889.5</ele><time>2026-04-12T13:42:44.72Z</time></trkpt><trkpt lat="40.7382441" lon="15.0917835"><ele>887.0</ele><time>2026-04-12T13:42:45.717Z</time></trkpt><trkpt lat="40.7383158" lon="15.0917081"><ele>884.5</ele><time>2026-04-12T13:42:46.727Z</time></trkpt><trkpt lat="40.7383775" lon="15.091615"><ele>882.0</ele><time>2026-04-12T13:42:47.723Z</time></trkpt><trkpt lat="40.7384498" lon="15.0915428"><ele>880.3333333333334</ele><time>2026-04-12T13:42:48.715Z</time></trkpt><trkpt lat="40.7385184" lon="15.0914656"><ele>878.6666666666667</ele><time>2026-04-12T13:42:49.733Z</time></trkpt><trkpt lat="40.738567" lon="15.0913891"><ele>877.0</ele><time>2026-04-12T13:42:50.735Z</time></trkpt><trkpt lat="40.7386074" lon="15.0913101"><ele>875.3333333333334</ele><time>2026-04-12T13:42:51.745Z</time></trkpt><trkpt lat="40.7386375" lon="15.0912035"><ele>873.6666666666667</ele><time>2026-04-12T13:42:52.74Z</time></trkpt><trkpt lat="40.7386577" lon="15.0910856"><ele>872.0</ele><time>2026-04-12T13:42:53.736Z</time></trkpt><trkpt lat="40.7386801" lon="15.0909795"><ele>871.0000000000001</ele><time>2026-04-12T13:42:54.729Z</time></trkpt><trkpt lat="40.7386993" lon="15.0908911"><ele>870.0</ele><time>2026-04-12T13:42:55.724Z</time></trkpt><trkpt lat="40.7387227" lon="15.0908121"><ele>869.0</ele><time>2026-04-12T13:42:56.739Z</time></trkpt><trkpt lat="40.7387825" lon="15.0907124"><ele>868.0</ele><time>2026-04-12T13:42:58.729Z</time></trkpt><trkpt lat="40.7388825" lon="15.0906727"><ele>867.0000000000001</ele><time>2026-04-12T13:43:00.734Z</time></trkpt><trkpt lat="40.7389835" lon="15.0906949"><ele>866.0</ele><time>2026-04-12T13:43:02.735Z</time></trkpt><trkpt lat="40.7391008" lon="15.0907365"><ele>866.0000000000001</ele><time>2026-04-12T13:43:04.74Z</time></trkpt><trkpt lat="40.7391688" lon="15.0907981"><ele>866.0</ele><time>2026-04-12T13:43:06.746Z</time></trkpt><trkpt lat="40.7391961" lon="15.0909191"><ele>866.0</ele><time>2026-04-12T13:43:09.73Z</time></trkpt><trkpt lat="40.7391822" lon="15.0910714"><ele>866.0</ele><time>2026-04-12T13:43:11.731Z</time></trkpt><trkpt lat="40.7391708" lon="15.0911559"><ele>866.0000000000001</ele><time>2026-04-12T13:43:12.738Z</time></trkpt><trkpt lat="40.7391563" lon="15.0912379"><ele>866.0</ele><time>2026-04-12T13:43:13.726Z</time></trkpt><trkpt lat="40.7391412" lon="15.0913197"><ele>866.0000000000001</ele><time>2026-04-12T13:43:14.722Z</time></trkpt><trkpt lat="40.739084" lon="15.0914463"><ele>866.0</ele><time>2026-04-12T13:43:16.744Z</time></trkpt><trkpt lat="40.7390326" lon="15.0915019"><ele>866.0</ele><time>2026-04-12T13:43:17.732Z</time></trkpt><trkpt lat="40.7389718" lon="15.0915573"><ele>866.0</ele><time>2026-04-12T13:43:18.721Z</time></trkpt><trkpt lat="40.7389024" lon="15.0916288"><ele>866.0000000000001</ele><time>2026-04-12T13:43:19.737Z</time></trkpt><trkpt lat="40.7388394" lon="15.0917229"><ele>866.0</ele><time>2026-04-12T13:43:20.727Z</time></trkpt><trkpt lat="40.7387903" lon="15.0918203"><ele>864.5999999999999</ele><time>2026-04-12T13:43:21.728Z</time></trkpt><trkpt lat="40.7387671" lon="15.0919156"><ele>863.1999999999999</ele><time>2026-04-12T13:43:22.726Z</time></trkpt><trkpt lat="40.7387465" lon="15.0919977"><ele>861.8000000000001</ele><time>2026-04-12T13:43:23.725Z</time></trkpt><trkpt lat="40.7386741" lon="15.0921495"><ele>860.4000000000001</ele><time>2026-04-12T13:43:25.72Z</time></trkpt><trkpt lat="40.7386161" lon="15.0922413"><ele>859.0</ele><time>2026-04-12T13:43:26.732Z</time></trkpt><trkpt lat="40.7385353" lon="15.0923246"><ele>862.4999999999999</ele><time>2026-04-12T13:43:27.726Z</time></trkpt><trkpt lat="40.7384583" lon="15.09239"><ele>866.0</ele><time>2026-04-12T13:43:28.717Z</time></trkpt><trkpt lat="40.7383946" lon="15.0924351"><ele>869.5</ele><time>2026-04-12T13:43:29.719Z</time></trkpt><trkpt lat="40.7382963" lon="15.0924302"><ele>873.0</ele><time>2026-04-12T13:43:31.722Z</time></trkpt><trkpt lat="40.738231" lon="15.0924336"><ele>876.4999999999999</ele><time>2026-04-12T13:43:33.726Z</time></trkpt><trkpt lat="40.7381619" lon="15.0924741"><ele>880.0</ele><time>2026-04-12T13:43:36.732Z</time></trkpt><trkpt lat="40.7382293" lon="15.0925889"><ele>880.0</ele><time>2026-04-12T13:43:39.744Z</time></trkpt><trkpt lat="40.7382805" lon="15.0926525"><ele>880.0</ele><time>2026-04-12T13:43:40.749Z</time></trkpt><trkpt lat="40.7383923" lon="15.0927389"><ele>880.0</ele><time>2026-04-12T13:43:42.749Z</time></trkpt><trkpt lat="40.7384554" lon="15.0927872"><ele>880.0</ele><time>2026-04-12T13:43:43.739Z</time></trkpt><trkpt lat="40.7385142" lon="15.0928342"><ele>880.0</ele><time>2026-04-12T13:43:44.73Z</time></trkpt><trkpt lat="40.738594" lon="15.0929391"><ele>879.8</ele><time>2026-04-12T13:43:46.74Z</time></trkpt><trkpt lat="40.7386235" lon="15.0930818"><ele>879.6</ele><time>2026-04-12T13:43:48.724Z</time></trkpt><trkpt lat="40.7385893" lon="15.0932053"><ele>879.4000000000001</ele><time>2026-04-12T13:43:50.73Z</time></trkpt><trkpt lat="40.7384979" lon="15.0933347"><ele>879.2</ele><time>2026-04-12T13:43:52.732Z</time></trkpt><trkpt lat="40.7384463" lon="15.0934052"><ele>879.0</ele><time>2026-04-12T13:43:53.729Z</time></trkpt><trkpt lat="40.7384024" lon="15.0934881"><ele>879.0</ele><time>2026-04-12T13:43:54.724Z</time></trkpt><trkpt lat="40.7383763" lon="15.0935717"><ele>879.0000000000001</ele><time>2026-04-12T13:43:55.733Z</time></trkpt><trkpt lat="40.7383788" lon="15.0937208"><ele>879.0000000000001</ele><time>2026-04-12T13:43:57.727Z</time></trkpt><trkpt lat="40.7383494" lon="15.0938474"><ele>879.0</ele><time>2026-04-12T13:43:59.728Z</time></trkpt><trkpt lat="40.7382634" lon="15.0939665"><ele>879.0</ele><time>2026-04-12T13:44:01.719Z</time></trkpt><trkpt lat="40.7382342" lon="15.0940908"><ele>876.5</ele><time>2026-04-12T13:44:03.722Z</time></trkpt><trkpt lat="40.7382786" lon="15.0941969"><ele>874.0</ele><time>2026-04-12T13:44:05.713Z</time></trkpt><trkpt lat="40.7383152" lon="15.0942678"><ele>871.5</ele><time>2026-04-12T13:44:06.724Z</time></trkpt><trkpt lat="40.7383433" lon="15.0943473"><ele>869.0</ele><time>2026-04-12T13:44:07.724Z</time></trkpt><trkpt lat="40.7383591" lon="15.0944763"><ele>866.5</ele><time>2026-04-12T13:44:09.725Z</time></trkpt><trkpt lat="40.7382576" lon="15.0945455"><ele>864.0</ele><time>2026-04-12T13:44:11.719Z</time></trkpt><trkpt lat="40.7381838" lon="15.0945735"><ele>864.0</ele><time>2026-04-12T13:44:12.724Z</time></trkpt><trkpt lat="40.7381131" lon="15.0946094"><ele>864.0000000000001</ele><time>2026-04-12T13:44:13.729Z</time></trkpt><trkpt lat="40.7380026" lon="15.0946609"><ele>864.0000000000001</ele><time>2026-04-12T13:44:15.719Z</time></trkpt><trkpt lat="40.7378874" lon="15.0947261"><ele>864.0</ele><time>2026-04-12T13:44:17.72Z</time></trkpt><trkpt lat="40.7378337" lon="15.0947788"><ele>864.0</ele><time>2026-04-12T13:44:18.716Z</time></trkpt><trkpt lat="40.7377821" lon="15.0948404"><ele>864.0</ele><time>2026-04-12T13:44:19.727Z</time></trkpt><trkpt lat="40.7377253" lon="15.094914"><ele>864.0</ele><time>2026-04-12T13:44:20.719Z</time></trkpt><trkpt lat="40.737677" lon="15.0949831"><ele>864.0</ele><time>2026-04-12T13:44:21.724Z</time></trkpt><trkpt lat="40.7375893" lon="15.0950529"><ele>864.0</ele><time>2026-04-12T13:44:23.718Z</time></trkpt><trkpt lat="40.7374972" lon="15.0950727"><ele>864.0</ele><time>2026-04-12T13:44:25.724Z</time></trkpt><trkpt lat="40.7374223" lon="15.0950655"><ele>864.0</ele><time>2026-04-12T13:44:27.727Z</time></trkpt><trkpt lat="40.7373155" lon="15.095057"><ele>864.0</ele><time>2026-04-12T13:44:29.729Z</time></trkpt><trkpt lat="40.7372181" lon="15.0951048"><ele>864.0000000000001</ele><time>2026-04-12T13:44:31.737Z</time></trkpt><trkpt lat="40.7371314" lon="15.0952035"><ele>864.0000000000001</ele><time>2026-04-12T13:44:33.738Z</time></trkpt><trkpt lat="40.7370299" lon="15.0952121"><ele>864.0</ele><time>2026-04-12T13:44:35.727Z</time></trkpt><trkpt lat="40.7369185" lon="15.0952191"><ele>864.0</ele><time>2026-04-12T13:44:37.734Z</time></trkpt><trkpt lat="40.736856" lon="15.0952402"><ele>865.8333333333334</ele><time>2026-04-12T13:44:38.731Z</time></trkpt><trkpt lat="40.736771" lon="15.0952682"><ele>867.6666666666667</ele><time>2026-04-12T13:44:40.725Z</time></trkpt><trkpt lat="40.7366929" lon="15.0952747"><ele>869.5</ele><time>2026-04-12T13:44:42.734Z</time></trkpt><trkpt lat="40.7366094" lon="15.0952509"><ele>871.3333333333334</ele><time>2026-04-12T13:44:44.731Z</time></trkpt><trkpt lat="40.7365335" lon="15.0952818"><ele>873.1666666666667</ele><time>2026-04-12T13:44:47.745Z</time></trkpt><trkpt lat="40.7365708" lon="15.0953937"><ele>875.0</ele><time>2026-04-12T13:44:50.744Z</time></trkpt><trkpt lat="40.7366333" lon="15.0954672"><ele>875.0000000000001</ele><time>2026-04-12T13:44:52.748Z</time></trkpt><trkpt lat="40.7366935" lon="15.0955323"><ele>875.0</ele><time>2026-04-12T13:44:54.74Z</time></trkpt><trkpt lat="40.7367578" lon="15.0955658"><ele>875.0</ele><time>2026-04-12T13:44:56.732Z</time></trkpt><trkpt lat="40.7368501" lon="15.0955351"><ele>875.0</ele><time>2026-04-12T13:44:58.726Z</time></trkpt><trkpt lat="40.7369298" lon="15.0954907"><ele>875.0000000000001</ele><time>2026-04-12T13:45:00.726Z</time></trkpt><trkpt lat="40.7369921" lon="15.0954445"><ele>875.0</ele><time>2026-04-12T13:45:02.724Z</time></trkpt><trkpt lat="40.737068" lon="15.0954395"><ele>873.4285714285714</ele><time>2026-04-12T13:45:04.725Z</time></trkpt><trkpt lat="40.7371338" lon="15.0954528"><ele>871.8571428571429</ele><time>2026-04-12T13:45:06.723Z</time></trkpt><trkpt lat="40.7372176" lon="15.0954714"><ele>870.2857142857142</ele><time>2026-04-12T13:45:08.722Z</time></trkpt><trkpt lat="40.7372968" lon="15.0955149"><ele>868.7142857142858</ele><time>2026-04-12T13:45:10.722Z</time></trkpt><trkpt lat="40.7373621" lon="15.0955187"><ele>867.1428571428571</ele><time>2026-04-12T13:45:12.729Z</time></trkpt><trkpt lat="40.737427" lon="15.0955292"><ele>865.5714285714286</ele><time>2026-04-12T13:45:14.725Z</time></trkpt><trkpt lat="40.7374936" lon="15.0955588"><ele>864.0</ele><time>2026-04-12T13:45:16.727Z</time></trkpt><trkpt lat="40.737565" lon="15.095551"><ele>864.0</ele><time>2026-04-12T13:45:18.722Z</time></trkpt><trkpt lat="40.73764" lon="15.0955419"><ele>864.0</ele><time>2026-04-12T13:45:20.728Z</time></trkpt><trkpt lat="40.7377213" lon="15.0955406"><ele>864.0</ele><time>2026-04-12T13:45:22.723Z</time></trkpt><trkpt lat="40.7377899" lon="15.0955492"><ele>864.0</ele><time>2026-04-12T13:45:24.717Z</time></trkpt><trkpt lat="40.7378615" lon="15.0955266"><ele>864.0</ele><time>2026-04-12T13:45:26.722Z</time></trkpt><trkpt lat="40.7379261" lon="15.0955151"><ele>864.0</ele><time>2026-04-12T13:45:28.739Z</time></trkpt><trkpt lat="40.7380112" lon="15.0954855"><ele>861.2857142857142</ele><time>2026-04-12T13:45:30.721Z</time></trkpt><trkpt lat="40.7380781" lon="15.0954945"><ele>858.5714285714286</ele><time>2026-04-12T13:45:44.728Z</time></trkpt><trkpt lat="40.7381423" lon="15.095512"><ele>855.8571428571429</ele><time>2026-04-12T13:45:49.722Z</time></trkpt><trkpt lat="40.7382046" lon="15.0955377"><ele>853.1428571428571</ele><time>2026-04-12T13:45:54.717Z</time></trkpt><trkpt lat="40.7381491" lon="15.0955952"><ele>850.4285714285714</ele><time>2026-04-12T13:46:00.723Z</time></trkpt><trkpt lat="40.7380787" lon="15.0956114"><ele>847.7142857142857</ele><time>2026-04-12T13:46:01.727Z</time></trkpt><trkpt lat="40.7380027" lon="15.0956228"><ele>845.0</ele><time>2026-04-12T13:46:02.722Z</time></trkpt><trkpt lat="40.7379301" lon="15.0956208"><ele>845.0</ele><time>2026-04-12T13:46:03.725Z</time></trkpt><trkpt lat="40.7378108" lon="15.0956052"><ele>845.0</ele><time>2026-04-12T13:46:04.714Z</time></trkpt><trkpt lat="40.7376927" lon="15.095569"><ele>845.0</ele><time>2026-04-12T13:46:05.716Z</time></trkpt><trkpt lat="40.7375937" lon="15.0955382"><ele>845.0</ele><time>2026-04-12T13:46:06.721Z</time></trkpt><trkpt lat="40.7375164" lon="15.0955072"><ele>845.0</ele><time>2026-04-12T13:46:07.726Z</time></trkpt><trkpt lat="40.7374328" lon="15.0954856"><ele>848.1666666666667</ele><time>2026-04-12T13:46:08.722Z</time></trkpt><trkpt lat="40.7373355" lon="15.0954656"><ele>851.3333333333334</ele><time>2026-04-12T13:46:09.72Z</time></trkpt><trkpt lat="40.7372543" lon="15.0954464"><ele>854.5</ele><time>2026-04-12T13:46:10.732Z</time></trkpt><trkpt lat="40.7371826" lon="15.0954237"><ele>857.6666666666667</ele><time>2026-04-12T13:46:11.737Z</time></trkpt><trkpt lat="40.7371136" lon="15.0953957"><ele>860.8333333333334</ele><time>2026-04-12T13:46:12.739Z</time></trkpt><trkpt lat="40.737036" lon="15.0953807"><ele>864.0</ele><time>2026-04-12T13:46:13.737Z</time></trkpt><trkpt lat="40.7369494" lon="15.0953363"><ele>865.8333333333334</ele><time>2026-04-12T13:46:14.742Z</time></trkpt><trkpt lat="40.7368688" lon="15.0953225"><ele>867.6666666666667</ele><time>2026-04-12T13:46:15.736Z</time></trkpt><trkpt lat="40.7368024" lon="15.0953441"><ele>869.5</ele><time>2026-04-12T13:46:16.725Z</time></trkpt><trkpt lat="40.7367296" lon="15.0954344"><ele>871.3333333333334</ele><time>2026-04-12T13:46:18.731Z</time></trkpt><trkpt lat="40.7367372" lon="15.0955345"><ele>873.1666666666667</ele><time>2026-04-12T13:46:20.747Z</time></trkpt><trkpt lat="40.7367798" lon="15.095637"><ele>875.0</ele><time>2026-04-12T13:46:23.747Z</time></trkpt><trkpt lat="40.7368007" lon="15.0957173"><ele>872.3333333333334</ele><time>2026-04-12T13:46:25.732Z</time></trkpt><trkpt lat="40.7368504" lon="15.0958403"><ele>869.6666666666667</ele><time>2026-04-12T13:46:27.739Z</time></trkpt><trkpt lat="40.7368925" lon="15.0959115"><ele>867.0</ele><time>2026-04-12T13:46:29.749Z</time></trkpt><trkpt lat="40.7369001" lon="15.0960126"><ele>864.3333333333333</ele><time>2026-04-12T13:46:32.731Z</time></trkpt><trkpt lat="40.7368356" lon="15.0960754"><ele>861.6666666666666</ele><time>2026-04-12T13:46:36.712Z</time></trkpt><trkpt lat="40.7367796" lon="15.0960349"><ele>859.0</ele><time>2026-04-12T13:46:58.721Z</time></trkpt><trkpt lat="40.7366878" lon="15.0960189"><ele>858.9999999999999</ele><time>2026-04-12T13:47:01.716Z</time></trkpt><trkpt lat="40.7365891" lon="15.095979"><ele>859.0</ele><time>2026-04-12T13:47:03.718Z</time></trkpt><trkpt lat="40.7365152" lon="15.0959505"><ele>859.0</ele><time>2026-04-12T13:47:05.719Z</time></trkpt><trkpt lat="40.7364168" lon="15.0959311"><ele>859.0</ele><time>2026-04-12T13:47:07.727Z</time></trkpt><trkpt lat="40.736332" lon="15.0958935"><ele>858.9999999999999</ele><time>2026-04-12T13:47:09.711Z</time></trkpt><trkpt lat="40.736346" lon="15.0959807"><ele>859.0</ele><time>2026-04-12T13:47:34.736Z</time></trkpt><trkpt lat="40.7362672" lon="15.0959731"><ele>858.9999999999999</ele><time>2026-04-12T13:48:46.731Z</time></trkpt><trkpt lat="40.7362014" lon="15.0959604"><ele>859.0</ele><time>2026-04-12T13:48:57.738Z</time></trkpt><trkpt lat="40.736124" lon="15.0959419"><ele>859.0</ele><time>2026-04-12T13:49:07.745Z</time></trkpt><trkpt lat="40.7360594" lon="15.0959295"><ele>859.0</ele><time>2026-04-12T13:49:12.738Z</time></trkpt><trkpt lat="40.7361269" lon="15.0958757"><ele>858.9999999999999</ele><time>2026-04-12T13:49:36.743Z</time></trkpt><trkpt lat="40.7361907" lon="15.0958585"><ele>859.0</ele><time>2026-04-12T13:49:38.723Z</time></trkpt><trkpt lat="40.7361076" lon="15.0959272"><ele>866.4000000000001</ele><time>2026-04-12T13:49:43.748Z</time></trkpt><trkpt lat="40.735984" lon="15.0959591"><ele>873.8000000000001</ele><time>2026-04-12T13:49:45.733Z</time></trkpt><trkpt lat="40.7359081" lon="15.0959981"><ele>881.1999999999999</ele><time>2026-04-12T13:49:46.734Z</time></trkpt><trkpt lat="40.7358351" lon="15.0960421"><ele>888.5999999999999</ele><time>2026-04-12T13:49:47.746Z</time></trkpt><trkpt lat="40.7357748" lon="15.0960879"><ele>896.0</ele><time>2026-04-12T13:49:48.731Z</time></trkpt><trkpt lat="40.7356671" lon="15.0961623"><ele>896.0</ele><time>2026-04-12T13:49:50.733Z</time></trkpt><trkpt lat="40.7355984" lon="15.0962621"><ele>895.9999999999999</ele><time>2026-04-12T13:49:52.728Z</time></trkpt><trkpt lat="40.7355384" lon="15.0963073"><ele>895.9999999999999</ele><time>2026-04-12T13:49:53.743Z</time></trkpt><trkpt lat="40.735504" lon="15.0963831"><ele>896.0</ele><time>2026-04-12T13:49:54.758Z</time></trkpt><trkpt lat="40.7353994" lon="15.0964731"><ele>896.0</ele><time>2026-04-12T13:49:56.744Z</time></trkpt><trkpt lat="40.7353226" lon="15.0965579"><ele>896.6666666666667</ele><time>2026-04-12T13:49:58.742Z</time></trkpt><trkpt lat="40.735276" lon="15.0966214"><ele>897.3333333333334</ele><time>2026-04-12T13:49:59.743Z</time></trkpt><trkpt lat="40.7352599" lon="15.0967195"><ele>898.0</ele><time>2026-04-12T13:50:00.751Z</time></trkpt><trkpt lat="40.7352806" lon="15.0968859"><ele>898.6666666666667</ele><time>2026-04-12T13:50:02.754Z</time></trkpt><trkpt lat="40.7353354" lon="15.0970054"><ele>899.3333333333334</ele><time>2026-04-12T13:50:03.743Z</time></trkpt><trkpt lat="40.7353576" lon="15.0970942"><ele>900.0</ele><time>2026-04-12T13:50:04.75Z</time></trkpt><trkpt lat="40.7354665" lon="15.0972736"><ele>900.0</ele><time>2026-04-12T13:50:05.754Z</time></trkpt><trkpt lat="40.7355187" lon="15.0973929"><ele>900.0</ele><time>2026-04-12T13:50:06.767Z</time></trkpt><trkpt lat="40.7356353" lon="15.0976028"><ele>900.0</ele><time>2026-04-12T13:50:07.749Z</time></trkpt><trkpt lat="40.7357121" lon="15.097761"><ele>900.0</ele><time>2026-04-12T13:50:08.747Z</time></trkpt><trkpt lat="40.7357441" lon="15.0978555"><ele>903.1666666666666</ele><time>2026-04-12T13:50:09.74Z</time></trkpt><trkpt lat="40.735781" lon="15.0980052"><ele>906.3333333333333</ele><time>2026-04-12T13:50:11.738Z</time></trkpt><trkpt lat="40.7357961" lon="15.0980892"><ele>909.5</ele><time>2026-04-12T13:50:12.738Z</time></trkpt><trkpt lat="40.7358062" lon="15.098187"><ele>912.6666666666666</ele><time>2026-04-12T13:50:13.727Z</time></trkpt><trkpt lat="40.7358158" lon="15.0982779"><ele>915.8333333333333</ele><time>2026-04-12T13:50:14.725Z</time></trkpt><trkpt lat="40.7358374" lon="15.0983998"><ele>919.0</ele><time>2026-04-12T13:50:15.737Z</time></trkpt><trkpt lat="40.7358435" lon="15.098497"><ele>924.8000000000001</ele><time>2026-04-12T13:50:16.729Z</time></trkpt><trkpt lat="40.7358872" lon="15.0986124"><ele>930.6000000000001</ele><time>2026-04-12T13:50:17.742Z</time></trkpt><trkpt lat="40.7358764" lon="15.0987483"><ele>936.4</ele><time>2026-04-12T13:50:19.75Z</time></trkpt><trkpt lat="40.7359032" lon="15.0988378"><ele>942.2</ele><time>2026-04-12T13:50:20.752Z</time></trkpt><trkpt lat="40.7359024" lon="15.0989575"><ele>948.0</ele><time>2026-04-12T13:50:22.736Z</time></trkpt><trkpt lat="40.7359365" lon="15.099113"><ele>953.0</ele><time>2026-04-12T13:50:24.736Z</time></trkpt><trkpt lat="40.7359579" lon="15.0992041"><ele>958.0</ele><time>2026-04-12T13:50:25.741Z</time></trkpt><trkpt lat="40.7359804" lon="15.0992881"><ele>963.0</ele><time>2026-04-12T13:50:26.741Z</time></trkpt><trkpt lat="40.7359394" lon="15.0994207"><ele>968.0</ele><time>2026-04-12T13:50:28.742Z</time></trkpt><trkpt lat="40.7358767" lon="15.0995532"><ele>973.0</ele><time>2026-04-12T13:50:30.737Z</time></trkpt><trkpt lat="40.7358537" lon="15.0996388"><ele>978.0</ele><time>2026-04-12T13:50:31.742Z</time></trkpt><trkpt lat="40.7358219" lon="15.0997129"><ele>978.0</ele><time>2026-04-12T13:50:32.738Z</time></trkpt><trkpt lat="40.7357931" lon="15.0997964"><ele>978.0</ele><time>2026-04-12T13:50:33.748Z</time></trkpt><trkpt lat="40.7357479" lon="15.0998644"><ele>978.0</ele><time>2026-04-12T13:50:34.736Z</time></trkpt><trkpt lat="40.7356897" lon="15.0999912"><ele>978.0</ele><time>2026-04-12T13:50:36.744Z</time></trkpt><trkpt lat="40.7357069" lon="15.1001812"><ele>978.0</ele><time>2026-04-12T13:50:38.733Z</time></trkpt><trkpt lat="40.735714" lon="15.1002708"><ele>983.4</ele><time>2026-04-12T13:50:39.735Z</time></trkpt><trkpt lat="40.7357527" lon="15.1004714"><ele>988.8</ele><time>2026-04-12T13:50:41.741Z</time></trkpt><trkpt lat="40.7357801" lon="15.1005903"><ele>994.2</ele><time>2026-04-12T13:50:42.749Z</time></trkpt><trkpt lat="40.7357999" lon="15.1006902"><ele>999.6</ele><time>2026-04-12T13:50:43.756Z</time></trkpt><trkpt lat="40.7357791" lon="15.1007688"><ele>1005.0</ele><time>2026-04-12T13:50:44.747Z</time></trkpt><trkpt lat="40.735798" lon="15.1008698"><ele>1012.75</ele><time>2026-04-12T13:50:45.746Z</time></trkpt><trkpt lat="40.735832" lon="15.1011383"><ele>1020.5</ele><time>2026-04-12T13:50:47.761Z</time></trkpt><trkpt lat="40.735831" lon="15.1012268"><ele>1028.25</ele><time>2026-04-12T13:50:48.751Z</time></trkpt><trkpt lat="40.7358961" lon="15.1014111"><ele>1036.0</ele><time>2026-04-12T13:50:49.764Z</time></trkpt><trkpt lat="40.7358812" lon="15.1015138"><ele>1040.5</ele><time>2026-04-12T13:50:50.753Z</time></trkpt><trkpt lat="40.7359095" lon="15.1016923"><ele>1045.0</ele><time>2026-04-12T13:50:51.766Z</time></trkpt><trkpt lat="40.7359322" lon="15.1019"><ele>1049.5</ele><time>2026-04-12T13:50:53.759Z</time></trkpt><trkpt lat="40.7359161" lon="15.102011"><ele>1054.0</ele><time>2026-04-12T13:50:54.745Z</time></trkpt><trkpt lat="40.7358596" lon="15.1020733"><ele>1054.0</ele><time>2026-04-12T13:50:55.731Z</time></trkpt><trkpt lat="40.735879" lon="15.1022097"><ele>1054.0</ele><time>2026-04-12T13:50:56.74Z</time></trkpt><trkpt lat="40.7358364" lon="15.102396"><ele>1054.0</ele><time>2026-04-12T13:50:58.75Z</time></trkpt><trkpt lat="40.7358024" lon="15.1024961"><ele>1054.0</ele><time>2026-04-12T13:50:59.744Z</time></trkpt><trkpt lat="40.735756" lon="15.1026332"><ele>1054.0</ele><time>2026-04-12T13:51:01.739Z</time></trkpt><trkpt lat="40.7357814" lon="15.1028071"><ele>1052.3333333333333</ele><time>2026-04-12T13:51:03.741Z</time></trkpt><trkpt lat="40.735773" lon="15.1028903"><ele>1050.6666666666665</ele><time>2026-04-12T13:51:04.742Z</time></trkpt><trkpt lat="40.7357759" lon="15.1029753"><ele>1049.0</ele><time>2026-04-12T13:51:05.749Z</time></trkpt><trkpt lat="40.7357672" lon="15.1031011"><ele>1047.3333333333333</ele><time>2026-04-12T13:51:07.762Z</time></trkpt><trkpt lat="40.7357556" lon="15.1032001"><ele>1045.6666666666667</ele><time>2026-04-12T13:51:09.75Z</time></trkpt><trkpt lat="40.735768" lon="15.1032942"><ele>1044.0</ele><time>2026-04-12T13:51:11.741Z</time></trkpt><trkpt lat="40.7357905" lon="15.1034182"><ele>1042.8</ele><time>2026-04-12T13:51:13.73Z</time></trkpt><trkpt lat="40.7358142" lon="15.1035108"><ele>1041.6000000000001</ele><time>2026-04-12T13:51:14.749Z</time></trkpt><trkpt lat="40.7357813" lon="15.1036316"><ele>1040.4</ele><time>2026-04-12T13:51:16.738Z</time></trkpt><trkpt lat="40.7357563" lon="15.1037637"><ele>1039.2</ele><time>2026-04-12T13:51:18.742Z</time></trkpt><trkpt lat="40.7357542" lon="15.103931"><ele>1038.0</ele><time>2026-04-12T13:51:20.757Z</time></trkpt><trkpt lat="40.735752" lon="15.1040156"><ele>1036.0</ele><time>2026-04-12T13:51:21.757Z</time></trkpt><trkpt lat="40.7357261" lon="15.1041684"><ele>1034.0</ele><time>2026-04-12T13:51:23.746Z</time></trkpt><trkpt lat="40.7357094" lon="15.1042529"><ele>1032.0</ele><time>2026-04-12T13:51:24.743Z</time></trkpt><trkpt lat="40.7356958" lon="15.1043569"><ele>1030.0</ele><time>2026-04-12T13:51:25.743Z</time></trkpt><trkpt lat="40.7356821" lon="15.1044581"><ele>1028.0</ele><time>2026-04-12T13:51:26.74Z</time></trkpt><trkpt lat="40.7356706" lon="15.1046332"><ele>1028.0</ele><time>2026-04-12T13:51:28.74Z</time></trkpt><trkpt lat="40.735671" lon="15.1047468"><ele>1028.0</ele><time>2026-04-12T13:51:29.746Z</time></trkpt><trkpt lat="40.7356791" lon="15.1048501"><ele>1028.0</ele><time>2026-04-12T13:51:30.74Z</time></trkpt><trkpt lat="40.7357047" lon="15.1049614"><ele>1028.0</ele><time>2026-04-12T13:51:31.752Z</time></trkpt><trkpt lat="40.7357113" lon="15.1050445"><ele>1028.0</ele><time>2026-04-12T13:51:32.76Z</time></trkpt><trkpt lat="40.7357038" lon="15.105215"><ele>1028.0</ele><time>2026-04-12T13:51:34.752Z</time></trkpt><trkpt lat="40.7356747" lon="15.1053108"><ele>1017.0</ele><time>2026-04-12T13:51:36.745Z</time></trkpt><trkpt lat="40.7356097" lon="15.1053498"><ele>1017.0</ele><time>2026-04-12T13:53:23.757Z</time></trkpt></trkseg><trkseg><trkpt lat="40.7280263" lon="15.0800516"><ele>942.9999999999999</ele><time>2026-04-12T14:17:03.004Z</time></trkpt><trkpt lat="40.728017" lon="15.0799694"><ele>943.0</ele><time>2026-04-12T14:17:04.015Z</time></trkpt><trkpt lat="40.7279307" lon="15.0800744"><ele>943.0</ele><time>2026-04-12T14:18:04.741Z</time></trkpt><trkpt lat="40.7278789" lon="15.0801328"><ele>943.0</ele><time>2026-04-12T14:18:05.735Z</time></trkpt><trkpt lat="40.7277934" lon="15.0802087"><ele>942.9999999999999</ele><time>2026-04-12T14:18:07.736Z</time></trkpt><trkpt lat="40.7277216" lon="15.0802357"><ele>943.0</ele><time>2026-04-12T14:18:09.733Z</time></trkpt><trkpt lat="40.7276656" lon="15.0802961"><ele>940.9999999999999</ele><time>2026-04-12T14:18:11.739Z</time></trkpt><trkpt lat="40.7275771" lon="15.0803405"><ele>939.0</ele><time>2026-04-12T14:18:13.732Z</time></trkpt><trkpt lat="40.7275178" lon="15.0803725"><ele>937.0</ele><time>2026-04-12T14:18:14.751Z</time></trkpt><trkpt lat="40.7274561" lon="15.0804101"><ele>935.0</ele><time>2026-04-12T14:18:15.743Z</time></trkpt><trkpt lat="40.7273652" lon="15.0804707"><ele>932.9999999999999</ele><time>2026-04-12T14:18:17.738Z</time></trkpt><trkpt lat="40.7272966" lon="15.0805421"><ele>931.0</ele><time>2026-04-12T14:18:19.737Z</time></trkpt><trkpt lat="40.7272003" lon="15.0805812"><ele>930.9999999999999</ele><time>2026-04-12T14:18:21.734Z</time></trkpt><trkpt lat="40.7271308" lon="15.0806066"><ele>931.0</ele><time>2026-04-12T14:18:23.737Z</time></trkpt><trkpt lat="40.727068" lon="15.0806497"><ele>931.0</ele><time>2026-04-12T14:18:39.732Z</time></trkpt><trkpt lat="40.7269949" lon="15.0806777"><ele>931.0</ele><time>2026-04-12T14:18:42.734Z</time></trkpt><trkpt lat="40.7269089" lon="15.08072"><ele>930.9999999999999</ele><time>2026-04-12T14:18:44.738Z</time></trkpt><trkpt lat="40.7268331" lon="15.0808407"><ele>931.0</ele><time>2026-04-12T14:18:46.745Z</time></trkpt><trkpt lat="40.7267679" lon="15.0809755"><ele>930.7142857142858</ele><time>2026-04-12T14:18:48.746Z</time></trkpt><trkpt lat="40.7267146" lon="15.0810617"><ele>930.4285714285714</ele><time>2026-04-12T14:18:50.734Z</time></trkpt><trkpt lat="40.7266464" lon="15.0810962"><ele>930.1428571428571</ele><time>2026-04-12T14:18:52.731Z</time></trkpt><trkpt lat="40.7265791" lon="15.0811186"><ele>929.8571428571429</ele><time>2026-04-12T14:18:55.732Z</time></trkpt><trkpt lat="40.7265136" lon="15.0810438"><ele>929.5714285714287</ele><time>2026-04-12T14:18:57.733Z</time></trkpt><trkpt lat="40.7264609" lon="15.0809935"><ele>929.2857142857143</ele><time>2026-04-12T14:18:58.736Z</time></trkpt><trkpt lat="40.7264124" lon="15.0809357"><ele>929.0</ele><time>2026-04-12T14:18:59.734Z</time></trkpt><trkpt lat="40.7263309" lon="15.0808145"><ele>926.1666666666667</ele><time>2026-04-12T14:19:01.732Z</time></trkpt><trkpt lat="40.7262375" lon="15.0807319"><ele>923.3333333333334</ele><time>2026-04-12T14:19:03.731Z</time></trkpt><trkpt lat="40.7261232" lon="15.0806731"><ele>920.5</ele><time>2026-04-12T14:19:05.767Z</time></trkpt><trkpt lat="40.7260601" lon="15.0806496"><ele>917.6666666666667</ele><time>2026-04-12T14:19:06.754Z</time></trkpt><trkpt lat="40.7259863" lon="15.0806227"><ele>914.8333333333334</ele><time>2026-04-12T14:19:07.747Z</time></trkpt><trkpt lat="40.7259191" lon="15.0805962"><ele>912.0</ele><time>2026-04-12T14:19:08.746Z</time></trkpt><trkpt lat="40.7257951" lon="15.0805997"><ele>913.2</ele><time>2026-04-12T14:19:10.739Z</time></trkpt><trkpt lat="40.7256853" lon="15.0806745"><ele>914.4000000000001</ele><time>2026-04-12T14:19:12.744Z</time></trkpt><trkpt lat="40.7255866" lon="15.080739"><ele>915.5999999999999</ele><time>2026-04-12T14:19:14.756Z</time></trkpt><trkpt lat="40.7254642" lon="15.0807778"><ele>916.8</ele><time>2026-04-12T14:19:16.75Z</time></trkpt><trkpt lat="40.7254012" lon="15.0808247"><ele>918.0</ele><time>2026-04-12T14:19:17.742Z</time></trkpt><trkpt lat="40.7253432" lon="15.080875"><ele>918.0</ele><time>2026-04-12T14:19:18.746Z</time></trkpt><trkpt lat="40.7252841" lon="15.0809079"><ele>918.0</ele><time>2026-04-12T14:19:19.741Z</time></trkpt><trkpt lat="40.7251869" lon="15.0809928"><ele>918.0</ele><time>2026-04-12T14:19:21.738Z</time></trkpt><trkpt lat="40.7251386" lon="15.0811122"><ele>918.0</ele><time>2026-04-12T14:19:23.743Z</time></trkpt><trkpt lat="40.7251039" lon="15.0812111"><ele>918.0</ele><time>2026-04-12T14:19:25.741Z</time></trkpt><trkpt lat="40.7250296" lon="15.0813043"><ele>913.4</ele><time>2026-04-12T14:19:27.741Z</time></trkpt><trkpt lat="40.7249186" lon="15.081334"><ele>908.8</ele><time>2026-04-12T14:19:29.743Z</time></trkpt><trkpt lat="40.7248012" lon="15.0813699"><ele>904.2</ele><time>2026-04-12T14:19:31.734Z</time></trkpt><trkpt lat="40.7246989" lon="15.0814316"><ele>899.6</ele><time>2026-04-12T14:19:33.753Z</time></trkpt><trkpt lat="40.7246173" lon="15.081515"><ele>895.0</ele><time>2026-04-12T14:19:35.746Z</time></trkpt><trkpt lat="40.7245365" lon="15.081562"><ele>893.8</ele><time>2026-04-12T14:19:37.749Z</time></trkpt><trkpt lat="40.724437" lon="15.0816024"><ele>892.6</ele><time>2026-04-12T14:19:39.744Z</time></trkpt><trkpt lat="40.7243712" lon="15.0816196"><ele>891.4000000000001</ele><time>2026-04-12T14:19:40.733Z</time></trkpt><trkpt lat="40.7242735" lon="15.0816751"><ele>890.2</ele><time>2026-04-12T14:19:42.74Z</time></trkpt><trkpt lat="40.7241871" lon="15.0817542"><ele>889.0</ele><time>2026-04-12T14:19:44.742Z</time></trkpt><trkpt lat="40.7241251" lon="15.0818635"><ele>888.9999999999999</ele><time>2026-04-12T14:19:46.742Z</time></trkpt><trkpt lat="40.7240749" lon="15.0819889"><ele>889.0</ele><time>2026-04-12T14:19:48.748Z</time></trkpt><trkpt lat="40.7240271" lon="15.0820686"><ele>889.0</ele><time>2026-04-12T14:19:50.742Z</time></trkpt><trkpt lat="40.7240826" lon="15.0821165"><ele>889.0</ele><time>2026-04-12T14:20:37.748Z</time></trkpt><trkpt lat="40.7241393" lon="15.0820537"><ele>888.9999999999999</ele><time>2026-04-12T14:20:39.743Z</time></trkpt><trkpt lat="40.7242181" lon="15.0819672"><ele>889.0</ele><time>2026-04-12T14:20:41.742Z</time></trkpt><trkpt lat="40.7242926" lon="15.0818488"><ele>889.0</ele><time>2026-04-12T14:20:43.751Z</time></trkpt><trkpt lat="40.7243867" lon="15.0817348"><ele>889.0000000000001</ele><time>2026-04-12T14:20:45.761Z</time></trkpt><trkpt lat="40.7244404" lon="15.0816645"><ele>889.0000000000001</ele><time>2026-04-12T14:20:46.748Z</time></trkpt><trkpt lat="40.724498" lon="15.0815916"><ele>889.0</ele><time>2026-04-12T14:20:47.755Z</time></trkpt><trkpt lat="40.7245539" lon="15.0815269"><ele>889.0</ele><time>2026-04-12T14:20:48.749Z</time></trkpt><trkpt lat="40.7246445" lon="15.0814168"><ele>890.2</ele><time>2026-04-12T14:20:50.742Z</time></trkpt><trkpt lat="40.7246882" lon="15.0812888"><ele>891.4000000000001</ele><time>2026-04-12T14:20:52.743Z</time></trkpt><trkpt lat="40.7247229" lon="15.0811388"><ele>892.6</ele><time>2026-04-12T14:20:54.742Z</time></trkpt><trkpt lat="40.7247697" lon="15.0809949"><ele>893.8</ele><time>2026-04-12T14:20:56.737Z</time></trkpt><trkpt lat="40.7247917" lon="15.0808838"><ele>895.0</ele><time>2026-04-12T14:20:58.733Z</time></trkpt><trkpt lat="40.7247322" lon="15.0808469"><ele>895.0</ele><time>2026-04-12T14:21:05.742Z</time></trkpt><trkpt lat="40.7246382" lon="15.0809213"><ele>895.0</ele><time>2026-04-12T14:21:08.754Z</time></trkpt><trkpt lat="40.7245184" lon="15.0810594"><ele>895.0</ele><time>2026-04-12T14:21:10.731Z</time></trkpt><trkpt lat="40.7244423" lon="15.0811162"><ele>895.0</ele><time>2026-04-12T14:21:11.735Z</time></trkpt><trkpt lat="40.7243705" lon="15.0811625"><ele>895.0</ele><time>2026-04-12T14:21:12.734Z</time></trkpt><trkpt lat="40.724278" lon="15.081209"><ele>891.3333333333333</ele><time>2026-04-12T14:21:13.743Z</time></trkpt><trkpt lat="40.7241845" lon="15.0812791"><ele>887.6666666666666</ele><time>2026-04-12T14:21:14.743Z</time></trkpt><trkpt lat="40.7240956" lon="15.0813473"><ele>884.0</ele><time>2026-04-12T14:21:15.742Z</time></trkpt><trkpt lat="40.7240332" lon="15.0813882"><ele>880.3333333333333</ele><time>2026-04-12T14:21:16.748Z</time></trkpt><trkpt lat="40.7239486" lon="15.0814096"><ele>876.6666666666666</ele><time>2026-04-12T14:21:18.752Z</time></trkpt><trkpt lat="40.7238767" lon="15.0814206"><ele>873.0</ele><time>2026-04-12T14:21:20.741Z</time></trkpt><trkpt lat="40.7238039" lon="15.0813729"><ele>873.0</ele><time>2026-04-12T14:21:22.744Z</time></trkpt><trkpt lat="40.7237517" lon="15.0813238"><ele>873.0</ele><time>2026-04-12T14:21:23.743Z</time></trkpt><trkpt lat="40.7236535" lon="15.081332"><ele>873.0</ele><time>2026-04-12T14:21:25.743Z</time></trkpt><trkpt lat="40.7235853" lon="15.0814148"><ele>873.0</ele><time>2026-04-12T14:21:27.748Z</time></trkpt><trkpt lat="40.7235481" lon="15.0814826"><ele>873.0</ele><time>2026-04-12T14:21:28.751Z</time></trkpt><trkpt lat="40.7235019" lon="15.0815519"><ele>873.0</ele><time>2026-04-12T14:21:29.74Z</time></trkpt><trkpt lat="40.7234389" lon="15.0816495"><ele>874.5714285714286</ele><time>2026-04-12T14:21:30.747Z</time></trkpt><trkpt lat="40.723378" lon="15.0817272"><ele>876.1428571428571</ele><time>2026-04-12T14:21:31.735Z</time></trkpt><trkpt lat="40.7233104" lon="15.0817757"><ele>877.7142857142858</ele><time>2026-04-12T14:21:32.738Z</time></trkpt><trkpt lat="40.7232617" lon="15.0818335"><ele>879.2857142857142</ele><time>2026-04-12T14:21:33.735Z</time></trkpt><trkpt lat="40.7232149" lon="15.0819036"><ele>880.8571428571429</ele><time>2026-04-12T14:21:34.75Z</time></trkpt><trkpt lat="40.7231625" lon="15.0819659"><ele>882.4285714285714</ele><time>2026-04-12T14:21:35.747Z</time></trkpt><trkpt lat="40.7231134" lon="15.0820214"><ele>884.0</ele><time>2026-04-12T14:21:36.744Z</time></trkpt><trkpt lat="40.7231714" lon="15.0820852"><ele>884.0</ele><time>2026-04-12T14:22:23.725Z</time></trkpt><trkpt lat="40.7232656" lon="15.0820752"><ele>884.0000000000001</ele><time>2026-04-12T14:22:24.734Z</time></trkpt><trkpt lat="40.7233602" lon="15.0820336"><ele>884.0000000000001</ele><time>2026-04-12T14:22:25.738Z</time></trkpt><trkpt lat="40.7234508" lon="15.0819929"><ele>884.0</ele><time>2026-04-12T14:22:26.742Z</time></trkpt><trkpt lat="40.7235267" lon="15.0819283"><ele>884.0</ele><time>2026-04-12T14:22:27.737Z</time></trkpt><trkpt lat="40.7236017" lon="15.0818647"><ele>884.7142857142858</ele><time>2026-04-12T14:22:28.736Z</time></trkpt><trkpt lat="40.7236553" lon="15.0817924"><ele>885.4285714285714</ele><time>2026-04-12T14:22:29.742Z</time></trkpt><trkpt lat="40.7236985" lon="15.0817142"><ele>886.1428571428571</ele><time>2026-04-12T14:22:30.738Z</time></trkpt><trkpt lat="40.7237341" lon="15.0816328"><ele>886.8571428571429</ele><time>2026-04-12T14:22:31.748Z</time></trkpt><trkpt lat="40.7237779" lon="15.0815523"><ele>887.5714285714286</ele><time>2026-04-12T14:22:32.738Z</time></trkpt><trkpt lat="40.723802" lon="15.0814445"><ele>888.2857142857143</ele><time>2026-04-12T14:22:34.736Z</time></trkpt><trkpt lat="40.7238614" lon="15.081475"><ele>889.0</ele><time>2026-04-12T14:22:38.739Z</time></trkpt><trkpt lat="40.7239199" lon="15.0815527"><ele>885.8000000000001</ele><time>2026-04-12T14:22:40.754Z</time></trkpt><trkpt lat="40.7240206" lon="15.0815394"><ele>882.6000000000001</ele><time>2026-04-12T14:22:43.745Z</time></trkpt><trkpt lat="40.7241152" lon="15.0814534"><ele>879.4</ele><time>2026-04-12T14:22:45.759Z</time></trkpt><trkpt lat="40.7241694" lon="15.0813893"><ele>876.2</ele><time>2026-04-12T14:22:46.765Z</time></trkpt><trkpt lat="40.724231" lon="15.0813182"><ele>873.0</ele><time>2026-04-12T14:22:47.772Z</time></trkpt><trkpt lat="40.7243024" lon="15.0812564"><ele>873.0</ele><time>2026-04-12T14:22:48.758Z</time></trkpt><trkpt lat="40.7243634" lon="15.0812063"><ele>873.0</ele><time>2026-04-12T14:22:49.748Z</time></trkpt><trkpt lat="40.7244266" lon="15.081169"><ele>873.0</ele><time>2026-04-12T14:22:50.748Z</time></trkpt><trkpt lat="40.7244813" lon="15.0811176"><ele>873.0</ele><time>2026-04-12T14:22:51.75Z</time></trkpt><trkpt lat="40.7245377" lon="15.0810494"><ele>873.0</ele><time>2026-04-12T14:22:52.746Z</time></trkpt><trkpt lat="40.7245884" lon="15.0809722"><ele>873.0</ele><time>2026-04-12T14:22:53.744Z</time></trkpt><trkpt lat="40.7246674" lon="15.0808944"><ele>876.6666666666666</ele><time>2026-04-12T14:22:55.75Z</time></trkpt><trkpt lat="40.7247038" lon="15.0809829"><ele>880.3333333333333</ele><time>2026-04-12T14:22:59.735Z</time></trkpt><trkpt lat="40.724666" lon="15.0810518"><ele>884.0</ele><time>2026-04-12T14:23:01.736Z</time></trkpt><trkpt lat="40.7246144" lon="15.0811554"><ele>887.6666666666666</ele><time>2026-04-12T14:23:03.735Z</time></trkpt><trkpt lat="40.7245769" lon="15.08123"><ele>891.3333333333333</ele><time>2026-04-12T14:23:04.736Z</time></trkpt><trkpt lat="40.7245263" lon="15.0813175"><ele>895.0</ele><time>2026-04-12T14:23:05.738Z</time></trkpt><trkpt lat="40.7244828" lon="15.0814087"><ele>894.9999999999999</ele><time>2026-04-12T14:23:06.737Z</time></trkpt><trkpt lat="40.7244314" lon="15.0814863"><ele>895.0</ele><time>2026-04-12T14:23:07.74Z</time></trkpt><trkpt lat="40.7243727" lon="15.0815473"><ele>895.0</ele><time>2026-04-12T14:23:08.734Z</time></trkpt><trkpt lat="40.7242932" lon="15.0815875"><ele>895.0</ele><time>2026-04-12T14:23:09.74Z</time></trkpt><trkpt lat="40.7242143" lon="15.0816318"><ele>894.9999999999999</ele><time>2026-04-12T14:23:10.732Z</time></trkpt><trkpt lat="40.724133" lon="15.0816773"><ele>895.0</ele><time>2026-04-12T14:23:11.738Z</time></trkpt><trkpt lat="40.7240446" lon="15.0817277"><ele>893.8</ele><time>2026-04-12T14:23:12.733Z</time></trkpt><trkpt lat="40.7239589" lon="15.0817707"><ele>892.6</ele><time>2026-04-12T14:23:13.724Z</time></trkpt><trkpt lat="40.723888" lon="15.0818262"><ele>891.4000000000001</ele><time>2026-04-12T14:23:14.719Z</time></trkpt><trkpt lat="40.7238312" lon="15.0818799"><ele>890.2</ele><time>2026-04-12T14:23:15.724Z</time></trkpt><trkpt lat="40.7237685" lon="15.0820193"><ele>889.0</ele><time>2026-04-12T14:23:17.724Z</time></trkpt><trkpt lat="40.7237408" lon="15.0821692"><ele>888.9999999999999</ele><time>2026-04-12T14:23:19.712Z</time></trkpt><trkpt lat="40.7237414" lon="15.0823169"><ele>889.0</ele><time>2026-04-12T14:23:21.733Z</time></trkpt><trkpt lat="40.7237378" lon="15.082408"><ele>889.0</ele><time>2026-04-12T14:23:23.726Z</time></trkpt><trkpt lat="40.7236863" lon="15.0823475"><ele>889.0</ele><time>2026-04-12T14:23:27.735Z</time></trkpt><trkpt lat="40.7236596" lon="15.0822393"><ele>888.9999999999999</ele><time>2026-04-12T14:23:29.746Z</time></trkpt><trkpt lat="40.7235867" lon="15.0821604"><ele>889.0</ele><time>2026-04-12T14:23:31.737Z</time></trkpt><trkpt lat="40.7234859" lon="15.0821853"><ele>888.0</ele><time>2026-04-12T14:23:33.747Z</time></trkpt><trkpt lat="40.7233958" lon="15.0822556"><ele>887.0000000000001</ele><time>2026-04-12T14:23:35.734Z</time></trkpt><trkpt lat="40.723308" lon="15.0823286"><ele>886.0000000000001</ele><time>2026-04-12T14:23:37.747Z</time></trkpt><trkpt lat="40.7232167" lon="15.0823751"><ele>885.0</ele><time>2026-04-12T14:23:39.748Z</time></trkpt><trkpt lat="40.7231261" lon="15.082388"><ele>884.0</ele><time>2026-04-12T14:23:41.743Z</time></trkpt><trkpt lat="40.7230401" lon="15.0823832"><ele>884.0</ele><time>2026-04-12T14:23:43.753Z</time></trkpt><trkpt lat="40.722934" lon="15.0823726"><ele>884.0000000000001</ele><time>2026-04-12T14:23:45.735Z</time></trkpt><trkpt lat="40.7228206" lon="15.0823729"><ele>884.0000000000001</ele><time>2026-04-12T14:23:47.745Z</time></trkpt><trkpt lat="40.7227066" lon="15.0823754"><ele>884.0</ele><time>2026-04-12T14:23:49.737Z</time></trkpt><trkpt lat="40.7225985" lon="15.0824002"><ele>884.0</ele><time>2026-04-12T14:23:51.739Z</time></trkpt><trkpt lat="40.722486" lon="15.0824695"><ele>887.6</ele><time>2026-04-12T14:23:53.744Z</time></trkpt><trkpt lat="40.7223927" lon="15.0825445"><ele>891.2</ele><time>2026-04-12T14:23:55.732Z</time></trkpt><trkpt lat="40.7223027" lon="15.0826339"><ele>894.8000000000001</ele><time>2026-04-12T14:23:57.739Z</time></trkpt><trkpt lat="40.7222474" lon="15.0826852"><ele>898.4000000000001</ele><time>2026-04-12T14:23:58.74Z</time></trkpt><trkpt lat="40.7221731" lon="15.0827522"><ele>902.0</ele><time>2026-04-12T14:23:59.743Z</time></trkpt><trkpt lat="40.7221086" lon="15.082804"><ele>902.0000000000001</ele><time>2026-04-12T14:24:00.741Z</time></trkpt><trkpt lat="40.7220587" lon="15.0828626"><ele>902.0</ele><time>2026-04-12T14:24:01.735Z</time></trkpt><trkpt lat="40.7219898" lon="15.0829324"><ele>902.0</ele><time>2026-04-12T14:24:02.742Z</time></trkpt><trkpt lat="40.7219358" lon="15.0830255"><ele>902.0</ele><time>2026-04-12T14:24:03.74Z</time></trkpt><trkpt lat="40.721873" lon="15.0830867"><ele>902.0000000000001</ele><time>2026-04-12T14:24:04.739Z</time></trkpt><trkpt lat="40.721807" lon="15.0831194"><ele>902.0</ele><time>2026-04-12T14:24:05.735Z</time></trkpt><trkpt lat="40.7217317" lon="15.0831394"><ele>905.0000000000001</ele><time>2026-04-12T14:24:06.733Z</time></trkpt><trkpt lat="40.7216546" lon="15.0831653"><ele>908.0</ele><time>2026-04-12T14:24:07.735Z</time></trkpt><trkpt lat="40.7215802" lon="15.0832024"><ele>911.0</ele><time>2026-04-12T14:24:08.735Z</time></trkpt><trkpt lat="40.7215063" lon="15.0832385"><ele>914.0</ele><time>2026-04-12T14:24:09.739Z</time></trkpt><trkpt lat="40.7214142" lon="15.0833211"><ele>917.0000000000001</ele><time>2026-04-12T14:24:11.743Z</time></trkpt><trkpt lat="40.7213639" lon="15.0834065"><ele>920.0</ele><time>2026-04-12T14:24:13.732Z</time></trkpt><trkpt lat="40.7212835" lon="15.0834672"><ele>920.0</ele><time>2026-04-12T14:24:16.734Z</time></trkpt><trkpt lat="40.7211755" lon="15.0835109"><ele>920.0</ele><time>2026-04-12T14:24:18.737Z</time></trkpt><trkpt lat="40.7210632" lon="15.0836211"><ele>920.0</ele><time>2026-04-12T14:24:20.742Z</time></trkpt><trkpt lat="40.7209987" lon="15.0837069"><ele>920.0</ele><time>2026-04-12T14:24:21.737Z</time></trkpt><trkpt lat="40.7209215" lon="15.0837541"><ele>920.0</ele><time>2026-04-12T14:24:22.736Z</time></trkpt><trkpt lat="40.7208439" lon="15.0838123"><ele>923.0</ele><time>2026-04-12T14:24:23.738Z</time></trkpt><trkpt lat="40.7207619" lon="15.08385"><ele>926.0</ele><time>2026-04-12T14:24:24.729Z</time></trkpt><trkpt lat="40.7206929" lon="15.083881"><ele>929.0</ele><time>2026-04-12T14:24:25.738Z</time></trkpt><trkpt lat="40.7205605" lon="15.0838792"><ele>932.0</ele><time>2026-04-12T14:24:27.734Z</time></trkpt><trkpt lat="40.7204819" lon="15.083879"><ele>935.0</ele><time>2026-04-12T14:24:28.741Z</time></trkpt><trkpt lat="40.720403" lon="15.0838843"><ele>935.0000000000001</ele><time>2026-04-12T14:24:29.747Z</time></trkpt><trkpt lat="40.7203336" lon="15.0838902"><ele>935.0</ele><time>2026-04-12T14:24:30.738Z</time></trkpt><trkpt lat="40.7202674" lon="15.0838906"><ele>935.0</ele><time>2026-04-12T14:24:31.731Z</time></trkpt><trkpt lat="40.7201828" lon="15.083939"><ele>935.0</ele><time>2026-04-12T14:24:33.737Z</time></trkpt><trkpt lat="40.7201142" lon="15.0840137"><ele>935.0000000000001</ele><time>2026-04-12T14:24:35.751Z</time></trkpt><trkpt lat="40.7200302" lon="15.0841075"><ele>935.0</ele><time>2026-04-12T14:24:37.751Z</time></trkpt><trkpt lat="40.7199575" lon="15.0841963"><ele>936.8</ele><time>2026-04-12T14:24:39.756Z</time></trkpt><trkpt lat="40.719864" lon="15.0842736"><ele>938.6</ele><time>2026-04-12T14:24:41.753Z</time></trkpt><trkpt lat="40.7198208" lon="15.0843384"><ele>940.4000000000001</ele><time>2026-04-12T14:24:43.737Z</time></trkpt><trkpt lat="40.7197148" lon="15.0843551"><ele>942.2</ele><time>2026-04-12T14:24:46.742Z</time></trkpt><trkpt lat="40.7196056" lon="15.0843553"><ele>944.0</ele><time>2026-04-12T14:24:48.733Z</time></trkpt><trkpt lat="40.71954" lon="15.0843733"><ele>944.0000000000001</ele><time>2026-04-12T14:24:49.728Z</time></trkpt><trkpt lat="40.7194823" lon="15.0844128"><ele>944.0</ele><time>2026-04-12T14:24:50.73Z</time></trkpt><trkpt lat="40.7194144" lon="15.0844303"><ele>944.0</ele><time>2026-04-12T14:24:51.728Z</time></trkpt><trkpt lat="40.7193335" lon="15.0844517"><ele>944.0</ele><time>2026-04-12T14:24:52.73Z</time></trkpt><trkpt lat="40.719254" lon="15.0845041"><ele>944.0000000000001</ele><time>2026-04-12T14:24:53.731Z</time></trkpt><trkpt lat="40.7191761" lon="15.0845286"><ele>944.0</ele><time>2026-04-12T14:24:54.725Z</time></trkpt><trkpt lat="40.7191236" lon="15.0845854"><ele>949.0</ele><time>2026-04-12T14:24:55.737Z</time></trkpt><trkpt lat="40.7190526" lon="15.0846807"><ele>954.0000000000001</ele><time>2026-04-12T14:24:56.735Z</time></trkpt><trkpt lat="40.7189839" lon="15.0847878"><ele>959.0000000000001</ele><time>2026-04-12T14:24:57.743Z</time></trkpt><trkpt lat="40.7188721" lon="15.0848261"><ele>964.0</ele><time>2026-04-12T14:24:58.737Z</time></trkpt><trkpt lat="40.7187909" lon="15.0848772"><ele>969.0</ele><time>2026-04-12T14:24:59.737Z</time></trkpt><trkpt lat="40.7187297" lon="15.0850035"><ele>969.0</ele><time>2026-04-12T14:25:00.738Z</time></trkpt><trkpt lat="40.7186795" lon="15.0851328"><ele>969.0000000000001</ele><time>2026-04-12T14:25:01.735Z</time></trkpt><trkpt lat="40.7186182" lon="15.0851816"><ele>969.0000000000001</ele><time>2026-04-12T14:25:02.73Z</time></trkpt><trkpt lat="40.7186019" lon="15.085268"><ele>969.0</ele><time>2026-04-12T14:25:03.733Z</time></trkpt><trkpt lat="40.718545" lon="15.0853746"><ele>969.0</ele><time>2026-04-12T14:25:06.739Z</time></trkpt><trkpt lat="40.7184779" lon="15.0855128"><ele>974.0</ele><time>2026-04-12T14:25:08.75Z</time></trkpt><trkpt lat="40.7184192" lon="15.0855574"><ele>979.0000000000001</ele><time>2026-04-12T14:25:09.75Z</time></trkpt><trkpt lat="40.7183207" lon="15.0856385"><ele>984.0000000000001</ele><time>2026-04-12T14:25:11.74Z</time></trkpt><trkpt lat="40.718217" lon="15.0857358"><ele>989.0</ele><time>2026-04-12T14:25:13.743Z</time></trkpt><trkpt lat="40.71811" lon="15.0858067"><ele>994.0</ele><time>2026-04-12T14:25:15.753Z</time></trkpt><trkpt lat="40.7180304" lon="15.0858849"><ele>993.9999999999999</ele><time>2026-04-12T14:25:17.746Z</time></trkpt><trkpt lat="40.7179513" lon="15.0859532"><ele>994.0</ele><time>2026-04-12T14:25:19.744Z</time></trkpt><trkpt lat="40.7179028" lon="15.086015"><ele>994.0</ele><time>2026-04-12T14:25:20.729Z</time></trkpt><trkpt lat="40.7178677" lon="15.0860919"><ele>994.0</ele><time>2026-04-12T14:25:21.733Z</time></trkpt><trkpt lat="40.7178231" lon="15.0861769"><ele>993.9999999999999</ele><time>2026-04-12T14:25:22.736Z</time></trkpt><trkpt lat="40.7177719" lon="15.0862451"><ele>994.0</ele><time>2026-04-12T14:25:23.744Z</time></trkpt><trkpt lat="40.7177499" lon="15.0863367"><ele>1000.8333333333333</ele><time>2026-04-12T14:25:24.732Z</time></trkpt><trkpt lat="40.7177306" lon="15.0864463"><ele>1007.6666666666666</ele><time>2026-04-12T14:25:25.731Z</time></trkpt><trkpt lat="40.7177018" lon="15.0865513"><ele>1014.5</ele><time>2026-04-12T14:25:26.728Z</time></trkpt><trkpt lat="40.7176773" lon="15.0866628"><ele>1021.3333333333333</ele><time>2026-04-12T14:25:27.727Z</time></trkpt><trkpt lat="40.7176765" lon="15.086755"><ele>1028.1666666666667</ele><time>2026-04-12T14:25:28.729Z</time></trkpt><trkpt lat="40.7176594" lon="15.0868377"><ele>1035.0</ele><time>2026-04-12T14:25:29.732Z</time></trkpt><trkpt lat="40.717643" lon="15.0869307"><ele>1036.0</ele><time>2026-04-12T14:25:30.727Z</time></trkpt><trkpt lat="40.7175934" lon="15.0869982"><ele>1037.0</ele><time>2026-04-12T14:25:31.73Z</time></trkpt><trkpt lat="40.717553" lon="15.0870801"><ele>1038.0</ele><time>2026-04-12T14:25:33.723Z</time></trkpt><trkpt lat="40.7175437" lon="15.0871804"><ele>1039.0</ele><time>2026-04-12T14:26:27.717Z</time></trkpt><trkpt lat="40.7174864" lon="15.0872702"><ele>1040.0</ele><time>2026-04-12T14:26:38.717Z</time></trkpt><trkpt lat="40.7174365" lon="15.0873497"><ele>1041.0</ele><time>2026-04-12T14:26:47.737Z</time></trkpt><trkpt lat="40.7173933" lon="15.087413"><ele>1039.6666666666667</ele><time>2026-04-12T14:26:51.727Z</time></trkpt><trkpt lat="40.717446" lon="15.0874653"><ele>1038.3333333333333</ele><time>2026-04-12T14:26:54.735Z</time></trkpt><trkpt lat="40.7173782" lon="15.0874558"><ele>1037.0</ele><time>2026-04-12T14:27:01.729Z</time></trkpt><trkpt lat="40.7174182" lon="15.0875952"><ele>1035.6666666666665</ele><time>2026-04-12T14:27:02.738Z</time></trkpt><trkpt lat="40.717416" lon="15.08768"><ele>1034.3333333333333</ele><time>2026-04-12T14:27:03.73Z</time></trkpt><trkpt lat="40.7174337" lon="15.0878607"><ele>1033.0</ele><time>2026-04-12T14:27:05.734Z</time></trkpt><trkpt lat="40.7174724" lon="15.0879884"><ele>1033.0</ele><time>2026-04-12T14:27:06.738Z</time></trkpt><trkpt lat="40.7175216" lon="15.0881253"><ele>1033.0</ele><time>2026-04-12T14:27:07.732Z</time></trkpt><trkpt lat="40.7175639" lon="15.0882398"><ele>1033.0</ele><time>2026-04-12T14:27:08.738Z</time></trkpt><trkpt lat="40.7175009" lon="15.0882477"><ele>1033.0</ele><time>2026-04-12T14:27:11.747Z</time></trkpt><trkpt lat="40.7174403" lon="15.0883236"><ele>1033.0</ele><time>2026-04-12T14:27:14.748Z</time></trkpt><trkpt lat="40.7173771" lon="15.0883899"><ele>1033.0</ele><time>2026-04-12T14:27:16.758Z</time></trkpt><trkpt lat="40.7173127" lon="15.0884582"><ele>1031.1666666666665</ele><time>2026-04-12T14:27:22.751Z</time></trkpt><trkpt lat="40.7172483" lon="15.0884969"><ele>1029.3333333333333</ele><time>2026-04-12T14:27:36.75Z</time></trkpt><trkpt lat="40.7171715" lon="15.0885492"><ele>1027.5</ele><time>2026-04-12T14:27:42.748Z</time></trkpt><trkpt lat="40.7171129" lon="15.0885977"><ele>1025.6666666666667</ele><time>2026-04-12T14:27:45.75Z</time></trkpt><trkpt lat="40.7171104" lon="15.0886841"><ele>1023.8333333333334</ele><time>2026-04-12T14:28:07.742Z</time></trkpt><trkpt lat="40.7171768" lon="15.0887466"><ele>1022.0</ele><time>2026-04-12T14:28:14.747Z</time></trkpt><trkpt lat="40.7172531" lon="15.0887665"><ele>1022.0000000000001</ele><time>2026-04-12T14:28:17.745Z</time></trkpt><trkpt lat="40.7173092" lon="15.0887225"><ele>1022.0</ele><time>2026-04-12T14:28:39.749Z</time></trkpt><trkpt lat="40.717235" lon="15.0887159"><ele>1022.0</ele><time>2026-04-12T14:29:01.74Z</time></trkpt><trkpt lat="40.717166" lon="15.0887394"><ele>1022.0</ele><time>2026-04-12T14:29:03.741Z</time></trkpt><trkpt lat="40.7170824" lon="15.0887799"><ele>1022.0000000000001</ele><time>2026-04-12T14:29:05.756Z</time></trkpt><trkpt lat="40.7169805" lon="15.088826"><ele>1022.0</ele><time>2026-04-12T14:29:07.747Z</time></trkpt><trkpt lat="40.716883" lon="15.0888683"><ele>1018.3333333333334</ele><time>2026-04-12T14:29:09.755Z</time></trkpt><trkpt lat="40.7167849" lon="15.0889165"><ele>1014.6666666666667</ele><time>2026-04-12T14:29:11.755Z</time></trkpt><trkpt lat="40.7167226" lon="15.0889822"><ele>1011.0</ele><time>2026-04-12T14:29:13.742Z</time></trkpt><trkpt lat="40.7166842" lon="15.0890599"><ele>1007.3333333333333</ele><time>2026-04-12T14:29:15.745Z</time></trkpt><trkpt lat="40.7166487" lon="15.089155"><ele>1003.6666666666666</ele><time>2026-04-12T14:29:17.739Z</time></trkpt><trkpt lat="40.7166115" lon="15.0892394"><ele>1000.0</ele><time>2026-04-12T14:29:19.744Z</time></trkpt><trkpt lat="40.7165215" lon="15.089225"><ele>999.0</ele><time>2026-04-12T14:29:23.747Z</time></trkpt><trkpt lat="40.7164342" lon="15.0891743"><ele>998.0</ele><time>2026-04-12T14:29:25.741Z</time></trkpt><trkpt lat="40.716337" lon="15.0891367"><ele>997.0</ele><time>2026-04-12T14:29:27.744Z</time></trkpt><trkpt lat="40.7162592" lon="15.0891962"><ele>996.0</ele><time>2026-04-12T14:29:29.744Z</time></trkpt><trkpt lat="40.7161985" lon="15.0892726"><ele>995.0</ele><time>2026-04-12T14:29:31.756Z</time></trkpt><trkpt lat="40.7161106" lon="15.0893275"><ele>989.0000000000001</ele><time>2026-04-12T14:29:33.755Z</time></trkpt><trkpt lat="40.7160381" lon="15.0893876"><ele>983.0</ele><time>2026-04-12T14:29:35.75Z</time></trkpt><trkpt lat="40.715946" lon="15.0894788"><ele>977.0</ele><time>2026-04-12T14:29:37.751Z</time></trkpt><trkpt lat="40.7158621" lon="15.0895732"><ele>971.0</ele><time>2026-04-12T14:29:39.755Z</time></trkpt><trkpt lat="40.715824" lon="15.0896398"><ele>965.0000000000001</ele><time>2026-04-12T14:29:40.755Z</time></trkpt><trkpt lat="40.7157826" lon="15.0897186"><ele>959.0</ele><time>2026-04-12T14:29:41.755Z</time></trkpt><trkpt lat="40.7157568" lon="15.0898392"><ele>961.4285714285714</ele><time>2026-04-12T14:29:43.748Z</time></trkpt><trkpt lat="40.7157389" lon="15.0899507"><ele>963.8571428571429</ele><time>2026-04-12T14:29:45.752Z</time></trkpt><trkpt lat="40.7157179" lon="15.090042"><ele>966.2857142857142</ele><time>2026-04-12T14:29:47.75Z</time></trkpt><trkpt lat="40.7156847" lon="15.0901211"><ele>968.7142857142857</ele><time>2026-04-12T14:29:49.751Z</time></trkpt><trkpt lat="40.7156569" lon="15.0902039"><ele>971.1428571428571</ele><time>2026-04-12T14:29:51.749Z</time></trkpt><trkpt lat="40.7156335" lon="15.0903041"><ele>973.5714285714284</ele><time>2026-04-12T14:29:53.748Z</time></trkpt><trkpt lat="40.7156278" lon="15.0903981"><ele>975.9999999999999</ele><time>2026-04-12T14:29:55.75Z</time></trkpt><trkpt lat="40.7156048" lon="15.0904965"><ele>975.9999999999999</ele><time>2026-04-12T14:29:57.75Z</time></trkpt><trkpt lat="40.7155737" lon="15.0905999"><ele>976.0</ele><time>2026-04-12T14:29:59.743Z</time></trkpt><trkpt lat="40.7154776" lon="15.0906978"><ele>976.0</ele><time>2026-04-12T14:30:02.754Z</time></trkpt><trkpt lat="40.7154111" lon="15.090762"><ele>976.0</ele><time>2026-04-12T14:30:03.756Z</time></trkpt><trkpt lat="40.7153439" lon="15.0908004"><ele>975.9999999999999</ele><time>2026-04-12T14:30:04.757Z</time></trkpt><trkpt lat="40.7152752" lon="15.0908371"><ele>976.0</ele><time>2026-04-12T14:30:05.745Z</time></trkpt><trkpt lat="40.715182" lon="15.0909356"><ele>971.1999999999999</ele><time>2026-04-12T14:30:07.752Z</time></trkpt><trkpt lat="40.7151842" lon="15.0910919"><ele>966.3999999999999</ele><time>2026-04-12T14:30:09.752Z</time></trkpt><trkpt lat="40.7151811" lon="15.091228"><ele>961.6</ele><time>2026-04-12T14:30:11.744Z</time></trkpt><trkpt lat="40.7151651" lon="15.091327"><ele>956.8</ele><time>2026-04-12T14:30:13.749Z</time></trkpt><trkpt lat="40.7150776" lon="15.0913823"><ele>952.0</ele><time>2026-04-12T14:30:15.735Z</time></trkpt><trkpt lat="40.7149733" lon="15.0913877"><ele>951.9999999999999</ele><time>2026-04-12T14:30:17.75Z</time></trkpt><trkpt lat="40.7148802" lon="15.0914357"><ele>952.0</ele><time>2026-04-12T14:30:19.759Z</time></trkpt><trkpt lat="40.714833" lon="15.0914979"><ele>952.0</ele><time>2026-04-12T14:30:20.751Z</time></trkpt><trkpt lat="40.7147637" lon="15.0915883"><ele>952.0</ele><time>2026-04-12T14:30:22.756Z</time></trkpt><trkpt lat="40.7147118" lon="15.0916368"><ele>951.9999999999999</ele><time>2026-04-12T14:30:49.732Z</time></trkpt><trkpt lat="40.7146444" lon="15.0916999"><ele>952.0</ele><time>2026-04-12T14:31:04.738Z</time></trkpt><trkpt lat="40.7145658" lon="15.0917775"><ele>956.4999999999999</ele><time>2026-04-12T14:31:07.741Z</time></trkpt><trkpt lat="40.7145721" lon="15.0919112"><ele>961.0</ele><time>2026-04-12T14:31:09.74Z</time></trkpt><trkpt lat="40.7146205" lon="15.0920334"><ele>965.5</ele><time>2026-04-12T14:31:11.737Z</time></trkpt><trkpt lat="40.7146571" lon="15.0921122"><ele>970.0</ele><time>2026-04-12T14:31:13.731Z</time></trkpt><trkpt lat="40.7146926" lon="15.0920258"><ele>974.4999999999999</ele><time>2026-04-12T14:31:22.737Z</time></trkpt><trkpt lat="40.7146743" lon="15.0919436"><ele>979.0</ele><time>2026-04-12T14:31:26.741Z</time></trkpt><trkpt lat="40.7146225" lon="15.0918294"><ele>978.9999999999999</ele><time>2026-04-12T14:31:30.744Z</time></trkpt><trkpt lat="40.7145458" lon="15.0918106"><ele>979.0</ele><time>2026-04-12T14:31:32.75Z</time></trkpt><trkpt lat="40.714421" lon="15.0918113"><ele>979.0</ele><time>2026-04-12T14:31:34.742Z</time></trkpt><trkpt lat="40.7143493" lon="15.0917998"><ele>979.0</ele><time>2026-04-12T14:31:35.743Z</time></trkpt><trkpt lat="40.7142759" lon="15.0917964"><ele>978.9999999999999</ele><time>2026-04-12T14:31:36.743Z</time></trkpt><trkpt lat="40.7142096" lon="15.0918043"><ele>979.0</ele><time>2026-04-12T14:31:37.737Z</time></trkpt><trkpt lat="40.7141115" lon="15.0918155"><ele>976.6666666666666</ele><time>2026-04-12T14:31:38.739Z</time></trkpt><trkpt lat="40.7140087" lon="15.0918237"><ele>974.3333333333333</ele><time>2026-04-12T14:31:39.733Z</time></trkpt><trkpt lat="40.7139182" lon="15.0918199"><ele>972.0</ele><time>2026-04-12T14:31:40.748Z</time></trkpt><trkpt lat="40.7138414" lon="15.0918227"><ele>969.6666666666667</ele><time>2026-04-12T14:31:41.74Z</time></trkpt><trkpt lat="40.7137733" lon="15.0917989"><ele>967.3333333333334</ele><time>2026-04-12T14:31:42.743Z</time></trkpt><trkpt lat="40.7136937" lon="15.0917709"><ele>965.0</ele><time>2026-04-12T14:31:43.741Z</time></trkpt><trkpt lat="40.7136233" lon="15.0917566"><ele>965.5000000000001</ele><time>2026-04-12T14:31:44.743Z</time></trkpt><trkpt lat="40.7135431" lon="15.0917735"><ele>966.0</ele><time>2026-04-12T14:31:45.738Z</time></trkpt><trkpt lat="40.7134728" lon="15.0917744"><ele>966.5</ele><time>2026-04-12T14:31:46.742Z</time></trkpt><trkpt lat="40.7133724" lon="15.0917727"><ele>967.0</ele><time>2026-04-12T14:31:48.74Z</time></trkpt><trkpt lat="40.7132976" lon="15.0917618"><ele>967.5000000000001</ele><time>2026-04-12T14:31:49.731Z</time></trkpt><trkpt lat="40.7132352" lon="15.0917473"><ele>968.0</ele><time>2026-04-12T14:31:50.733Z</time></trkpt><trkpt lat="40.7131599" lon="15.0917419"><ele>968.0000000000001</ele><time>2026-04-12T14:31:51.738Z</time></trkpt><trkpt lat="40.7130489" lon="15.0917676"><ele>968.0</ele><time>2026-04-12T14:31:53.737Z</time></trkpt><trkpt lat="40.7129787" lon="15.0917611"><ele>968.0</ele><time>2026-04-12T14:31:54.738Z</time></trkpt><trkpt lat="40.7129123" lon="15.0917604"><ele>968.0</ele><time>2026-04-12T14:31:55.737Z</time></trkpt><trkpt lat="40.7127843" lon="15.0917298"><ele>968.0000000000001</ele><time>2026-04-12T14:31:57.735Z</time></trkpt><trkpt lat="40.7127211" lon="15.091721"><ele>968.0</ele><time>2026-04-12T14:31:58.745Z</time></trkpt><trkpt lat="40.7126139" lon="15.0916994"><ele>969.5000000000001</ele><time>2026-04-12T14:32:00.736Z</time></trkpt><trkpt lat="40.7125473" lon="15.0916596"><ele>971.0</ele><time>2026-04-12T14:32:02.738Z</time></trkpt><trkpt lat="40.7125714" lon="15.0915151"><ele>972.5</ele><time>2026-04-12T14:32:10.742Z</time></trkpt><trkpt lat="40.712546" lon="15.0913992"><ele>974.0</ele><time>2026-04-12T14:32:12.742Z</time></trkpt><trkpt lat="40.7124925" lon="15.0913098"><ele>975.5000000000001</ele><time>2026-04-12T14:32:14.749Z</time></trkpt><trkpt lat="40.7125016" lon="15.0912008"><ele>977.0</ele><time>2026-04-12T14:32:16.738Z</time></trkpt><trkpt lat="40.7125087" lon="15.0910887"><ele>977.0</ele><time>2026-04-12T14:32:18.738Z</time></trkpt><trkpt lat="40.7125238" lon="15.0909422"><ele>977.0</ele><time>2026-04-12T14:32:20.732Z</time></trkpt><trkpt lat="40.7125312" lon="15.0908263"><ele>977.0</ele><time>2026-04-12T14:32:22.73Z</time></trkpt><trkpt lat="40.7125405" lon="15.09071"><ele>977.0</ele><time>2026-04-12T14:32:24.734Z</time></trkpt><trkpt lat="40.712542" lon="15.0905789"><ele>977.0</ele><time>2026-04-12T14:32:26.73Z</time></trkpt><trkpt lat="40.7125573" lon="15.0904499"><ele>978.6</ele><time>2026-04-12T14:32:28.731Z</time></trkpt><trkpt lat="40.7125631" lon="15.090274"><ele>980.2</ele><time>2026-04-12T14:32:30.732Z</time></trkpt><trkpt lat="40.712569" lon="15.0901871"><ele>981.8</ele><time>2026-04-12T14:32:31.731Z</time></trkpt><trkpt lat="40.7125763" lon="15.0900273"><ele>983.4</ele><time>2026-04-12T14:32:33.731Z</time></trkpt><trkpt lat="40.7125599" lon="15.0899428"><ele>985.0</ele><time>2026-04-12T14:32:34.728Z</time></trkpt><trkpt lat="40.7125226" lon="15.0898042"><ele>981.8</ele><time>2026-04-12T14:32:36.726Z</time></trkpt><trkpt lat="40.7124992" lon="15.0896685"><ele>978.6</ele><time>2026-04-12T14:32:38.732Z</time></trkpt><trkpt lat="40.7124818" lon="15.0895209"><ele>975.4000000000001</ele><time>2026-04-12T14:32:40.733Z</time></trkpt><trkpt lat="40.7124589" lon="15.0894203"><ele>972.2</ele><time>2026-04-12T14:32:42.726Z</time></trkpt><trkpt lat="40.7123686" lon="15.0893853"><ele>969.0</ele><time>2026-04-12T14:32:44.727Z</time></trkpt><trkpt lat="40.7123039" lon="15.0893518"><ele>969.0</ele><time>2026-04-12T14:32:45.729Z</time></trkpt><trkpt lat="40.7122169" lon="15.0893197"><ele>969.0</ele><time>2026-04-12T14:32:46.737Z</time></trkpt><trkpt lat="40.7121444" lon="15.0892933"><ele>969.0</ele><time>2026-04-12T14:32:47.73Z</time></trkpt><trkpt lat="40.7120601" lon="15.0893045"><ele>969.0</ele><time>2026-04-12T14:32:48.742Z</time></trkpt><trkpt lat="40.711989" lon="15.0892964"><ele>969.0</ele><time>2026-04-12T14:32:49.736Z</time></trkpt><trkpt lat="40.711877" lon="15.0892899"><ele>969.0</ele><time>2026-04-12T14:32:51.735Z</time></trkpt><trkpt lat="40.711798" lon="15.0892274"><ele>971.0</ele><time>2026-04-12T14:32:53.726Z</time></trkpt><trkpt lat="40.7117386" lon="15.0891716"><ele>973.0</ele><time>2026-04-12T14:33:14.74Z</time></trkpt><trkpt lat="40.7116817" lon="15.0891093"><ele>975.0</ele><time>2026-04-12T14:33:37.74Z</time></trkpt><trkpt lat="40.7116299" lon="15.0890556"><ele>977.0</ele><time>2026-04-12T14:33:47.746Z</time></trkpt><trkpt lat="40.7116821" lon="15.0891106"><ele>979.0</ele><time>2026-04-12T14:33:52.763Z</time></trkpt><trkpt lat="40.7117377" lon="15.0891623"><ele>981.0</ele><time>2026-04-12T14:33:54.752Z</time></trkpt><trkpt lat="40.7118141" lon="15.0892821"><ele>978.5999999999999</ele><time>2026-04-12T14:33:56.748Z</time></trkpt><trkpt lat="40.7118989" lon="15.0893737"><ele>976.1999999999999</ele><time>2026-04-12T14:33:57.74Z</time></trkpt><trkpt lat="40.7119726" lon="15.0894601"><ele>973.8000000000001</ele><time>2026-04-12T14:33:58.755Z</time></trkpt><trkpt lat="40.7120505" lon="15.0895682"><ele>971.4000000000001</ele><time>2026-04-12T14:33:59.766Z</time></trkpt><trkpt lat="40.7121245" lon="15.0896434"><ele>969.0</ele><time>2026-04-12T14:34:00.748Z</time></trkpt><trkpt lat="40.712196" lon="15.0897041"><ele>969.0</ele><time>2026-04-12T14:34:01.756Z</time></trkpt><trkpt lat="40.7122749" lon="15.0897721"><ele>969.0</ele><time>2026-04-12T14:34:02.748Z</time></trkpt><trkpt lat="40.7123391" lon="15.0898426"><ele>969.0</ele><time>2026-04-12T14:34:03.745Z</time></trkpt><trkpt lat="40.7123748" lon="15.0899124"><ele>969.0</ele><time>2026-04-12T14:34:04.74Z</time></trkpt><trkpt lat="40.712411" lon="15.0900104"><ele>969.0</ele><time>2026-04-12T14:34:06.751Z</time></trkpt><trkpt lat="40.7123928" lon="15.090091"><ele>969.0</ele><time>2026-04-12T14:34:08.742Z</time></trkpt><trkpt lat="40.7123544" lon="15.0901616"><ele>970.142857142857</ele><time>2026-04-12T14:34:10.747Z</time></trkpt><trkpt lat="40.7123298" lon="15.0902446"><ele>971.2857142857142</ele><time>2026-04-12T14:34:12.747Z</time></trkpt><trkpt lat="40.7123098" lon="15.0903408"><ele>972.4285714285714</ele><time>2026-04-12T14:34:14.758Z</time></trkpt><trkpt lat="40.7122845" lon="15.0904643"><ele>973.5714285714286</ele><time>2026-04-12T14:34:17.777Z</time></trkpt><trkpt lat="40.7122786" lon="15.0905578"><ele>974.7142857142858</ele><time>2026-04-12T14:34:19.764Z</time></trkpt><trkpt lat="40.7122635" lon="15.0906416"><ele>975.857142857143</ele><time>2026-04-12T14:34:21.766Z</time></trkpt><trkpt lat="40.7122359" lon="15.0907262"><ele>977.0000000000001</ele><time>2026-04-12T14:34:23.758Z</time></trkpt><trkpt lat="40.7122093" lon="15.0908086"><ele>977.0</ele><time>2026-04-12T14:34:25.755Z</time></trkpt><trkpt lat="40.7121842" lon="15.0909428"><ele>977.0</ele><time>2026-04-12T14:34:28.756Z</time></trkpt><trkpt lat="40.7121704" lon="15.0910985"><ele>977.0</ele><time>2026-04-12T14:34:30.761Z</time></trkpt><trkpt lat="40.7121655" lon="15.0913041"><ele>977.0</ele><time>2026-04-12T14:34:33.762Z</time></trkpt><trkpt lat="40.7121668" lon="15.0914069"><ele>977.0000000000001</ele><time>2026-04-12T14:34:35.76Z</time></trkpt><trkpt lat="40.7121812" lon="15.0915039"><ele>977.0</ele><time>2026-04-12T14:34:37.76Z</time></trkpt><trkpt lat="40.7121995" lon="15.091606"><ele>977.0</ele><time>2026-04-12T14:34:39.749Z</time></trkpt><trkpt lat="40.7122314" lon="15.0916939"><ele>977.0</ele><time>2026-04-12T14:34:41.754Z</time></trkpt><trkpt lat="40.7122732" lon="15.0917823"><ele>977.0000000000001</ele><time>2026-04-12T14:34:43.752Z</time></trkpt><trkpt lat="40.7122975" lon="15.0918862"><ele>977.0</ele><time>2026-04-12T14:34:45.75Z</time></trkpt><trkpt lat="40.7123383" lon="15.0920052"><ele>977.2</ele><time>2026-04-12T14:34:47.753Z</time></trkpt><trkpt lat="40.7123788" lon="15.0920954"><ele>977.4000000000001</ele><time>2026-04-12T14:34:49.738Z</time></trkpt><trkpt lat="40.7124058" lon="15.0921949"><ele>977.5999999999999</ele><time>2026-04-12T14:34:52.74Z</time></trkpt><trkpt lat="40.7124915" lon="15.0922269"><ele>977.8</ele><time>2026-04-12T14:34:54.755Z</time></trkpt><trkpt lat="40.712623" lon="15.0922016"><ele>978.0</ele><time>2026-04-12T14:34:56.758Z</time></trkpt><trkpt lat="40.7127005" lon="15.0921758"><ele>976.0</ele><time>2026-04-12T14:34:57.751Z</time></trkpt><trkpt lat="40.7127686" lon="15.0921346"><ele>974.0</ele><time>2026-04-12T14:34:58.76Z</time></trkpt><trkpt lat="40.7128493" lon="15.0920959"><ele>972.0</ele><time>2026-04-12T14:34:59.758Z</time></trkpt><trkpt lat="40.7129358" lon="15.0920642"><ele>970.0</ele><time>2026-04-12T14:35:00.747Z</time></trkpt><trkpt lat="40.7130403" lon="15.0920283"><ele>968.0</ele><time>2026-04-12T14:35:01.755Z</time></trkpt><trkpt lat="40.7131382" lon="15.0919982"><ele>968.0000000000001</ele><time>2026-04-12T14:35:02.755Z</time></trkpt><trkpt lat="40.7132335" lon="15.0919802"><ele>968.0</ele><time>2026-04-12T14:35:03.76Z</time></trkpt><trkpt lat="40.7133126" lon="15.0919642"><ele>968.0</ele><time>2026-04-12T14:35:04.752Z</time></trkpt><trkpt lat="40.7133815" lon="15.0919653"><ele>968.0</ele><time>2026-04-12T14:35:05.755Z</time></trkpt><trkpt lat="40.7134772" lon="15.0919827"><ele>968.0000000000001</ele><time>2026-04-12T14:35:07.754Z</time></trkpt><trkpt lat="40.7135645" lon="15.0920141"><ele>968.0</ele><time>2026-04-12T14:35:09.762Z</time></trkpt><trkpt lat="40.713663" lon="15.0920607"><ele>967.4</ele><time>2026-04-12T14:35:11.749Z</time></trkpt><trkpt lat="40.7137529" lon="15.0921004"><ele>966.8</ele><time>2026-04-12T14:35:13.749Z</time></trkpt><trkpt lat="40.7138257" lon="15.0921173"><ele>966.2</ele><time>2026-04-12T14:35:15.734Z</time></trkpt><trkpt lat="40.7139192" lon="15.0921322"><ele>965.6</ele><time>2026-04-12T14:35:17.729Z</time></trkpt><trkpt lat="40.7140259" lon="15.0920647"><ele>965.0</ele><time>2026-04-12T14:35:19.749Z</time></trkpt><trkpt lat="40.7141215" lon="15.0920043"><ele>965.0000000000001</ele><time>2026-04-12T14:35:21.737Z</time></trkpt><trkpt lat="40.714217" lon="15.0919873"><ele>965.0</ele><time>2026-04-12T14:35:23.729Z</time></trkpt><trkpt lat="40.7143025" lon="15.0919825"><ele>965.0</ele><time>2026-04-12T14:35:25.74Z</time></trkpt><trkpt lat="40.7143828" lon="15.0919869"><ele>965.0</ele><time>2026-04-12T14:35:27.742Z</time></trkpt><trkpt lat="40.714465" lon="15.0919934"><ele>965.0000000000001</ele><time>2026-04-12T14:35:29.744Z</time></trkpt><trkpt lat="40.7145406" lon="15.0920345"><ele>965.0</ele><time>2026-04-12T14:35:32.746Z</time></trkpt><trkpt lat="40.7146201" lon="15.0920394"><ele>967.3333333333334</ele><time>2026-04-12T14:35:39.749Z</time></trkpt><trkpt lat="40.7146892" lon="15.092066"><ele>969.6666666666667</ele><time>2026-04-12T14:35:43.74Z</time></trkpt><trkpt lat="40.7147462" lon="15.0919817"><ele>972.0</ele><time>2026-04-12T14:35:47.739Z</time></trkpt><trkpt lat="40.7147661" lon="15.0918871"><ele>974.3333333333333</ele><time>2026-04-12T14:35:49.743Z</time></trkpt><trkpt lat="40.7148135" lon="15.0917836"><ele>976.6666666666666</ele><time>2026-04-12T14:35:51.74Z</time></trkpt><trkpt lat="40.7149225" lon="15.0917189"><ele>979.0</ele><time>2026-04-12T14:35:53.737Z</time></trkpt><trkpt lat="40.7150324" lon="15.0916374"><ele>982.6666666666666</ele><time>2026-04-12T14:35:55.736Z</time></trkpt><trkpt lat="40.715084" lon="15.0915865"><ele>986.3333333333333</ele><time>2026-04-12T14:35:56.729Z</time></trkpt><trkpt lat="40.7151876" lon="15.0915354"><ele>990.0</ele><time>2026-04-12T14:35:58.729Z</time></trkpt><trkpt lat="40.7152948" lon="15.0914894"><ele>993.6666666666667</ele><time>2026-04-12T14:36:00.745Z</time></trkpt><trkpt lat="40.7153601" lon="15.0914423"><ele>997.3333333333334</ele><time>2026-04-12T14:36:02.741Z</time></trkpt><trkpt lat="40.715411" lon="15.09137"><ele>1001.0</ele><time>2026-04-12T14:36:05.749Z</time></trkpt><trkpt lat="40.71547" lon="15.0912771"><ele>1001.0</ele><time>2026-04-12T14:36:08.738Z</time></trkpt><trkpt lat="40.715537" lon="15.0911883"><ele>1000.9999999999999</ele><time>2026-04-12T14:36:10.738Z</time></trkpt><trkpt lat="40.7156238" lon="15.0911266"><ele>1000.9999999999999</ele><time>2026-04-12T14:36:12.744Z</time></trkpt><trkpt lat="40.7157102" lon="15.0910389"><ele>1001.0</ele><time>2026-04-12T14:36:14.75Z</time></trkpt><trkpt lat="40.7157577" lon="15.0909728"><ele>1001.0</ele><time>2026-04-12T14:36:15.76Z</time></trkpt><trkpt lat="40.715837" lon="15.0908856"><ele>1001.0000000000001</ele><time>2026-04-12T14:36:17.749Z</time></trkpt><trkpt lat="40.7158841" lon="15.0907953"><ele>1001.0</ele><time>2026-04-12T14:36:19.744Z</time></trkpt><trkpt lat="40.7159143" lon="15.0907217"><ele>1001.0</ele><time>2026-04-12T14:36:20.738Z</time></trkpt><trkpt lat="40.7159382" lon="15.0906268"><ele>1001.0</ele><time>2026-04-12T14:36:21.739Z</time></trkpt><trkpt lat="40.7159544" lon="15.0904563"><ele>1001.0000000000001</ele><time>2026-04-12T14:36:23.737Z</time></trkpt><trkpt lat="40.7159727" lon="15.0903742"><ele>1001.0</ele><time>2026-04-12T14:36:24.733Z</time></trkpt><trkpt lat="40.7159933" lon="15.0902896"><ele>1000.1428571428571</ele><time>2026-04-12T14:36:25.725Z</time></trkpt><trkpt lat="40.7160158" lon="15.0901996"><ele>999.2857142857142</ele><time>2026-04-12T14:36:26.742Z</time></trkpt><trkpt lat="40.7160233" lon="15.0901068"><ele>998.4285714285714</ele><time>2026-04-12T14:36:27.754Z</time></trkpt><trkpt lat="40.7160465" lon="15.0900268"><ele>997.5714285714286</ele><time>2026-04-12T14:36:28.74Z</time></trkpt><trkpt lat="40.7160652" lon="15.089928"><ele>996.7142857142857</ele><time>2026-04-12T14:36:29.737Z</time></trkpt><trkpt lat="40.7160912" lon="15.0898315"><ele>995.8571428571429</ele><time>2026-04-12T14:36:30.747Z</time></trkpt><trkpt lat="40.7161157" lon="15.08974"><ele>995.0</ele><time>2026-04-12T14:36:31.742Z</time></trkpt><trkpt lat="40.7161608" lon="15.0896714"><ele>995.0000000000001</ele><time>2026-04-12T14:36:32.743Z</time></trkpt><trkpt lat="40.7162083" lon="15.0896167"><ele>995.0</ele><time>2026-04-12T14:36:33.748Z</time></trkpt><trkpt lat="40.7162918" lon="15.0895536"><ele>995.0</ele><time>2026-04-12T14:36:35.75Z</time></trkpt><trkpt lat="40.7163804" lon="15.0896052"><ele>995.0</ele><time>2026-04-12T14:36:37.739Z</time></trkpt><trkpt lat="40.7164677" lon="15.0896067"><ele>995.0000000000001</ele><time>2026-04-12T14:36:39.753Z</time></trkpt><trkpt lat="40.7165405" lon="15.0895431"><ele>995.0</ele><time>2026-04-12T14:36:41.754Z</time></trkpt><trkpt lat="40.7166099" lon="15.0894932"><ele>995.0000000000001</ele><time>2026-04-12T14:36:43.738Z</time></trkpt><trkpt lat="40.7166917" lon="15.0894786"><ele>995.0</ele><time>2026-04-12T14:36:45.743Z</time></trkpt><trkpt lat="40.7167965" lon="15.089431"><ele>995.0</ele><time>2026-04-12T14:36:47.749Z</time></trkpt><trkpt lat="40.7169047" lon="15.0893533"><ele>995.0</ele><time>2026-04-12T14:36:49.744Z</time></trkpt><trkpt lat="40.7169571" lon="15.0893024"><ele>995.0000000000001</ele><time>2026-04-12T14:36:50.734Z</time></trkpt><trkpt lat="40.7170116" lon="15.0892506"><ele>995.0</ele><time>2026-04-12T14:36:51.741Z</time></trkpt><trkpt lat="40.7170598" lon="15.0891811"><ele>999.5000000000001</ele><time>2026-04-12T14:36:52.748Z</time></trkpt><trkpt lat="40.7171154" lon="15.089121"><ele>1004.0</ele><time>2026-04-12T14:36:53.733Z</time></trkpt><trkpt lat="40.7171856" lon="15.089049"><ele>1008.5</ele><time>2026-04-12T14:36:54.738Z</time></trkpt><trkpt lat="40.7172564" lon="15.0889915"><ele>1013.0</ele><time>2026-04-12T14:36:55.737Z</time></trkpt><trkpt lat="40.717326" lon="15.0889422"><ele>1017.5000000000001</ele><time>2026-04-12T14:36:56.744Z</time></trkpt><trkpt lat="40.7173862" lon="15.0889001"><ele>1022.0</ele><time>2026-04-12T14:36:57.742Z</time></trkpt><trkpt lat="40.7174621" lon="15.0888726"><ele>1022.0000000000001</ele><time>2026-04-12T14:36:59.747Z</time></trkpt><trkpt lat="40.7175309" lon="15.0888763"><ele>1022.0</ele><time>2026-04-12T14:37:01.742Z</time></trkpt><trkpt lat="40.7176781" lon="15.0888804"><ele>1022.0</ele><time>2026-04-12T14:37:11.743Z</time></trkpt><trkpt lat="40.7177416" lon="15.0888281"><ele>1022.0</ele><time>2026-04-12T14:37:14.744Z</time></trkpt><trkpt lat="40.7178144" lon="15.0888024"><ele>1022.0000000000001</ele><time>2026-04-12T14:37:21.739Z</time></trkpt><trkpt lat="40.7178887" lon="15.0887689"><ele>1022.0</ele><time>2026-04-12T14:37:25.733Z</time></trkpt><trkpt lat="40.7179277" lon="15.0886896"><ele>1019.1666666666667</ele><time>2026-04-12T14:37:29.733Z</time></trkpt><trkpt lat="40.7179722" lon="15.0886208"><ele>1016.3333333333334</ele><time>2026-04-12T14:37:32.741Z</time></trkpt><trkpt lat="40.7180478" lon="15.0885787"><ele>1013.5</ele><time>2026-04-12T14:37:35.732Z</time></trkpt><trkpt lat="40.7181176" lon="15.0885674"><ele>1010.6666666666667</ele><time>2026-04-12T14:37:42.73Z</time></trkpt><trkpt lat="40.7181969" lon="15.0885743"><ele>1007.8333333333334</ele><time>2026-04-12T14:37:46.729Z</time></trkpt><trkpt lat="40.7182502" lon="15.0886214"><ele>1005.0</ele><time>2026-04-12T14:37:49.732Z</time></trkpt><trkpt lat="40.7183601" lon="15.0887327"><ele>1005.0</ele><time>2026-04-12T14:37:56.728Z</time></trkpt><trkpt lat="40.7184221" lon="15.0887635"><ele>1005.0</ele><time>2026-04-12T14:38:01.735Z</time></trkpt><trkpt lat="40.7184737" lon="15.0886844"><ele>1005.0</ele><time>2026-04-12T14:38:07.745Z</time></trkpt><trkpt lat="40.7185071" lon="15.0885678"><ele>1005.0</ele><time>2026-04-12T14:38:09.754Z</time></trkpt><trkpt lat="40.7185433" lon="15.0884604"><ele>1005.0</ele><time>2026-04-12T14:38:11.744Z</time></trkpt><trkpt lat="40.7185627" lon="15.0883722"><ele>1005.0</ele><time>2026-04-12T14:38:13.754Z</time></trkpt><trkpt lat="40.7185801" lon="15.0882785"><ele>1005.1666666666666</ele><time>2026-04-12T14:38:15.745Z</time></trkpt><trkpt lat="40.7186094" lon="15.0881774"><ele>1005.3333333333333</ele><time>2026-04-12T14:38:18.749Z</time></trkpt><trkpt lat="40.7186335" lon="15.0880718"><ele>1005.5</ele><time>2026-04-12T14:38:20.758Z</time></trkpt><trkpt lat="40.7186511" lon="15.0879367"><ele>1005.6666666666666</ele><time>2026-04-12T14:38:22.757Z</time></trkpt><trkpt lat="40.7186612" lon="15.0878451"><ele>1005.8333333333333</ele><time>2026-04-12T14:38:23.75Z</time></trkpt><trkpt lat="40.7186785" lon="15.0877077"><ele>1006.0</ele><time>2026-04-12T14:38:25.758Z</time></trkpt><trkpt lat="40.7186876" lon="15.0876155"><ele>1006.0</ele><time>2026-04-12T14:38:26.747Z</time></trkpt><trkpt lat="40.7186817" lon="15.0874961"><ele>1005.9999999999999</ele><time>2026-04-12T14:38:28.76Z</time></trkpt><trkpt lat="40.7186889" lon="15.0873754"><ele>1005.9999999999999</ele><time>2026-04-12T14:38:30.764Z</time></trkpt><trkpt lat="40.7187094" lon="15.087236"><ele>1006.0</ele><time>2026-04-12T14:38:32.754Z</time></trkpt><trkpt lat="40.7187018" lon="15.0871296"><ele>1006.0</ele><time>2026-04-12T14:38:34.764Z</time></trkpt><trkpt lat="40.7187408" lon="15.0870177"><ele>1002.9999999999999</ele><time>2026-04-12T14:38:37.753Z</time></trkpt><trkpt lat="40.7187687" lon="15.086924"><ele>1000.0</ele><time>2026-04-12T14:38:39.768Z</time></trkpt><trkpt lat="40.7187802" lon="15.0868383"><ele>997.0</ele><time>2026-04-12T14:38:41.756Z</time></trkpt><trkpt lat="40.718811" lon="15.086734"><ele>994.0</ele><time>2026-04-12T14:38:44.76Z</time></trkpt><trkpt lat="40.7188798" lon="15.0866742"><ele>990.9999999999999</ele><time>2026-04-12T14:38:47.765Z</time></trkpt><trkpt lat="40.7189547" lon="15.0866192"><ele>988.0</ele><time>2026-04-12T14:38:50.754Z</time></trkpt><trkpt lat="40.7190161" lon="15.0865579"><ele>984.9999999999999</ele><time>2026-04-12T14:38:53.767Z</time></trkpt><trkpt lat="40.7190784" lon="15.086513"><ele>982.0</ele><time>2026-04-12T14:38:56.776Z</time></trkpt><trkpt lat="40.7191376" lon="15.0864505"><ele>979.0</ele><time>2026-04-12T14:38:58.766Z</time></trkpt><trkpt lat="40.7192016" lon="15.086348"><ele>976.0</ele><time>2026-04-12T14:39:00.765Z</time></trkpt><trkpt lat="40.7192376" lon="15.0862311"><ele>972.9999999999999</ele><time>2026-04-12T14:39:02.774Z</time></trkpt><trkpt lat="40.7192849" lon="15.0861267"><ele>970.0</ele><time>2026-04-12T14:39:04.769Z</time></trkpt><trkpt lat="40.7193658" lon="15.0860206"><ele>972.0</ele><time>2026-04-12T14:39:06.769Z</time></trkpt><trkpt lat="40.7194433" lon="15.0859443"><ele>974.0</ele><time>2026-04-12T14:39:08.752Z</time></trkpt><trkpt lat="40.7195128" lon="15.0858792"><ele>976.0</ele><time>2026-04-12T14:39:10.763Z</time></trkpt><trkpt lat="40.7195821" lon="15.0857925"><ele>978.0</ele><time>2026-04-12T14:39:12.771Z</time></trkpt><trkpt lat="40.7196681" lon="15.0857074"><ele>980.0</ele><time>2026-04-12T14:39:14.767Z</time></trkpt><trkpt lat="40.719745" lon="15.0856189"><ele>974.8</ele><time>2026-04-12T14:39:16.773Z</time></trkpt><trkpt lat="40.7198184" lon="15.0854983"><ele>969.6</ele><time>2026-04-12T14:39:18.766Z</time></trkpt><trkpt lat="40.719852" lon="15.0854216"><ele>964.4000000000001</ele><time>2026-04-12T14:39:19.767Z</time></trkpt><trkpt lat="40.7199107" lon="15.0852898"><ele>959.2</ele><time>2026-04-12T14:39:21.757Z</time></trkpt><trkpt lat="40.719954" lon="15.0852233"><ele>954.0</ele><time>2026-04-12T14:39:22.764Z</time></trkpt><trkpt lat="40.7200008" lon="15.0851215"><ele>954.0</ele><time>2026-04-12T14:39:24.761Z</time></trkpt><trkpt lat="40.7200688" lon="15.0851032"><ele>954.0000000000001</ele><time>2026-04-12T14:39:26.769Z</time></trkpt><trkpt lat="40.7201613" lon="15.0850586"><ele>954.0000000000001</ele><time>2026-04-12T14:39:28.758Z</time></trkpt><trkpt lat="40.7202374" lon="15.084961"><ele>954.0</ele><time>2026-04-12T14:39:30.759Z</time></trkpt><trkpt lat="40.7202758" lon="15.0848437"><ele>954.0</ele><time>2026-04-12T14:39:32.757Z</time></trkpt><trkpt lat="40.720313" lon="15.0847435"><ele>950.6666666666666</ele><time>2026-04-12T14:39:34.754Z</time></trkpt><trkpt lat="40.7203655" lon="15.0846924"><ele>947.3333333333333</ele><time>2026-04-12T14:39:36.762Z</time></trkpt><trkpt lat="40.7204475" lon="15.0846442"><ele>944.0</ele><time>2026-04-12T14:39:39.76Z</time></trkpt><trkpt lat="40.7205185" lon="15.0846359"><ele>940.6666666666666</ele><time>2026-04-12T14:39:43.76Z</time></trkpt><trkpt lat="40.7205817" lon="15.0846668"><ele>937.3333333333333</ele><time>2026-04-12T14:39:45.766Z</time></trkpt><trkpt lat="40.7206408" lon="15.0846059"><ele>934.0</ele><time>2026-04-12T14:39:47.773Z</time></trkpt><trkpt lat="40.7207319" lon="15.084537"><ele>933.9999999999999</ele><time>2026-04-12T14:39:49.769Z</time></trkpt><trkpt lat="40.7207897" lon="15.0845012"><ele>934.0</ele><time>2026-04-12T14:39:50.771Z</time></trkpt><trkpt lat="40.7208613" lon="15.0844796"><ele>933.9999999999999</ele><time>2026-04-12T14:39:51.763Z</time></trkpt><trkpt lat="40.7209257" lon="15.0844475"><ele>933.9999999999999</ele><time>2026-04-12T14:39:52.781Z</time></trkpt><trkpt lat="40.7209897" lon="15.0844247"><ele>934.0</ele><time>2026-04-12T14:39:53.782Z</time></trkpt><trkpt lat="40.7210552" lon="15.0844053"><ele>933.9999999999999</ele><time>2026-04-12T14:39:54.763Z</time></trkpt><trkpt lat="40.721123" lon="15.0843661"><ele>933.9999999999999</ele><time>2026-04-12T14:39:55.752Z</time></trkpt><trkpt lat="40.7211888" lon="15.0843261"><ele>936.8000000000001</ele><time>2026-04-12T14:39:56.75Z</time></trkpt><trkpt lat="40.7212465" lon="15.0842858"><ele>939.6000000000001</ele><time>2026-04-12T14:39:57.754Z</time></trkpt><trkpt lat="40.7213482" lon="15.0842274"><ele>942.4</ele><time>2026-04-12T14:39:59.743Z</time></trkpt><trkpt lat="40.7214354" lon="15.084158"><ele>945.2</ele><time>2026-04-12T14:40:01.737Z</time></trkpt><trkpt lat="40.7215279" lon="15.0841234"><ele>948.0</ele><time>2026-04-12T14:40:03.749Z</time></trkpt><trkpt lat="40.7216219" lon="15.0841068"><ele>942.4</ele><time>2026-04-12T14:40:06.75Z</time></trkpt><trkpt lat="40.7216887" lon="15.0840405"><ele>936.8</ele><time>2026-04-12T14:40:08.751Z</time></trkpt><trkpt lat="40.7217328" lon="15.0839295"><ele>931.2</ele><time>2026-04-12T14:40:10.754Z</time></trkpt><trkpt lat="40.7217769" lon="15.083826"><ele>925.6</ele><time>2026-04-12T14:40:12.756Z</time></trkpt><trkpt lat="40.7218384" lon="15.0836924"><ele>920.0</ele><time>2026-04-12T14:40:14.753Z</time></trkpt><trkpt lat="40.7218813" lon="15.0836273"><ele>921.6</ele><time>2026-04-12T14:40:15.762Z</time></trkpt><trkpt lat="40.7219752" lon="15.083511"><ele>923.2</ele><time>2026-04-12T14:40:17.764Z</time></trkpt><trkpt lat="40.7220328" lon="15.0834584"><ele>924.8</ele><time>2026-04-12T14:40:18.755Z</time></trkpt><trkpt lat="40.7221255" lon="15.0833684"><ele>926.4</ele><time>2026-04-12T14:40:20.759Z</time></trkpt><trkpt lat="40.722198" lon="15.0832592"><ele>928.0</ele><time>2026-04-12T14:40:22.765Z</time></trkpt><trkpt lat="40.7222555" lon="15.0831852"><ele>923.6666666666666</ele><time>2026-04-12T14:40:24.76Z</time></trkpt><trkpt lat="40.722331" lon="15.0831182"><ele>919.3333333333333</ele><time>2026-04-12T14:40:26.754Z</time></trkpt><trkpt lat="40.7224043" lon="15.0830348"><ele>915.0</ele><time>2026-04-12T14:40:29.774Z</time></trkpt><trkpt lat="40.7224733" lon="15.0829758"><ele>910.6666666666667</ele><time>2026-04-12T14:40:31.758Z</time></trkpt><trkpt lat="40.7225344" lon="15.0829405"><ele>906.3333333333334</ele><time>2026-04-12T14:40:33.76Z</time></trkpt><trkpt lat="40.7226264" lon="15.0828914"><ele>902.0</ele><time>2026-04-12T14:40:35.752Z</time></trkpt><trkpt lat="40.7227001" lon="15.0828169"><ele>901.5000000000001</ele><time>2026-04-12T14:40:37.752Z</time></trkpt><trkpt lat="40.722748" lon="15.0827557"><ele>901.0</ele><time>2026-04-12T14:40:40.752Z</time></trkpt><trkpt lat="40.7228344" lon="15.0827542"><ele>900.5</ele><time>2026-04-12T14:40:43.75Z</time></trkpt><trkpt lat="40.7229066" lon="15.0827446"><ele>900.0</ele><time>2026-04-12T14:40:45.746Z</time></trkpt><trkpt lat="40.7229882" lon="15.0827278"><ele>899.5000000000001</ele><time>2026-04-12T14:40:47.751Z</time></trkpt><trkpt lat="40.7230702" lon="15.0827288"><ele>899.0</ele><time>2026-04-12T14:40:49.742Z</time></trkpt><trkpt lat="40.7231444" lon="15.0827213"><ele>899.0</ele><time>2026-04-12T14:40:51.743Z</time></trkpt><trkpt lat="40.7232199" lon="15.0827166"><ele>899.0000000000001</ele><time>2026-04-12T14:40:53.743Z</time></trkpt><trkpt lat="40.7233101" lon="15.0826722"><ele>899.0000000000001</ele><time>2026-04-12T14:40:55.769Z</time></trkpt><trkpt lat="40.7234" lon="15.0825935"><ele>899.0</ele><time>2026-04-12T14:40:57.753Z</time></trkpt><trkpt lat="40.7234978" lon="15.0825136"><ele>899.0</ele><time>2026-04-12T14:40:59.76Z</time></trkpt><trkpt lat="40.7235673" lon="15.0824818"><ele>897.0</ele><time>2026-04-12T14:41:00.759Z</time></trkpt><trkpt lat="40.7236573" lon="15.0824254"><ele>895.0000000000001</ele><time>2026-04-12T14:41:02.745Z</time></trkpt><trkpt lat="40.723738" lon="15.0825"><ele>893.0000000000001</ele><time>2026-04-12T14:41:06.77Z</time></trkpt><trkpt lat="40.7237885" lon="15.0826191"><ele>891.0</ele><time>2026-04-12T14:41:08.754Z</time></trkpt><trkpt lat="40.7238574" lon="15.0826633"><ele>889.0</ele><time>2026-04-12T14:41:10.752Z</time></trkpt><trkpt lat="40.7239334" lon="15.0826349"><ele>889.0</ele><time>2026-04-12T14:41:12.734Z</time></trkpt><trkpt lat="40.7240217" lon="15.0825722"><ele>889.0000000000001</ele><time>2026-04-12T14:41:18.76Z</time></trkpt><trkpt lat="40.7240796" lon="15.0825109"><ele>889.0000000000001</ele><time>2026-04-12T14:41:20.778Z</time></trkpt><trkpt lat="40.7241692" lon="15.0823634"><ele>889.0</ele><time>2026-04-12T14:41:22.782Z</time></trkpt><trkpt lat="40.7242103" lon="15.082247"><ele>889.0</ele><time>2026-04-12T14:41:23.755Z</time></trkpt><trkpt lat="40.7242651" lon="15.08214"><ele>888.9999999999999</ele><time>2026-04-12T14:41:24.764Z</time></trkpt><trkpt lat="40.7243182" lon="15.0820317"><ele>889.0</ele><time>2026-04-12T14:41:25.757Z</time></trkpt><trkpt lat="40.7243661" lon="15.0819348"><ele>889.0</ele><time>2026-04-12T14:41:26.746Z</time></trkpt><trkpt lat="40.7244072" lon="15.0818535"><ele>889.0</ele><time>2026-04-12T14:41:27.753Z</time></trkpt><trkpt lat="40.724446" lon="15.0817792"><ele>888.9999999999999</ele><time>2026-04-12T14:41:28.769Z</time></trkpt><trkpt lat="40.7245029" lon="15.0816496"><ele>889.0</ele><time>2026-04-12T14:41:30.752Z</time></trkpt><trkpt lat="40.7245683" lon="15.0815507"><ele>889.9999999999999</ele><time>2026-04-12T14:41:32.758Z</time></trkpt><trkpt lat="40.7246398" lon="15.0814451"><ele>891.0</ele><time>2026-04-12T14:41:34.764Z</time></trkpt><trkpt lat="40.7246677" lon="15.0813706"><ele>892.0</ele><time>2026-04-12T14:41:35.746Z</time></trkpt><trkpt lat="40.7246972" lon="15.0812947"><ele>893.0</ele><time>2026-04-12T14:41:36.75Z</time></trkpt><trkpt lat="40.7247315" lon="15.0811595"><ele>893.9999999999999</ele><time>2026-04-12T14:41:38.751Z</time></trkpt><trkpt lat="40.7247646" lon="15.0810394"><ele>895.0</ele><time>2026-04-12T14:41:40.749Z</time></trkpt><trkpt lat="40.7247829" lon="15.0809443"><ele>895.0</ele><time>2026-04-12T14:41:42.741Z</time></trkpt><trkpt lat="40.7247927" lon="15.0808485"><ele>895.0</ele><time>2026-04-12T14:41:45.753Z</time></trkpt><trkpt lat="40.7247169" lon="15.0807999"><ele>895.0</ele><time>2026-04-12T14:41:47.747Z</time></trkpt><trkpt lat="40.7246547" lon="15.0807783"><ele>895.0</ele><time>2026-04-12T14:41:48.74Z</time></trkpt><trkpt lat="40.7246009" lon="15.0808232"><ele>895.0</ele><time>2026-04-12T14:41:49.735Z</time></trkpt><trkpt lat="40.7245478" lon="15.0808814"><ele>895.0</ele><time>2026-04-12T14:41:50.731Z</time></trkpt><trkpt lat="40.724494" lon="15.0809433"><ele>895.0</ele><time>2026-04-12T14:41:51.733Z</time></trkpt><trkpt lat="40.724442" lon="15.0810128"><ele>890.6</ele><time>2026-04-12T14:41:52.739Z</time></trkpt><trkpt lat="40.7243828" lon="15.0810776"><ele>886.2</ele><time>2026-04-12T14:41:53.744Z</time></trkpt><trkpt lat="40.7243023" lon="15.0811493"><ele>881.8</ele><time>2026-04-12T14:41:54.736Z</time></trkpt><trkpt lat="40.7242141" lon="15.0812258"><ele>877.4</ele><time>2026-04-12T14:41:55.734Z</time></trkpt><trkpt lat="40.7241294" lon="15.0813142"><ele>873.0</ele><time>2026-04-12T14:41:56.737Z</time></trkpt><trkpt lat="40.7240461" lon="15.0813998"><ele>873.0</ele><time>2026-04-12T14:41:57.73Z</time></trkpt><trkpt lat="40.723975" lon="15.0814727"><ele>873.0</ele><time>2026-04-12T14:41:58.729Z</time></trkpt><trkpt lat="40.7239218" lon="15.0815324"><ele>873.0</ele><time>2026-04-12T14:41:59.738Z</time></trkpt><trkpt lat="40.7238553" lon="15.0815907"><ele>873.0</ele><time>2026-04-12T14:42:01.729Z</time></trkpt><trkpt lat="40.7237814" lon="15.0815486"><ele>873.0</ele><time>2026-04-12T14:42:03.739Z</time></trkpt><trkpt lat="40.7237047" lon="15.0815264"><ele>873.0</ele><time>2026-04-12T14:42:05.763Z</time></trkpt><trkpt lat="40.7236457" lon="15.081585"><ele>875.2</ele><time>2026-04-12T14:42:07.746Z</time></trkpt><trkpt lat="40.7235467" lon="15.0816498"><ele>877.4</ele><time>2026-04-12T14:42:09.743Z</time></trkpt><trkpt lat="40.7234786" lon="15.0816513"><ele>879.6000000000001</ele><time>2026-04-12T14:42:10.75Z</time></trkpt><trkpt lat="40.7233751" lon="15.0817"><ele>881.8000000000001</ele><time>2026-04-12T14:42:11.747Z</time></trkpt><trkpt lat="40.7232668" lon="15.0817537"><ele>884.0</ele><time>2026-04-12T14:42:12.749Z</time></trkpt><trkpt lat="40.7231579" lon="15.081815"><ele>884.0000000000001</ele><time>2026-04-12T14:42:13.746Z</time></trkpt><trkpt lat="40.7230717" lon="15.0818539"><ele>884.0</ele><time>2026-04-12T14:42:14.753Z</time></trkpt><trkpt lat="40.7230784" lon="15.0817556"><ele>884.0</ele><time>2026-04-12T14:42:20.743Z</time></trkpt><trkpt lat="40.7231061" lon="15.0816714"><ele>884.0</ele><time>2026-04-12T14:42:21.74Z</time></trkpt><trkpt lat="40.7231216" lon="15.08158"><ele>884.0000000000001</ele><time>2026-04-12T14:42:22.746Z</time></trkpt><trkpt lat="40.7231225" lon="15.0814821"><ele>884.0</ele><time>2026-04-12T14:42:23.74Z</time></trkpt><trkpt lat="40.7231099" lon="15.081383"><ele>884.4285714285714</ele><time>2026-04-12T14:42:24.738Z</time></trkpt><trkpt lat="40.7230914" lon="15.0812891"><ele>884.8571428571429</ele><time>2026-04-12T14:42:25.741Z</time></trkpt><trkpt lat="40.7230925" lon="15.0812032"><ele>885.2857142857142</ele><time>2026-04-12T14:42:26.74Z</time></trkpt><trkpt lat="40.7231557" lon="15.0811112"><ele>885.7142857142858</ele><time>2026-04-12T14:42:28.744Z</time></trkpt><trkpt lat="40.723213" lon="15.0810759"><ele>886.1428571428571</ele><time>2026-04-12T14:42:29.736Z</time></trkpt><trkpt lat="40.7232619" lon="15.0810132"><ele>886.5714285714286</ele><time>2026-04-12T14:42:30.742Z</time></trkpt><trkpt lat="40.7233029" lon="15.0809281"><ele>887.0</ele><time>2026-04-12T14:42:31.74Z</time></trkpt><trkpt lat="40.72333" lon="15.0808229"><ele>889.4000000000001</ele><time>2026-04-12T14:42:32.741Z</time></trkpt><trkpt lat="40.7233357" lon="15.0806987"><ele>891.8000000000001</ele><time>2026-04-12T14:42:33.739Z</time></trkpt><trkpt lat="40.7233465" lon="15.0805605"><ele>894.2</ele><time>2026-04-12T14:42:34.743Z</time></trkpt><trkpt lat="40.7233548" lon="15.0804086"><ele>896.6</ele><time>2026-04-12T14:42:35.742Z</time></trkpt><trkpt lat="40.7233596" lon="15.0802386"><ele>899.0</ele><time>2026-04-12T14:42:36.74Z</time></trkpt><trkpt lat="40.7233731" lon="15.0800739"><ele>900.8000000000001</ele><time>2026-04-12T14:42:37.74Z</time></trkpt><trkpt lat="40.7233932" lon="15.0799215"><ele>902.6000000000001</ele><time>2026-04-12T14:42:38.738Z</time></trkpt><trkpt lat="40.7234166" lon="15.0797826"><ele>904.4</ele><time>2026-04-12T14:42:39.742Z</time></trkpt><trkpt lat="40.7234295" lon="15.0796338"><ele>906.2</ele><time>2026-04-12T14:42:40.746Z</time></trkpt><trkpt lat="40.7234508" lon="15.0795126"><ele>908.0</ele><time>2026-04-12T14:42:41.734Z</time></trkpt><trkpt lat="40.723484" lon="15.0793957"><ele>908.0</ele><time>2026-04-12T14:42:42.746Z</time></trkpt><trkpt lat="40.723512" lon="15.0792783"><ele>908.0</ele><time>2026-04-12T14:42:43.735Z</time></trkpt><trkpt lat="40.7235297" lon="15.0791332"><ele>908.0</ele><time>2026-04-12T14:42:44.735Z</time></trkpt><trkpt lat="40.7235328" lon="15.0789828"><ele>908.0</ele><time>2026-04-12T14:42:45.737Z</time></trkpt><trkpt lat="40.7235382" lon="15.0788512"><ele>908.0</ele><time>2026-04-12T14:42:46.732Z</time></trkpt><trkpt lat="40.72355" lon="15.0787445"><ele>908.5000000000001</ele><time>2026-04-12T14:42:47.742Z</time></trkpt><trkpt lat="40.7235546" lon="15.0786582"><ele>909.0</ele><time>2026-04-12T14:42:48.733Z</time></trkpt><trkpt lat="40.7235376" lon="15.0785262"><ele>909.5</ele><time>2026-04-12T14:42:50.745Z</time></trkpt><trkpt lat="40.723541" lon="15.0784285"><ele>910.0</ele><time>2026-04-12T14:42:52.734Z</time></trkpt><trkpt lat="40.723563" lon="15.0783378"><ele>910.5000000000001</ele><time>2026-04-12T14:42:54.745Z</time></trkpt><trkpt lat="40.7236377" lon="15.0782373"><ele>911.0</ele><time>2026-04-12T14:42:56.748Z</time></trkpt><trkpt lat="40.7236808" lon="15.0781744"><ele>910.5999999999999</ele><time>2026-04-12T14:42:57.751Z</time></trkpt><trkpt lat="40.7237231" lon="15.0781022"><ele>910.1999999999999</ele><time>2026-04-12T14:42:58.739Z</time></trkpt><trkpt lat="40.7237275" lon="15.0779161"><ele>909.8000000000001</ele><time>2026-04-12T14:43:00.738Z</time></trkpt><trkpt lat="40.7236884" lon="15.0777937"><ele>909.4000000000001</ele><time>2026-04-12T14:43:01.743Z</time></trkpt><trkpt lat="40.7236285" lon="15.0776709"><ele>909.0</ele><time>2026-04-12T14:43:02.749Z</time></trkpt><trkpt lat="40.7235507" lon="15.077547"><ele>907.5</ele><time>2026-04-12T14:43:03.752Z</time></trkpt><trkpt lat="40.7234782" lon="15.0774333"><ele>906.0</ele><time>2026-04-12T14:43:04.743Z</time></trkpt><trkpt lat="40.7233738" lon="15.0773172"><ele>904.5</ele><time>2026-04-12T14:43:05.761Z</time></trkpt><trkpt lat="40.7233011" lon="15.0772027"><ele>903.0</ele><time>2026-04-12T14:43:06.749Z</time></trkpt><trkpt lat="40.7232334" lon="15.0770999"><ele>903.0</ele><time>2026-04-12T14:43:07.754Z</time></trkpt><trkpt lat="40.7231729" lon="15.0769829"><ele>903.0</ele><time>2026-04-12T14:43:08.749Z</time></trkpt><trkpt lat="40.72317" lon="15.0768493"><ele>903.0</ele><time>2026-04-12T14:43:09.745Z</time></trkpt><trkpt lat="40.723169" lon="15.0767223"><ele>903.0</ele><time>2026-04-12T14:43:10.749Z</time></trkpt><trkpt lat="40.7231766" lon="15.0765778"><ele>903.0</ele><time>2026-04-12T14:43:11.76Z</time></trkpt><trkpt lat="40.7231761" lon="15.0764277"><ele>900.8</ele><time>2026-04-12T14:43:12.756Z</time></trkpt><trkpt lat="40.7231631" lon="15.0762996"><ele>898.5999999999999</ele><time>2026-04-12T14:43:13.757Z</time></trkpt><trkpt lat="40.7231425" lon="15.0761719"><ele>896.4000000000001</ele><time>2026-04-12T14:43:14.758Z</time></trkpt><trkpt lat="40.723093" lon="15.0760837"><ele>894.2</ele><time>2026-04-12T14:43:15.748Z</time></trkpt><trkpt lat="40.7230205" lon="15.0760196"><ele>892.0</ele><time>2026-04-12T14:43:16.749Z</time></trkpt><trkpt lat="40.7229464" lon="15.075937"><ele>892.0</ele><time>2026-04-12T14:43:17.756Z</time></trkpt><trkpt lat="40.7228847" lon="15.0758534"><ele>892.0</ele><time>2026-04-12T14:43:18.748Z</time></trkpt><trkpt lat="40.7228287" lon="15.0757588"><ele>892.0</ele><time>2026-04-12T14:43:19.745Z</time></trkpt><trkpt lat="40.7227706" lon="15.0756581"><ele>892.0</ele><time>2026-04-12T14:43:20.745Z</time></trkpt><trkpt lat="40.7227225" lon="15.0755327"><ele>892.0</ele><time>2026-04-12T14:43:21.754Z</time></trkpt><trkpt lat="40.7226674" lon="15.0754255"><ele>894.2</ele><time>2026-04-12T14:43:22.757Z</time></trkpt><trkpt lat="40.7226278" lon="15.0752863"><ele>896.4000000000001</ele><time>2026-04-12T14:43:23.752Z</time></trkpt><trkpt lat="40.7226042" lon="15.0751577"><ele>898.5999999999999</ele><time>2026-04-12T14:43:24.753Z</time></trkpt><trkpt lat="40.7225797" lon="15.0750538"><ele>900.8</ele><time>2026-04-12T14:43:25.748Z</time></trkpt><trkpt lat="40.7225314" lon="15.0749484"><ele>903.0</ele><time>2026-04-12T14:43:26.742Z</time></trkpt><trkpt lat="40.7224635" lon="15.0748632"><ele>897.8</ele><time>2026-04-12T14:43:27.743Z</time></trkpt><trkpt lat="40.7223874" lon="15.0748044"><ele>892.5999999999999</ele><time>2026-04-12T14:43:28.748Z</time></trkpt><trkpt lat="40.7222874" lon="15.0747697"><ele>887.4000000000001</ele><time>2026-04-12T14:43:29.756Z</time></trkpt><trkpt lat="40.722191" lon="15.0747349"><ele>882.2</ele><time>2026-04-12T14:43:30.754Z</time></trkpt><trkpt lat="40.7220996" lon="15.0746953"><ele>877.0</ele><time>2026-04-12T14:43:31.759Z</time></trkpt><trkpt lat="40.7220094" lon="15.0746364"><ele>877.0</ele><time>2026-04-12T14:43:32.765Z</time></trkpt><trkpt lat="40.7219272" lon="15.0745689"><ele>877.0</ele><time>2026-04-12T14:43:33.765Z</time></trkpt><trkpt lat="40.7218515" lon="15.0745009"><ele>877.0</ele><time>2026-04-12T14:43:34.753Z</time></trkpt><trkpt lat="40.7217849" lon="15.0744245"><ele>877.0</ele><time>2026-04-12T14:43:35.743Z</time></trkpt><trkpt lat="40.7217228" lon="15.0743427"><ele>877.0</ele><time>2026-04-12T14:43:36.742Z</time></trkpt><trkpt lat="40.7217432" lon="15.0741781"><ele>879.6666666666666</ele><time>2026-04-12T14:43:38.746Z</time></trkpt><trkpt lat="40.7217478" lon="15.0740881"><ele>882.3333333333333</ele><time>2026-04-12T14:43:39.741Z</time></trkpt><trkpt lat="40.7217366" lon="15.0740063"><ele>885.0</ele><time>2026-04-12T14:43:40.752Z</time></trkpt><trkpt lat="40.7216872" lon="15.0739037"><ele>887.6666666666667</ele><time>2026-04-12T14:43:42.758Z</time></trkpt><trkpt lat="40.7215836" lon="15.0737895"><ele>890.3333333333334</ele><time>2026-04-12T14:43:44.753Z</time></trkpt><trkpt lat="40.7215483" lon="15.0737"><ele>893.0</ele><time>2026-04-12T14:43:45.736Z</time></trkpt><trkpt lat="40.7214887" lon="15.073591"><ele>893.0</ele><time>2026-04-12T14:43:46.748Z</time></trkpt><trkpt lat="40.7214601" lon="15.0734585"><ele>893.0</ele><time>2026-04-12T14:43:47.748Z</time></trkpt><trkpt lat="40.7214043" lon="15.0733074"><ele>893.0</ele><time>2026-04-12T14:43:48.734Z</time></trkpt><trkpt lat="40.7213574" lon="15.0731307"><ele>893.0</ele><time>2026-04-12T14:43:49.744Z</time></trkpt><trkpt lat="40.7213256" lon="15.0729532"><ele>894.4</ele><time>2026-04-12T14:43:50.745Z</time></trkpt><trkpt lat="40.7212933" lon="15.0728005"><ele>895.8</ele><time>2026-04-12T14:43:51.752Z</time></trkpt><trkpt lat="40.7212757" lon="15.0726746"><ele>897.2</ele><time>2026-04-12T14:43:52.747Z</time></trkpt><trkpt lat="40.7212026" lon="15.0726174"><ele>898.6</ele><time>2026-04-12T14:43:53.748Z</time></trkpt><trkpt lat="40.7211172" lon="15.0725832"><ele>900.0</ele><time>2026-04-12T14:43:54.744Z</time></trkpt><trkpt lat="40.7210165" lon="15.0725568"><ele>900.0</ele><time>2026-04-12T14:43:55.752Z</time></trkpt><trkpt lat="40.7209113" lon="15.0725316"><ele>900.0</ele><time>2026-04-12T14:43:56.743Z</time></trkpt><trkpt lat="40.7207843" lon="15.0725275"><ele>900.0</ele><time>2026-04-12T14:43:57.733Z</time></trkpt><trkpt lat="40.7206435" lon="15.0725198"><ele>900.0</ele><time>2026-04-12T14:43:58.743Z</time></trkpt><trkpt lat="40.7204941" lon="15.0725279"><ele>900.0</ele><time>2026-04-12T14:43:59.739Z</time></trkpt><trkpt lat="40.7203339" lon="15.0725386"><ele>900.0</ele><time>2026-04-12T14:44:00.727Z</time></trkpt><trkpt lat="40.7201568" lon="15.0725949"><ele>900.0</ele><time>2026-04-12T14:44:01.737Z</time></trkpt><trkpt lat="40.7199989" lon="15.0726121"><ele>901.2</ele><time>2026-04-12T14:44:02.747Z</time></trkpt><trkpt lat="40.7198832" lon="15.0726092"><ele>902.4</ele><time>2026-04-12T14:44:03.742Z</time></trkpt><trkpt lat="40.7197823" lon="15.0726281"><ele>903.5999999999999</ele><time>2026-04-12T14:44:04.734Z</time></trkpt><trkpt lat="40.7196909" lon="15.0726606"><ele>904.8</ele><time>2026-04-12T14:44:06.726Z</time></trkpt><trkpt lat="40.7196923" lon="15.0725575"><ele>906.0</ele><time>2026-04-12T14:44:10.724Z</time></trkpt><trkpt lat="40.7197947" lon="15.0725701"><ele>906.0</ele><time>2026-04-12T14:44:13.726Z</time></trkpt><trkpt lat="40.7198972" lon="15.0726102"><ele>906.0</ele><time>2026-04-12T14:44:15.725Z</time></trkpt><trkpt lat="40.719986" lon="15.0726299"><ele>906.0</ele><time>2026-04-12T14:44:17.737Z</time></trkpt><trkpt lat="40.7200659" lon="15.0726187"><ele>906.0</ele><time>2026-04-12T14:44:19.744Z</time></trkpt><trkpt lat="40.7200233" lon="15.0725375"><ele>906.0</ele><time>2026-04-12T14:44:42.74Z</time></trkpt><trkpt lat="40.7199377" lon="15.0725353"><ele>906.0</ele><time>2026-04-12T14:44:44.736Z</time></trkpt><trkpt lat="40.719837" lon="15.0725499"><ele>906.0</ele><time>2026-04-12T14:44:46.741Z</time></trkpt><trkpt lat="40.7197578" lon="15.0725476"><ele>905.9999999999999</ele><time>2026-04-12T14:44:48.736Z</time></trkpt><trkpt lat="40.7196882" lon="15.0726147"><ele>905.9999999999999</ele><time>2026-04-12T14:44:53.732Z</time></trkpt><trkpt lat="40.7196837" lon="15.0727273"><ele>906.0</ele><time>2026-04-12T14:44:56.736Z</time></trkpt><trkpt lat="40.7198241" lon="15.0727355"><ele>906.0</ele><time>2026-04-12T14:45:08.753Z</time></trkpt><trkpt lat="40.7199068" lon="15.07264"><ele>906.0</ele><time>2026-04-12T14:45:10.756Z</time></trkpt><trkpt lat="40.7199629" lon="15.0725275"><ele>905.9999999999999</ele><time>2026-04-12T14:45:12.738Z</time></trkpt><trkpt lat="40.7199937" lon="15.0724396"><ele>905.9999999999999</ele><time>2026-04-12T14:45:13.74Z</time></trkpt><trkpt lat="40.7200018" lon="15.0723143"><ele>906.0</ele><time>2026-04-12T14:45:14.741Z</time></trkpt><trkpt lat="40.7200247" lon="15.072187"><ele>906.0</ele><time>2026-04-12T14:45:15.742Z</time></trkpt><trkpt lat="40.720044" lon="15.0720453"><ele>904.1999999999999</ele><time>2026-04-12T14:45:16.745Z</time></trkpt><trkpt lat="40.7200376" lon="15.0719084"><ele>902.3999999999999</ele><time>2026-04-12T14:45:17.743Z</time></trkpt><trkpt lat="40.7200185" lon="15.0717653"><ele>900.6</ele><time>2026-04-12T14:45:18.741Z</time></trkpt><trkpt lat="40.7199937" lon="15.0716237"><ele>898.8</ele><time>2026-04-12T14:45:19.735Z</time></trkpt><trkpt lat="40.7199843" lon="15.0714923"><ele>897.0</ele><time>2026-04-12T14:45:20.737Z</time></trkpt><trkpt lat="40.7199639" lon="15.0713473"><ele>895.75</ele><time>2026-04-12T14:45:21.733Z</time></trkpt><trkpt lat="40.7199529" lon="15.0712165"><ele>894.5</ele><time>2026-04-12T14:45:22.746Z</time></trkpt><trkpt lat="40.719923" lon="15.0710558"><ele>893.25</ele><time>2026-04-12T14:45:23.742Z</time></trkpt><trkpt lat="40.7199005" lon="15.0708909"><ele>892.0</ele><time>2026-04-12T14:45:24.749Z</time></trkpt><trkpt lat="40.7198408" lon="15.0707086"><ele>890.5</ele><time>2026-04-12T14:45:25.751Z</time></trkpt><trkpt lat="40.7198395" lon="15.0705338"><ele>889.0</ele><time>2026-04-12T14:45:26.75Z</time></trkpt><trkpt lat="40.71986" lon="15.0703937"><ele>887.5</ele><time>2026-04-12T14:45:27.747Z</time></trkpt><trkpt lat="40.7198254" lon="15.0702411"><ele>886.0</ele><time>2026-04-12T14:45:28.736Z</time></trkpt><trkpt lat="40.7197735" lon="15.0700926"><ele>886.0</ele><time>2026-04-12T14:45:29.751Z</time></trkpt><trkpt lat="40.7197161" lon="15.0699654"><ele>886.0</ele><time>2026-04-12T14:45:30.745Z</time></trkpt><trkpt lat="40.7196725" lon="15.0698426"><ele>886.0</ele><time>2026-04-12T14:45:31.749Z</time></trkpt><trkpt lat="40.7196151" lon="15.0696989"><ele>886.0</ele><time>2026-04-12T14:45:32.753Z</time></trkpt><trkpt lat="40.7195948" lon="15.0695529"><ele>884.5999999999999</ele><time>2026-04-12T14:45:33.764Z</time></trkpt><trkpt lat="40.7195985" lon="15.0694304"><ele>883.1999999999999</ele><time>2026-04-12T14:45:34.747Z</time></trkpt><trkpt lat="40.7195985" lon="15.0693223"><ele>881.8000000000001</ele><time>2026-04-12T14:45:35.744Z</time></trkpt><trkpt lat="40.7195986" lon="15.0691982"><ele>880.4000000000001</ele><time>2026-04-12T14:45:36.746Z</time></trkpt><trkpt lat="40.7196003" lon="15.0690642"><ele>879.0</ele><time>2026-04-12T14:45:37.752Z</time></trkpt><trkpt lat="40.7196143" lon="15.0689461"><ele>877.3333333333334</ele><time>2026-04-12T14:45:38.745Z</time></trkpt><trkpt lat="40.7196218" lon="15.0688372"><ele>875.6666666666667</ele><time>2026-04-12T14:45:39.748Z</time></trkpt><trkpt lat="40.7196183" lon="15.0687286"><ele>874.0</ele><time>2026-04-12T14:45:40.745Z</time></trkpt><trkpt lat="40.7196134" lon="15.0686148"><ele>872.3333333333334</ele><time>2026-04-12T14:45:41.754Z</time></trkpt><trkpt lat="40.7195905" lon="15.0685011"><ele>870.6666666666667</ele><time>2026-04-12T14:45:42.755Z</time></trkpt><trkpt lat="40.7195574" lon="15.0683658"><ele>869.0</ele><time>2026-04-12T14:45:43.743Z</time></trkpt><trkpt lat="40.7194972" lon="15.0682378"><ele>867.0000000000001</ele><time>2026-04-12T14:45:44.745Z</time></trkpt><trkpt lat="40.7194576" lon="15.0681045"><ele>865.0</ele><time>2026-04-12T14:45:45.745Z</time></trkpt><trkpt lat="40.7194084" lon="15.0679929"><ele>863.0</ele><time>2026-04-12T14:45:46.747Z</time></trkpt><trkpt lat="40.7193822" lon="15.0678879"><ele>861.0</ele><time>2026-04-12T14:45:47.751Z</time></trkpt><trkpt lat="40.7193634" lon="15.0678006"><ele>859.0000000000001</ele><time>2026-04-12T14:45:48.752Z</time></trkpt><trkpt lat="40.7193175" lon="15.0677156"><ele>857.0</ele><time>2026-04-12T14:45:49.756Z</time></trkpt><trkpt lat="40.7192634" lon="15.067624"><ele>859.0</ele><time>2026-04-12T14:45:50.759Z</time></trkpt><trkpt lat="40.7192122" lon="15.0675293"><ele>861.0</ele><time>2026-04-12T14:45:51.765Z</time></trkpt><trkpt lat="40.7191626" lon="15.0674305"><ele>863.0</ele><time>2026-04-12T14:45:52.751Z</time></trkpt><trkpt lat="40.7190921" lon="15.0673262"><ele>865.0</ele><time>2026-04-12T14:45:53.762Z</time></trkpt><trkpt lat="40.7190126" lon="15.0672175"><ele>867.0</ele><time>2026-04-12T14:45:54.748Z</time></trkpt><trkpt lat="40.7189196" lon="15.0671193"><ele>867.0</ele><time>2026-04-12T14:45:55.748Z</time></trkpt><trkpt lat="40.7188333" lon="15.067027"><ele>867.0</ele><time>2026-04-12T14:45:56.747Z</time></trkpt><trkpt lat="40.7187358" lon="15.0669398"><ele>867.0</ele><time>2026-04-12T14:45:57.745Z</time></trkpt><trkpt lat="40.7186546" lon="15.0668759"><ele>867.0</ele><time>2026-04-12T14:45:58.745Z</time></trkpt><trkpt lat="40.7185779" lon="15.0668271"><ele>867.0</ele><time>2026-04-12T14:45:59.743Z</time></trkpt><trkpt lat="40.7184913" lon="15.066785"><ele>872.4000000000001</ele><time>2026-04-12T14:46:00.726Z</time></trkpt><trkpt lat="40.7184214" lon="15.0667427"><ele>877.8000000000001</ele><time>2026-04-12T14:46:01.727Z</time></trkpt><trkpt lat="40.7183131" lon="15.0667056"><ele>883.2</ele><time>2026-04-12T14:46:03.727Z</time></trkpt><trkpt lat="40.7181826" lon="15.0666689"><ele>888.6</ele><time>2026-04-12T14:46:05.731Z</time></trkpt><trkpt lat="40.7181108" lon="15.0666354"><ele>894.0</ele><time>2026-04-12T14:46:06.728Z</time></trkpt><trkpt lat="40.7180447" lon="15.0666156"><ele>890.8333333333334</ele><time>2026-04-12T14:46:07.725Z</time></trkpt><trkpt lat="40.7179819" lon="15.0665689"><ele>887.6666666666667</ele><time>2026-04-12T14:46:08.726Z</time></trkpt><trkpt lat="40.7179226" lon="15.0665271"><ele>884.5</ele><time>2026-04-12T14:46:09.724Z</time></trkpt><trkpt lat="40.7178728" lon="15.0664361"><ele>881.3333333333334</ele><time>2026-04-12T14:46:11.727Z</time></trkpt><trkpt lat="40.7177909" lon="15.0663327"><ele>878.1666666666667</ele><time>2026-04-12T14:46:13.722Z</time></trkpt><trkpt lat="40.7177353" lon="15.0662858"><ele>875.0</ele><time>2026-04-12T14:46:14.725Z</time></trkpt><trkpt lat="40.7176547" lon="15.0662529"><ele>875.0000000000001</ele><time>2026-04-12T14:46:15.731Z</time></trkpt><trkpt lat="40.7175668" lon="15.0662191"><ele>875.0</ele><time>2026-04-12T14:46:16.736Z</time></trkpt><trkpt lat="40.7174941" lon="15.0662028"><ele>875.0</ele><time>2026-04-12T14:46:17.73Z</time></trkpt><trkpt lat="40.7174054" lon="15.0662145"><ele>875.0</ele><time>2026-04-12T14:46:18.733Z</time></trkpt><trkpt lat="40.7173267" lon="15.0662455"><ele>875.0000000000001</ele><time>2026-04-12T14:46:19.733Z</time></trkpt><trkpt lat="40.7172639" lon="15.0662816"><ele>875.0</ele><time>2026-04-12T14:46:20.736Z</time></trkpt><trkpt lat="40.7171445" lon="15.066342"><ele>875.0</ele><time>2026-04-12T14:46:22.737Z</time></trkpt><trkpt lat="40.7170817" lon="15.0663577"><ele>875.0</ele><time>2026-04-12T14:46:58.728Z</time></trkpt><trkpt lat="40.7171597" lon="15.0663797"><ele>875.0</ele><time>2026-04-12T14:47:44.739Z</time></trkpt><trkpt lat="40.717269" lon="15.0663635"><ele>875.0</ele><time>2026-04-12T14:47:46.74Z</time></trkpt><trkpt lat="40.7173753" lon="15.0663791"><ele>875.0</ele><time>2026-04-12T14:47:48.742Z</time></trkpt><trkpt lat="40.7175014" lon="15.0664003"><ele>875.0000000000001</ele><time>2026-04-12T14:47:50.724Z</time></trkpt><trkpt lat="40.7175876" lon="15.066435"><ele>875.0</ele><time>2026-04-12T14:47:51.729Z</time></trkpt><trkpt lat="40.7176512" lon="15.0664738"><ele>875.0</ele><time>2026-04-12T14:47:52.725Z</time></trkpt><trkpt lat="40.7177197" lon="15.0665265"><ele>875.0</ele><time>2026-04-12T14:47:53.731Z</time></trkpt><trkpt lat="40.7177916" lon="15.0665645"><ele>875.0000000000001</ele><time>2026-04-12T14:47:54.739Z</time></trkpt><trkpt lat="40.7178958" lon="15.0666582"><ele>875.0</ele><time>2026-04-12T14:47:56.732Z</time></trkpt><trkpt lat="40.7179499" lon="15.0667077"><ele>878.1666666666667</ele><time>2026-04-12T14:47:57.733Z</time></trkpt><trkpt lat="40.718016" lon="15.0667457"><ele>881.3333333333334</ele><time>2026-04-12T14:47:58.752Z</time></trkpt><trkpt lat="40.7180781" lon="15.0667765"><ele>884.5</ele><time>2026-04-12T14:47:59.76Z</time></trkpt><trkpt lat="40.7181548" lon="15.0667819"><ele>887.6666666666667</ele><time>2026-04-12T14:48:00.751Z</time></trkpt><trkpt lat="40.7182395" lon="15.0667946"><ele>890.8333333333334</ele><time>2026-04-12T14:48:01.736Z</time></trkpt><trkpt lat="40.7183251" lon="15.0668275"><ele>894.0</ele><time>2026-04-12T14:48:02.759Z</time></trkpt><trkpt lat="40.7184116" lon="15.0668265"><ele>894.0</ele><time>2026-04-12T14:48:03.739Z</time></trkpt><trkpt lat="40.7184954" lon="15.0668525"><ele>894.0</ele><time>2026-04-12T14:48:04.742Z</time></trkpt><trkpt lat="40.7185651" lon="15.0668706"><ele>894.0</ele><time>2026-04-12T14:48:05.743Z</time></trkpt><trkpt lat="40.7186853" lon="15.0669362"><ele>894.0</ele><time>2026-04-12T14:48:07.757Z</time></trkpt><trkpt lat="40.7187493" lon="15.066995"><ele>894.0</ele><time>2026-04-12T14:48:08.762Z</time></trkpt><trkpt lat="40.7188133" lon="15.0670555"><ele>894.0</ele><time>2026-04-12T14:48:09.749Z</time></trkpt><trkpt lat="40.7188902" lon="15.0671389"><ele>894.8000000000001</ele><time>2026-04-12T14:48:10.769Z</time></trkpt><trkpt lat="40.7189537" lon="15.0672562"><ele>895.6000000000001</ele><time>2026-04-12T14:48:11.768Z</time></trkpt><trkpt lat="40.7190086" lon="15.0673845"><ele>896.4</ele><time>2026-04-12T14:48:12.769Z</time></trkpt><trkpt lat="40.7190705" lon="15.0674852"><ele>897.2</ele><time>2026-04-12T14:48:13.762Z</time></trkpt><trkpt lat="40.7191361" lon="15.0675955"><ele>898.0</ele><time>2026-04-12T14:48:14.751Z</time></trkpt><trkpt lat="40.719183" lon="15.0677019"><ele>897.9999999999999</ele><time>2026-04-12T14:48:15.755Z</time></trkpt><trkpt lat="40.7192329" lon="15.0678007"><ele>898.0</ele><time>2026-04-12T14:48:16.752Z</time></trkpt><trkpt lat="40.719253" lon="15.0679106"><ele>898.0</ele><time>2026-04-12T14:48:17.748Z</time></trkpt><trkpt lat="40.7192888" lon="15.0680095"><ele>898.0</ele><time>2026-04-12T14:48:18.759Z</time></trkpt><trkpt lat="40.7193118" lon="15.068114"><ele>897.9999999999999</ele><time>2026-04-12T14:48:19.755Z</time></trkpt><trkpt lat="40.7193411" lon="15.0682216"><ele>898.0</ele><time>2026-04-12T14:48:20.761Z</time></trkpt><trkpt lat="40.7193607" lon="15.0683394"><ele>901.8</ele><time>2026-04-12T14:48:21.766Z</time></trkpt><trkpt lat="40.7193663" lon="15.06846"><ele>905.5999999999999</ele><time>2026-04-12T14:48:22.769Z</time></trkpt><trkpt lat="40.719362" lon="15.0685847"><ele>909.4000000000001</ele><time>2026-04-12T14:48:23.771Z</time></trkpt><trkpt lat="40.7193665" lon="15.06871"><ele>913.2</ele><time>2026-04-12T14:48:24.783Z</time></trkpt><trkpt lat="40.7193262" lon="15.0688456"><ele>917.0</ele><time>2026-04-12T14:48:25.762Z</time></trkpt><trkpt lat="40.7192962" lon="15.0689738"><ele>919.6</ele><time>2026-04-12T14:48:26.758Z</time></trkpt><trkpt lat="40.7192359" lon="15.0691122"><ele>922.2</ele><time>2026-04-12T14:48:27.757Z</time></trkpt><trkpt lat="40.7192135" lon="15.0692416"><ele>924.8</ele><time>2026-04-12T14:48:28.764Z</time></trkpt><trkpt lat="40.7191898" lon="15.0693876"><ele>927.4</ele><time>2026-04-12T14:48:29.756Z</time></trkpt><trkpt lat="40.7191613" lon="15.0695184"><ele>930.0</ele><time>2026-04-12T14:48:30.75Z</time></trkpt><trkpt lat="40.7191064" lon="15.0696409"><ele>930.0</ele><time>2026-04-12T14:48:31.749Z</time></trkpt><trkpt lat="40.7190986" lon="15.0697713"><ele>930.0</ele><time>2026-04-12T14:48:32.755Z</time></trkpt><trkpt lat="40.7191184" lon="15.0699114"><ele>930.0</ele><time>2026-04-12T14:48:33.756Z</time></trkpt><trkpt lat="40.7191445" lon="15.0700404"><ele>930.0</ele><time>2026-04-12T14:48:34.744Z</time></trkpt><trkpt lat="40.7191736" lon="15.0701599"><ele>930.0</ele><time>2026-04-12T14:48:35.751Z</time></trkpt><trkpt lat="40.7192018" lon="15.0702736"><ele>932.0</ele><time>2026-04-12T14:48:36.766Z</time></trkpt><trkpt lat="40.7192367" lon="15.0704059"><ele>934.0</ele><time>2026-04-12T14:48:37.749Z</time></trkpt><trkpt lat="40.7192788" lon="15.0705617"><ele>936.0</ele><time>2026-04-12T14:48:38.748Z</time></trkpt><trkpt lat="40.7193273" lon="15.0707189"><ele>938.0</ele><time>2026-04-12T14:48:39.758Z</time></trkpt><trkpt lat="40.7193738" lon="15.0708689"><ele>926.5</ele><time>2026-04-12T14:48:40.749Z</time></trkpt><trkpt lat="40.7194255" lon="15.0710102"><ele>915.0</ele><time>2026-04-12T14:48:41.757Z</time></trkpt><trkpt lat="40.719483" lon="15.071159"><ele>903.5</ele><time>2026-04-12T14:48:42.759Z</time></trkpt><trkpt lat="40.7195346" lon="15.071311"><ele>892.0</ele><time>2026-04-12T14:48:43.752Z</time></trkpt><trkpt lat="40.7195746" lon="15.0714682"><ele>893.0</ele><time>2026-04-12T14:48:44.758Z</time></trkpt><trkpt lat="40.7196168" lon="15.0716123"><ele>894.0</ele><time>2026-04-12T14:48:45.758Z</time></trkpt><trkpt lat="40.7196362" lon="15.0717498"><ele>895.0</ele><time>2026-04-12T14:48:46.749Z</time></trkpt><trkpt lat="40.7196531" lon="15.0718994"><ele>896.0</ele><time>2026-04-12T14:48:47.765Z</time></trkpt><trkpt lat="40.7196674" lon="15.07203"><ele>897.0</ele><time>2026-04-12T14:48:48.762Z</time></trkpt><trkpt lat="40.7196749" lon="15.0721515"><ele>897.0</ele><time>2026-04-12T14:48:49.761Z</time></trkpt><trkpt lat="40.7196821" lon="15.0722542"><ele>897.0</ele><time>2026-04-12T14:48:50.766Z</time></trkpt><trkpt lat="40.7196833" lon="15.0723564"><ele>897.0</ele><time>2026-04-12T14:48:51.767Z</time></trkpt><trkpt lat="40.7196204" lon="15.0724988"><ele>897.0</ele><time>2026-04-12T14:48:53.759Z</time></trkpt><trkpt lat="40.719555" lon="15.072565"><ele>897.0</ele><time>2026-04-12T14:48:54.766Z</time></trkpt><trkpt lat="40.7195356" lon="15.0726505"><ele>897.0</ele><time>2026-04-12T14:48:55.748Z</time></trkpt><trkpt lat="40.7195137" lon="15.0727317"><ele>898.5</ele><time>2026-04-12T14:48:56.76Z</time></trkpt><trkpt lat="40.7194919" lon="15.072889"><ele>900.0</ele><time>2026-04-12T14:48:58.756Z</time></trkpt><trkpt lat="40.719506" lon="15.0730304"><ele>901.5</ele><time>2026-04-12T14:49:00.775Z</time></trkpt><trkpt lat="40.71953" lon="15.073131"><ele>903.0</ele><time>2026-04-12T14:49:02.761Z</time></trkpt><trkpt lat="40.7195927" lon="15.0731446"><ele>904.5</ele><time>2026-04-12T14:49:04.768Z</time></trkpt><trkpt lat="40.719655" lon="15.0730879"><ele>906.0</ele><time>2026-04-12T14:49:06.759Z</time></trkpt><trkpt lat="40.7197311" lon="15.0729731"><ele>906.0</ele><time>2026-04-12T14:49:08.743Z</time></trkpt><trkpt lat="40.7197664" lon="15.0728776"><ele>906.0</ele><time>2026-04-12T14:49:10.752Z</time></trkpt><trkpt lat="40.7197986" lon="15.072752"><ele>906.0</ele><time>2026-04-12T14:49:13.741Z</time></trkpt><trkpt lat="40.7198502" lon="15.0726789"><ele>906.0</ele><time>2026-04-12T14:49:17.771Z</time></trkpt><trkpt lat="40.7199166" lon="15.0726585"><ele>906.0</ele><time>2026-04-12T14:49:19.759Z</time></trkpt><trkpt lat="40.7199963" lon="15.0726173"><ele>906.0</ele><time>2026-04-12T14:49:21.754Z</time></trkpt><trkpt lat="40.7200731" lon="15.0725561"><ele>906.0</ele><time>2026-04-12T14:49:23.761Z</time></trkpt><trkpt lat="40.7201662" lon="15.0725071"><ele>905.9999999999999</ele><time>2026-04-12T14:49:25.756Z</time></trkpt><trkpt lat="40.7202671" lon="15.072476"><ele>905.9999999999999</ele><time>2026-04-12T14:49:27.754Z</time></trkpt><trkpt lat="40.7203559" lon="15.0724576"><ele>906.0</ele><time>2026-04-12T14:49:29.766Z</time></trkpt><trkpt lat="40.7204722" lon="15.0724493"><ele>906.0</ele><time>2026-04-12T14:49:31.772Z</time></trkpt><trkpt lat="40.720545" lon="15.0724196"><ele>901.1666666666666</ele><time>2026-04-12T14:49:32.767Z</time></trkpt><trkpt lat="40.7206161" lon="15.0723796"><ele>896.3333333333333</ele><time>2026-04-12T14:49:33.762Z</time></trkpt><trkpt lat="40.720698" lon="15.0723135"><ele>891.5</ele><time>2026-04-12T14:49:34.766Z</time></trkpt><trkpt lat="40.7207806" lon="15.07226"><ele>886.6666666666666</ele><time>2026-04-12T14:49:35.767Z</time></trkpt><trkpt lat="40.7208498" lon="15.0722392"><ele>881.8333333333333</ele><time>2026-04-12T14:49:36.77Z</time></trkpt><trkpt lat="40.7209211" lon="15.072213"><ele>877.0</ele><time>2026-04-12T14:49:37.761Z</time></trkpt><trkpt lat="40.7210181" lon="15.0721496"><ele>876.9999999999999</ele><time>2026-04-12T14:49:39.742Z</time></trkpt><trkpt lat="40.7210427" lon="15.0720422"><ele>877.0</ele><time>2026-04-12T14:49:41.752Z</time></trkpt><trkpt lat="40.7209617" lon="15.0719562"><ele>877.0</ele><time>2026-04-12T14:49:43.75Z</time></trkpt><trkpt lat="40.7208929" lon="15.0719078"><ele>877.0</ele><time>2026-04-12T14:49:44.742Z</time></trkpt><trkpt lat="40.7208301" lon="15.0718629"><ele>876.9999999999999</ele><time>2026-04-12T14:49:45.752Z</time></trkpt><trkpt lat="40.7207624" lon="15.0718161"><ele>877.0</ele><time>2026-04-12T14:49:46.75Z</time></trkpt><trkpt lat="40.7206851" lon="15.0717953"><ele>876.9999999999999</ele><time>2026-04-12T14:49:47.751Z</time></trkpt><trkpt lat="40.720624" lon="15.0717444"><ele>877.0</ele><time>2026-04-12T14:49:48.749Z</time></trkpt><trkpt lat="40.7205568" lon="15.071624"><ele>877.0</ele><time>2026-04-12T14:49:50.747Z</time></trkpt><trkpt lat="40.7205423" lon="15.0715277"><ele>877.0</ele><time>2026-04-12T14:49:51.743Z</time></trkpt><trkpt lat="40.7205494" lon="15.071423"><ele>876.9999999999999</ele><time>2026-04-12T14:49:52.745Z</time></trkpt><trkpt lat="40.7205669" lon="15.071304"><ele>877.0</ele><time>2026-04-12T14:49:53.754Z</time></trkpt><trkpt lat="40.7205881" lon="15.0711912"><ele>875.0000000000001</ele><time>2026-04-12T14:49:54.752Z</time></trkpt><trkpt lat="40.7206008" lon="15.0710838"><ele>873.0</ele><time>2026-04-12T14:49:55.75Z</time></trkpt><trkpt lat="40.7206283" lon="15.0709964"><ele>871.0</ele><time>2026-04-12T14:49:56.751Z</time></trkpt><trkpt lat="40.7206499" lon="15.0709032"><ele>869.0</ele><time>2026-04-12T14:49:57.764Z</time></trkpt><trkpt lat="40.72067" lon="15.0708163"><ele>867.0</ele><time>2026-04-12T14:49:58.767Z</time></trkpt><trkpt lat="40.7206926" lon="15.0707338"><ele>865.0000000000001</ele><time>2026-04-12T14:49:59.781Z</time></trkpt><trkpt lat="40.7207035" lon="15.0706485"><ele>863.0</ele><time>2026-04-12T14:50:00.765Z</time></trkpt><trkpt lat="40.7207165" lon="15.0704821"><ele>862.1428571428572</ele><time>2026-04-12T14:50:02.756Z</time></trkpt><trkpt lat="40.7207261" lon="15.0703989"><ele>861.2857142857143</ele><time>2026-04-12T14:50:03.767Z</time></trkpt><trkpt lat="40.7207349" lon="15.0703151"><ele>860.4285714285714</ele><time>2026-04-12T14:50:04.757Z</time></trkpt><trkpt lat="40.7207425" lon="15.0702305"><ele>859.5714285714287</ele><time>2026-04-12T14:50:05.749Z</time></trkpt><trkpt lat="40.720745" lon="15.0701391"><ele>858.7142857142857</ele><time>2026-04-12T14:50:06.761Z</time></trkpt><trkpt lat="40.7207478" lon="15.0700495"><ele>857.8571428571429</ele><time>2026-04-12T14:50:07.754Z</time></trkpt><trkpt lat="40.7207523" lon="15.0699641"><ele>857.0</ele><time>2026-04-12T14:50:08.77Z</time></trkpt><trkpt lat="40.7207531" lon="15.0698699"><ele>855.7142857142857</ele><time>2026-04-12T14:50:09.756Z</time></trkpt><trkpt lat="40.7207583" lon="15.0697772"><ele>854.4285714285713</ele><time>2026-04-12T14:50:10.763Z</time></trkpt><trkpt lat="40.7207615" lon="15.0696806"><ele>853.1428571428571</ele><time>2026-04-12T14:50:11.766Z</time></trkpt><trkpt lat="40.7207671" lon="15.069584"><ele>851.8571428571429</ele><time>2026-04-12T14:50:12.77Z</time></trkpt><trkpt lat="40.7207745" lon="15.0694928"><ele>850.5714285714286</ele><time>2026-04-12T14:50:13.77Z</time></trkpt><trkpt lat="40.7207745" lon="15.0693884"><ele>849.2857142857143</ele><time>2026-04-12T14:50:14.772Z</time></trkpt><trkpt lat="40.7207754" lon="15.0692926"><ele>848.0</ele><time>2026-04-12T14:50:15.775Z</time></trkpt><trkpt lat="40.7207782" lon="15.0691931"><ele>846.3333333333334</ele><time>2026-04-12T14:50:16.779Z</time></trkpt><trkpt lat="40.7207863" lon="15.0690929"><ele>844.6666666666667</ele><time>2026-04-12T14:50:17.778Z</time></trkpt><trkpt lat="40.7207975" lon="15.0689908"><ele>843.0</ele><time>2026-04-12T14:50:18.753Z</time></trkpt><trkpt lat="40.7208071" lon="15.0688894"><ele>841.3333333333333</ele><time>2026-04-12T14:50:19.757Z</time></trkpt><trkpt lat="40.7208056" lon="15.0687726"><ele>839.6666666666666</ele><time>2026-04-12T14:50:20.773Z</time></trkpt><trkpt lat="40.720802" lon="15.0686479"><ele>838.0</ele><time>2026-04-12T14:50:21.764Z</time></trkpt><trkpt lat="40.7208045" lon="15.0685311"><ele>838.0</ele><time>2026-04-12T14:50:22.751Z</time></trkpt><trkpt lat="40.7208066" lon="15.0684199"><ele>838.0</ele><time>2026-04-12T14:50:23.764Z</time></trkpt><trkpt lat="40.7208133" lon="15.0682865"><ele>838.0</ele><time>2026-04-12T14:50:24.748Z</time></trkpt><trkpt lat="40.7208099" lon="15.068152"><ele>838.0</ele><time>2026-04-12T14:50:25.744Z</time></trkpt><trkpt lat="40.7208091" lon="15.0680164"><ele>838.0</ele><time>2026-04-12T14:50:26.745Z</time></trkpt><trkpt lat="40.7208055" lon="15.067903"><ele>836.4999999999999</ele><time>2026-04-12T14:50:27.742Z</time></trkpt><trkpt lat="40.7207947" lon="15.0677886"><ele>835.0</ele><time>2026-04-12T14:50:28.752Z</time></trkpt><trkpt lat="40.7207984" lon="15.0676752"><ele>833.5</ele><time>2026-04-12T14:50:29.757Z</time></trkpt><trkpt lat="40.7208006" lon="15.0675731"><ele>832.0</ele><time>2026-04-12T14:50:30.765Z</time></trkpt><trkpt lat="40.7208164" lon="15.0674732"><ele>830.4999999999999</ele><time>2026-04-12T14:50:31.75Z</time></trkpt><trkpt lat="40.7208256" lon="15.0673606"><ele>829.0</ele><time>2026-04-12T14:50:32.756Z</time></trkpt><trkpt lat="40.720837" lon="15.0672451"><ele>828.0</ele><time>2026-04-12T14:50:33.757Z</time></trkpt><trkpt lat="40.7208444" lon="15.0671153"><ele>827.0</ele><time>2026-04-12T14:50:34.757Z</time></trkpt><trkpt lat="40.7208443" lon="15.0669824"><ele>826.0</ele><time>2026-04-12T14:50:35.751Z</time></trkpt><trkpt lat="40.7208365" lon="15.0668384"><ele>825.0</ele><time>2026-04-12T14:50:36.753Z</time></trkpt><trkpt lat="40.7208319" lon="15.0667037"><ele>824.0</ele><time>2026-04-12T14:50:37.763Z</time></trkpt><trkpt lat="40.7208274" lon="15.0665647"><ele>823.1666666666667</ele><time>2026-04-12T14:50:38.75Z</time></trkpt><trkpt lat="40.7208351" lon="15.0664381"><ele>822.3333333333334</ele><time>2026-04-12T14:50:39.75Z</time></trkpt><trkpt lat="40.720863" lon="15.0663328"><ele>821.5</ele><time>2026-04-12T14:50:40.764Z</time></trkpt><trkpt lat="40.7208976" lon="15.0662291"><ele>820.6666666666667</ele><time>2026-04-12T14:50:41.774Z</time></trkpt><trkpt lat="40.7209389" lon="15.0661402"><ele>819.8333333333334</ele><time>2026-04-12T14:50:42.774Z</time></trkpt><trkpt lat="40.7209803" lon="15.0660484"><ele>819.0</ele><time>2026-04-12T14:50:43.764Z</time></trkpt><trkpt lat="40.7210169" lon="15.0659718"><ele>819.0</ele><time>2026-04-12T14:50:44.764Z</time></trkpt><trkpt lat="40.721051" lon="15.0658995"><ele>819.0</ele><time>2026-04-12T14:50:45.779Z</time></trkpt><trkpt lat="40.7210905" lon="15.0658064"><ele>819.0</ele><time>2026-04-12T14:50:46.757Z</time></trkpt><trkpt lat="40.7211264" lon="15.0657098"><ele>819.0</ele><time>2026-04-12T14:50:47.766Z</time></trkpt><trkpt lat="40.7211535" lon="15.0656195"><ele>819.0</ele><time>2026-04-12T14:50:48.77Z</time></trkpt><trkpt lat="40.7211728" lon="15.0655309"><ele>819.0</ele><time>2026-04-12T14:50:49.763Z</time></trkpt><trkpt lat="40.7211861" lon="15.0654346"><ele>819.0</ele><time>2026-04-12T14:50:50.755Z</time></trkpt><trkpt lat="40.7211877" lon="15.0653269"><ele>814.3333333333334</ele><time>2026-04-12T14:50:51.755Z</time></trkpt><trkpt lat="40.7211827" lon="15.0652181"><ele>809.6666666666667</ele><time>2026-04-12T14:50:52.754Z</time></trkpt><trkpt lat="40.7211722" lon="15.0651118"><ele>805.0</ele><time>2026-04-12T14:50:53.763Z</time></trkpt><trkpt lat="40.7211629" lon="15.0650021"><ele>800.3333333333334</ele><time>2026-04-12T14:50:54.765Z</time></trkpt><trkpt lat="40.7211347" lon="15.0648898"><ele>795.6666666666667</ele><time>2026-04-12T14:50:55.758Z</time></trkpt><trkpt lat="40.7210916" lon="15.0647771"><ele>791.0</ele><time>2026-04-12T14:50:56.75Z</time></trkpt><trkpt lat="40.7210199" lon="15.0646573"><ele>791.0</ele><time>2026-04-12T14:50:57.751Z</time></trkpt><trkpt lat="40.7209417" lon="15.0645519"><ele>791.0</ele><time>2026-04-12T14:50:58.743Z</time></trkpt><trkpt lat="40.7208649" lon="15.0644576"><ele>791.0</ele><time>2026-04-12T14:50:59.754Z</time></trkpt><trkpt lat="40.720785" lon="15.0643683"><ele>791.0</ele><time>2026-04-12T14:51:00.742Z</time></trkpt><trkpt lat="40.7207139" lon="15.0642822"><ele>791.0</ele><time>2026-04-12T14:51:01.752Z</time></trkpt><trkpt lat="40.7206499" lon="15.0641981"><ele>791.0000000000001</ele><time>2026-04-12T14:51:02.75Z</time></trkpt><trkpt lat="40.7206007" lon="15.0641195"><ele>791.0</ele><time>2026-04-12T14:51:03.743Z</time></trkpt><trkpt lat="40.7205684" lon="15.0640356"><ele>791.0</ele><time>2026-04-12T14:51:04.749Z</time></trkpt><trkpt lat="40.7205304" lon="15.0639598"><ele>791.0</ele><time>2026-04-12T14:51:05.742Z</time></trkpt><trkpt lat="40.7204719" lon="15.0639053"><ele>791.0000000000001</ele><time>2026-04-12T14:51:06.746Z</time></trkpt><trkpt lat="40.7204083" lon="15.0638541"><ele>791.0</ele><time>2026-04-12T14:51:07.754Z</time></trkpt><trkpt lat="40.7203059" lon="15.06377"><ele>788.3333333333334</ele><time>2026-04-12T14:51:09.762Z</time></trkpt><trkpt lat="40.720269" lon="15.0637023"><ele>785.6666666666667</ele><time>2026-04-12T14:51:10.767Z</time></trkpt><trkpt lat="40.7202528" lon="15.0636179"><ele>783.0</ele><time>2026-04-12T14:51:11.774Z</time></trkpt><trkpt lat="40.7202515" lon="15.0635164"><ele>780.3333333333333</ele><time>2026-04-12T14:51:12.764Z</time></trkpt><trkpt lat="40.7202505" lon="15.0634117"><ele>777.6666666666666</ele><time>2026-04-12T14:51:13.758Z</time></trkpt><trkpt lat="40.7202638" lon="15.0632331"><ele>775.0</ele><time>2026-04-12T14:51:15.751Z</time></trkpt><trkpt lat="40.7202729" lon="15.0631407"><ele>772.8333333333333</ele><time>2026-04-12T14:51:16.753Z</time></trkpt><trkpt lat="40.7202998" lon="15.06306"><ele>770.6666666666666</ele><time>2026-04-12T14:51:17.769Z</time></trkpt><trkpt lat="40.7203359" lon="15.0629857"><ele>768.5</ele><time>2026-04-12T14:51:18.763Z</time></trkpt><trkpt lat="40.7203953" lon="15.0629123"><ele>766.3333333333333</ele><time>2026-04-12T14:51:19.763Z</time></trkpt><trkpt lat="40.720451" lon="15.0628281"><ele>764.1666666666666</ele><time>2026-04-12T14:51:20.754Z</time></trkpt><trkpt lat="40.7204944" lon="15.0627359"><ele>762.0</ele><time>2026-04-12T14:51:21.752Z</time></trkpt><trkpt lat="40.7205274" lon="15.0626433"><ele>762.0</ele><time>2026-04-12T14:51:22.748Z</time></trkpt><trkpt lat="40.7205371" lon="15.0625308"><ele>762.0</ele><time>2026-04-12T14:51:23.755Z</time></trkpt><trkpt lat="40.7205355" lon="15.0623936"><ele>762.0</ele><time>2026-04-12T14:51:24.765Z</time></trkpt><trkpt lat="40.7205284" lon="15.0622333"><ele>762.0</ele><time>2026-04-12T14:51:25.754Z</time></trkpt><trkpt lat="40.7205192" lon="15.0620591"><ele>762.0</ele><time>2026-04-12T14:51:26.758Z</time></trkpt><trkpt lat="40.7205147" lon="15.0619033"><ele>760.4000000000001</ele><time>2026-04-12T14:51:27.755Z</time></trkpt><trkpt lat="40.7205077" lon="15.0617569"><ele>758.8000000000001</ele><time>2026-04-12T14:51:28.769Z</time></trkpt><trkpt lat="40.7204951" lon="15.0616183"><ele>757.2</ele><time>2026-04-12T14:51:29.769Z</time></trkpt><trkpt lat="40.7204735" lon="15.0614941"><ele>755.6</ele><time>2026-04-12T14:51:30.758Z</time></trkpt><trkpt lat="40.7204414" lon="15.0613672"><ele>754.0</ele><time>2026-04-12T14:51:31.765Z</time></trkpt><trkpt lat="40.7204113" lon="15.061241"><ele>753.6</ele><time>2026-04-12T14:51:32.781Z</time></trkpt><trkpt lat="40.7203955" lon="15.0611239"><ele>753.2</ele><time>2026-04-12T14:51:33.764Z</time></trkpt><trkpt lat="40.7203925" lon="15.0609929"><ele>752.8000000000001</ele><time>2026-04-12T14:51:34.763Z</time></trkpt><trkpt lat="40.7204069" lon="15.0608692"><ele>752.4000000000001</ele><time>2026-04-12T14:51:35.758Z</time></trkpt><trkpt lat="40.7204414" lon="15.0607587"><ele>752.0</ele><time>2026-04-12T14:51:36.76Z</time></trkpt><trkpt lat="40.7204879" lon="15.060648"><ele>752.0</ele><time>2026-04-12T14:51:37.755Z</time></trkpt><trkpt lat="40.7205248" lon="15.0605145"><ele>752.0</ele><time>2026-04-12T14:51:38.761Z</time></trkpt><trkpt lat="40.720563" lon="15.0603841"><ele>752.0</ele><time>2026-04-12T14:51:39.755Z</time></trkpt><trkpt lat="40.720595" lon="15.0602474"><ele>752.0</ele><time>2026-04-12T14:51:40.757Z</time></trkpt><trkpt lat="40.7206295" lon="15.0600817"><ele>751.75</ele><time>2026-04-12T14:51:41.76Z</time></trkpt><trkpt lat="40.7206664" lon="15.0599078"><ele>751.5</ele><time>2026-04-12T14:51:42.769Z</time></trkpt><trkpt lat="40.7207047" lon="15.0597422"><ele>751.25</ele><time>2026-04-12T14:51:43.779Z</time></trkpt><trkpt lat="40.7207337" lon="15.0595925"><ele>751.0</ele><time>2026-04-12T14:51:44.778Z</time></trkpt><trkpt lat="40.7207568" lon="15.0594556"><ele>751.0</ele><time>2026-04-12T14:51:45.763Z</time></trkpt><trkpt lat="40.7207768" lon="15.0593226"><ele>751.0</ele><time>2026-04-12T14:51:46.765Z</time></trkpt><trkpt lat="40.7207836" lon="15.0591985"><ele>751.0</ele><time>2026-04-12T14:51:47.761Z</time></trkpt><trkpt lat="40.7207813" lon="15.0590733"><ele>751.0</ele><time>2026-04-12T14:51:48.767Z</time></trkpt><trkpt lat="40.7207569" lon="15.0589609"><ele>751.0</ele><time>2026-04-12T14:51:49.76Z</time></trkpt><trkpt lat="40.7207132" lon="15.0588406"><ele>749.4</ele><time>2026-04-12T14:51:50.754Z</time></trkpt><trkpt lat="40.7206634" lon="15.0587366"><ele>747.8</ele><time>2026-04-12T14:51:51.751Z</time></trkpt><trkpt lat="40.7206214" lon="15.0586426"><ele>746.1999999999999</ele><time>2026-04-12T14:51:52.75Z</time></trkpt><trkpt lat="40.7205886" lon="15.0585641"><ele>744.5999999999999</ele><time>2026-04-12T14:51:53.747Z</time></trkpt><trkpt lat="40.7205906" lon="15.0584122"><ele>743.0</ele><time>2026-04-12T14:51:55.75Z</time></trkpt><trkpt lat="40.7206848" lon="15.0582963"><ele>739.5</ele><time>2026-04-12T14:51:57.766Z</time></trkpt><trkpt lat="40.7207743" lon="15.0582768"><ele>736.0</ele><time>2026-04-12T14:51:58.758Z</time></trkpt><trkpt lat="40.720859" lon="15.0582724"><ele>732.5</ele><time>2026-04-12T14:51:59.751Z</time></trkpt><trkpt lat="40.7209373" lon="15.0582659"><ele>729.0</ele><time>2026-04-12T14:52:00.746Z</time></trkpt><trkpt lat="40.7210054" lon="15.0582608"><ele>725.5</ele><time>2026-04-12T14:52:01.747Z</time></trkpt><trkpt lat="40.7211084" lon="15.0582535"><ele>722.0</ele><time>2026-04-12T14:52:03.749Z</time></trkpt><trkpt lat="40.7211813" lon="15.0582576"><ele>721.0</ele><time>2026-04-12T14:52:05.749Z</time></trkpt><trkpt lat="40.721255" lon="15.0582522"><ele>720.0</ele><time>2026-04-12T14:55:10.758Z</time></trkpt><trkpt lat="40.7213653" lon="15.0582442"><ele>719.0</ele><time>2026-04-12T14:57:00.753Z</time></trkpt><trkpt lat="40.7214327" lon="15.0582354"><ele>718.0</ele><time>2026-04-12T14:58:35.777Z</time></trkpt><trkpt lat="40.7215017" lon="15.0582303"><ele>717.0</ele><time>2026-04-12T14:58:45.768Z</time></trkpt><trkpt lat="40.7215649" lon="15.0582342"><ele>716.0</ele><time>2026-04-12T14:59:07.767Z</time></trkpt><trkpt lat="40.7216293" lon="15.0582296"><ele>715.0</ele><time>2026-04-12T15:02:35.777Z</time></trkpt><trkpt lat="40.7217011" lon="15.0582311"><ele>718.8333333333334</ele><time>2026-04-12T15:02:38.771Z</time></trkpt><trkpt lat="40.7217156" lon="15.0583272"><ele>722.6666666666667</ele><time>2026-04-12T15:02:41.779Z</time></trkpt><trkpt lat="40.7216933" lon="15.0584246"><ele>726.5</ele><time>2026-04-12T15:02:43.775Z</time></trkpt><trkpt lat="40.7216972" lon="15.0585124"><ele>730.3333333333334</ele><time>2026-04-12T15:02:45.783Z</time></trkpt><trkpt lat="40.7217338" lon="15.0586007"><ele>734.1666666666666</ele><time>2026-04-12T15:02:48.786Z</time></trkpt><trkpt lat="40.7217659" lon="15.058677"><ele>738.0</ele><time>2026-04-12T15:02:50.79Z</time></trkpt><trkpt lat="40.7218107" lon="15.0587862"><ele>738.0</ele><time>2026-04-12T15:02:52.778Z</time></trkpt><trkpt lat="40.7218592" lon="15.0589044"><ele>738.0</ele><time>2026-04-12T15:02:54.781Z</time></trkpt><trkpt lat="40.7219128" lon="15.0590062"><ele>738.0</ele><time>2026-04-12T15:02:56.788Z</time></trkpt><trkpt lat="40.7219488" lon="15.059102"><ele>738.0</ele><time>2026-04-12T15:02:58.781Z</time></trkpt><trkpt lat="40.7219503" lon="15.0592153"><ele>738.0</ele><time>2026-04-12T15:03:00.786Z</time></trkpt><trkpt lat="40.7219424" lon="15.0593369"><ele>740.4</ele><time>2026-04-12T15:03:02.796Z</time></trkpt><trkpt lat="40.7219025" lon="15.0594563"><ele>742.8</ele><time>2026-04-12T15:03:04.782Z</time></trkpt><trkpt lat="40.7218429" lon="15.0595811"><ele>745.2</ele><time>2026-04-12T15:03:06.783Z</time></trkpt><trkpt lat="40.7217922" lon="15.0597039"><ele>747.6</ele><time>2026-04-12T15:03:08.775Z</time></trkpt><trkpt lat="40.7217493" lon="15.0598045"><ele>750.0</ele><time>2026-04-12T15:03:11.793Z</time></trkpt><trkpt lat="40.7217111" lon="15.0598796"><ele>748.0</ele><time>2026-04-12T15:03:12.777Z</time></trkpt><trkpt lat="40.7216699" lon="15.0599584"><ele>746.0</ele><time>2026-04-12T15:03:13.778Z</time></trkpt><trkpt lat="40.7216253" lon="15.0600324"><ele>744.0</ele><time>2026-04-12T15:03:14.777Z</time></trkpt><trkpt lat="40.7215785" lon="15.0600993"><ele>742.0</ele><time>2026-04-12T15:03:15.77Z</time></trkpt><trkpt lat="40.7215307" lon="15.060158"><ele>740.0</ele><time>2026-04-12T15:03:16.771Z</time></trkpt><trkpt lat="40.7214827" lon="15.0602118"><ele>738.0</ele><time>2026-04-12T15:03:17.774Z</time></trkpt><trkpt lat="40.7214326" lon="15.0602768"><ele>736.0</ele><time>2026-04-12T15:03:18.773Z</time></trkpt><trkpt lat="40.7213818" lon="15.0603377"><ele>736.0</ele><time>2026-04-12T15:03:19.776Z</time></trkpt><trkpt lat="40.7213017" lon="15.0604629"><ele>736.0</ele><time>2026-04-12T15:03:21.776Z</time></trkpt><trkpt lat="40.7212514" lon="15.0606015"><ele>736.0</ele><time>2026-04-12T15:03:23.78Z</time></trkpt><trkpt lat="40.7212496" lon="15.0606873"><ele>736.0</ele><time>2026-04-12T15:03:24.769Z</time></trkpt><trkpt lat="40.7212599" lon="15.0607752"><ele>736.0</ele><time>2026-04-12T15:03:25.763Z</time></trkpt><trkpt lat="40.7212746" lon="15.0608648"><ele>736.0</ele><time>2026-04-12T15:03:26.782Z</time></trkpt><trkpt lat="40.7213019" lon="15.060953"><ele>734.0</ele><time>2026-04-12T15:03:27.772Z</time></trkpt><trkpt lat="40.7213263" lon="15.061039"><ele>732.0</ele><time>2026-04-12T15:03:28.777Z</time></trkpt><trkpt lat="40.7213487" lon="15.0611292"><ele>730.0</ele><time>2026-04-12T15:03:29.773Z</time></trkpt><trkpt lat="40.7213768" lon="15.0612211"><ele>728.0</ele><time>2026-04-12T15:03:30.767Z</time></trkpt><trkpt lat="40.7214044" lon="15.0613069"><ele>726.0</ele><time>2026-04-12T15:03:31.774Z</time></trkpt><trkpt lat="40.7214294" lon="15.0614013"><ele>724.0</ele><time>2026-04-12T15:03:32.776Z</time></trkpt><trkpt lat="40.7214515" lon="15.0614887"><ele>722.0</ele><time>2026-04-12T15:03:33.777Z</time></trkpt><trkpt lat="40.7214772" lon="15.061569"><ele>722.8</ele><time>2026-04-12T15:03:34.775Z</time></trkpt><trkpt lat="40.7215057" lon="15.0616442"><ele>723.6</ele><time>2026-04-12T15:03:35.773Z</time></trkpt><trkpt lat="40.721551" lon="15.0617633"><ele>724.4</ele><time>2026-04-12T15:03:37.78Z</time></trkpt><trkpt lat="40.7216264" lon="15.0618556"><ele>725.1999999999999</ele><time>2026-04-12T15:03:39.793Z</time></trkpt><trkpt lat="40.7216891" lon="15.0618726"><ele>726.0</ele><time>2026-04-12T15:03:40.793Z</time></trkpt><trkpt lat="40.721809" lon="15.061825"><ele>726.0</ele><time>2026-04-12T15:03:42.781Z</time></trkpt><trkpt lat="40.721857" lon="15.0617711"><ele>726.0</ele><time>2026-04-12T15:03:43.777Z</time></trkpt><trkpt lat="40.7219377" lon="15.0616417"><ele>726.0</ele><time>2026-04-12T15:03:45.774Z</time></trkpt><trkpt lat="40.7219755" lon="15.0615561"><ele>726.0</ele><time>2026-04-12T15:03:46.771Z</time></trkpt><trkpt lat="40.7220065" lon="15.0614609"><ele>726.0</ele><time>2026-04-12T15:03:47.767Z</time></trkpt><trkpt lat="40.7220298" lon="15.0613615"><ele>726.0</ele><time>2026-04-12T15:03:48.767Z</time></trkpt><trkpt lat="40.7220433" lon="15.0612523"><ele>727.4285714285713</ele><time>2026-04-12T15:03:49.76Z</time></trkpt><trkpt lat="40.7220495" lon="15.0611422"><ele>728.8571428571429</ele><time>2026-04-12T15:03:50.769Z</time></trkpt><trkpt lat="40.7220527" lon="15.0610338"><ele>730.2857142857142</ele><time>2026-04-12T15:03:51.766Z</time></trkpt><trkpt lat="40.7220624" lon="15.0609462"><ele>731.7142857142857</ele><time>2026-04-12T15:03:52.765Z</time></trkpt><trkpt lat="40.722077" lon="15.0608633"><ele>733.1428571428571</ele><time>2026-04-12T15:03:53.771Z</time></trkpt><trkpt lat="40.7220991" lon="15.0607805"><ele>734.5714285714286</ele><time>2026-04-12T15:03:54.769Z</time></trkpt><trkpt lat="40.7221355" lon="15.0607093"><ele>736.0</ele><time>2026-04-12T15:03:55.783Z</time></trkpt><trkpt lat="40.7222247" lon="15.0606107"><ele>732.5</ele><time>2026-04-12T15:03:57.777Z</time></trkpt><trkpt lat="40.722334" lon="15.0605144"><ele>729.0</ele><time>2026-04-12T15:03:59.774Z</time></trkpt><trkpt lat="40.7223946" lon="15.0604598"><ele>725.5</ele><time>2026-04-12T15:04:00.765Z</time></trkpt><trkpt lat="40.7224515" lon="15.0603955"><ele>722.0</ele><time>2026-04-12T15:04:01.779Z</time></trkpt><trkpt lat="40.7225032" lon="15.0603268"><ele>718.5</ele><time>2026-04-12T15:04:02.778Z</time></trkpt><trkpt lat="40.72257" lon="15.0602634"><ele>715.0</ele><time>2026-04-12T15:04:03.776Z</time></trkpt><trkpt lat="40.7226469" lon="15.0601945"><ele>715.0</ele><time>2026-04-12T15:04:04.768Z</time></trkpt><trkpt lat="40.7227222" lon="15.0601316"><ele>715.0</ele><time>2026-04-12T15:04:05.787Z</time></trkpt><trkpt lat="40.7227976" lon="15.0600677"><ele>715.0</ele><time>2026-04-12T15:04:06.77Z</time></trkpt><trkpt lat="40.7228708" lon="15.0599914"><ele>715.0</ele><time>2026-04-12T15:04:07.758Z</time></trkpt><trkpt lat="40.7229382" lon="15.0599046"><ele>715.0</ele><time>2026-04-12T15:04:08.773Z</time></trkpt><trkpt lat="40.72301" lon="15.0598178"><ele>711.6</ele><time>2026-04-12T15:04:09.765Z</time></trkpt><trkpt lat="40.7230683" lon="15.0597181"><ele>708.2</ele><time>2026-04-12T15:04:10.773Z</time></trkpt><trkpt lat="40.7231217" lon="15.0596241"><ele>704.8</ele><time>2026-04-12T15:04:11.775Z</time></trkpt><trkpt lat="40.7231852" lon="15.0595319"><ele>701.4</ele><time>2026-04-12T15:04:12.786Z</time></trkpt><trkpt lat="40.7232573" lon="15.0594414"><ele>698.0</ele><time>2026-04-12T15:04:13.781Z</time></trkpt><trkpt lat="40.7233328" lon="15.0593533"><ele>698.0</ele><time>2026-04-12T15:04:14.775Z</time></trkpt><trkpt lat="40.7234002" lon="15.0592638"><ele>698.0</ele><time>2026-04-12T15:04:15.772Z</time></trkpt><trkpt lat="40.7234657" lon="15.0591715"><ele>698.0</ele><time>2026-04-12T15:04:16.763Z</time></trkpt><trkpt lat="40.7235329" lon="15.0590865"><ele>698.0</ele><time>2026-04-12T15:04:17.766Z</time></trkpt><trkpt lat="40.7235929" lon="15.0590108"><ele>698.0</ele><time>2026-04-12T15:04:18.772Z</time></trkpt><trkpt lat="40.7236612" lon="15.0589461"><ele>694.6666666666666</ele><time>2026-04-12T15:04:19.769Z</time></trkpt><trkpt lat="40.7237239" lon="15.0589234"><ele>691.3333333333333</ele><time>2026-04-12T15:04:20.764Z</time></trkpt><trkpt lat="40.7237942" lon="15.0589074"><ele>688.0</ele><time>2026-04-12T15:04:21.781Z</time></trkpt><trkpt lat="40.7238627" lon="15.0588859"><ele>684.6666666666666</ele><time>2026-04-12T15:04:22.784Z</time></trkpt><trkpt lat="40.723928" lon="15.0588614"><ele>681.3333333333334</ele><time>2026-04-12T15:04:23.775Z</time></trkpt><trkpt lat="40.723989" lon="15.0588408"><ele>678.0</ele><time>2026-04-12T15:04:24.78Z</time></trkpt><trkpt lat="40.724107" lon="15.0588024"><ele>678.0</ele><time>2026-04-12T15:04:26.77Z</time></trkpt><trkpt lat="40.7242026" lon="15.0587647"><ele>678.0</ele><time>2026-04-12T15:04:28.778Z</time></trkpt><trkpt lat="40.7242674" lon="15.0587963"><ele>678.0</ele><time>2026-04-12T15:04:30.764Z</time></trkpt><trkpt lat="40.724332" lon="15.0588551"><ele>678.0</ele><time>2026-04-12T15:04:32.767Z</time></trkpt><trkpt lat="40.7243873" lon="15.0589268"><ele>678.0</ele><time>2026-04-12T15:04:34.758Z</time></trkpt></trkseg></trk></gpx>